Time,TemperatureF,DewpointF,PressureIn,WindDirection,WindDirectionDegrees,WindSpeedMPH,WindSpeedGustMPH,Humidity,HourlyPrecipIn,Conditions,Clouds,dailyrainin,SoftwareType,DateUTC
2013-02-28 00:00:00,10.6,-3.1,30.64,West,262,12.0,14.0,53,0.00,,---,0.00,VWS V14.01,2013-02-28 07:00:00,
2013-02-28 00:01:00,10.6,-3.1,30.64,WNW,292,6.0,12.0,53,0.00,,---,0.00,VWS V14.01,2013-02-28 07:01:00,
2013-02-28 00:02:00,10.6,-3.1,30.64,SW,235,7.0,12.0,53,0.00,,---,0.00,VWS V14.01,2013-02-28 07:02:00,
2013-02-28 00:03:00,10.6,-2.8,30.63,WSW,258,6.0,10.0,54,0.00,,---,0.00,VWS V14.01,2013-02-28 07:03:00,
2013-02-28 00:04:00,10.6,-2.8,30.63,SW,222,2.0,9.0,54,0.00,,---,0.00,VWS V14.01,2013-02-28 07:04:00,
2013-02-28 00:05:00,10.6,-2.8,30.64,WNW,283,9.0,11.0,54,0.00,,---,0.00,VWS V14.01,2013-02-28 07:05:00,
2013-02-28 00:06:00,10.5,-2.8,30.64,West,261,6.0,9.0,54,0.00,,---,0.00,VWS V14.01,2013-02-28 07:06:00,
2013-02-28 00:07:00,10.5,-2.8,30.64,SW,218,5.0,9.0,54,0.00,,---,0.00,VWS V14.01,2013-02-28 07:07:00,
2013-02-28 00:08:00,10.5,-2.8,30.64,WSW,252,2.0,25.0,54,0.00,,---,0.00,VWS V14.01,2013-02-28 07:08:00,
2013-02-28 00:09:00,10.5,-2.8,30.64,West,276,10.0,25.0,54,0.00,,---,0.00,VWS V14.01,2013-02-28 07:09:00,
2013-02-28 00:10:00,10.5,-2.8,30.64,NW,321,7.0,11.0,54,0.00,,---,0.00,VWS V14.01,2013-02-28 07:10:00,
2013-02-28 00:11:00,10.5,-2.8,30.64,WSW,254,2.0,9.0,54,0.00,,---,0.00,VWS V14.01,2013-02-28 07:11:00,
2013-02-28 00:12:00,10.5,-2.8,30.64,WSW,254,2.0,9.0,54,0.00,,---,0.00,VWS V14.01,2013-02-28 07:12:00,
2013-02-28 00:13:00,10.4,-2.6,30.64,SSW,209,10.0,12.0,55,0.00,,---,0.00,VWS V14.01,2013-02-28 07:13:00,
2013-02-28 00:14:00,10.4,-2.6,30.64,WSW,245,2.0,10.0,55,0.00,,---,0.00,VWS V14.01,2013-02-28 07:14:00,
2013-02-28 00:15:00,10.4,-2.6,30.64,WSW,245,0.0,2.0,55,0.00,,---,0.00,VWS V14.01,2013-02-28 07:15:00,
2013-02-28 00:16:00,10.4,-2.6,30.64,WSW,255,1.0,2.0,55,0.00,,---,0.00,VWS V14.01,2013-02-28 07:16:00,
2013-02-28 00:17:00,10.4,-2.6,30.64,WSW,255,1.0,2.0,55,0.00,,---,0.00,VWS V14.01,2013-02-28 07:17:00,
2013-02-28 00:19:00,10.3,-2.7,30.64,WSW,258,1.0,8.0,55,0.00,,---,0.00,VWS V14.01,2013-02-28 07:19:00,
2013-02-28 00:21:00,10.2,-2.7,30.64,NW,323,0.0,2.0,55,0.00,,---,0.00,VWS V14.01,2013-02-28 07:21:00,
2013-02-28 00:22:00,10.2,-2.7,30.64,NW,323,0.0,2.0,55,0.00,,---,0.00,VWS V14.01,2013-02-28 07:22:00,
2013-02-28 00:23:00,10.1,-2.8,30.64,NNW,336,1.0,4.0,55,0.00,,---,0.00,VWS V14.01,2013-02-28 07:23:00,
2013-02-28 00:24:00,10.1,-2.8,30.64,West,279,6.0,6.0,55,0.00,,---,0.00,VWS V14.01,2013-02-28 07:24:00,
2013-02-28 00:25:00,10.1,-2.5,30.64,WSW,253,4.0,7.0,56,0.00,,---,0.00,VWS V14.01,2013-02-28 07:25:00,
2013-02-28 00:26:00,10.1,-2.5,30.64,West,263,6.0,10.0,56,0.00,,---,0.00,VWS V14.01,2013-02-28 07:26:00,
2013-02-28 00:27:00,10.1,-2.5,30.64,West,263,6.0,10.0,56,0.00,,---,0.00,VWS V14.01,2013-02-28 07:27:00,
2013-02-28 00:28:00,10.1,-2.5,30.64,WSW,250,6.0,8.0,56,0.00,,---,0.00,VWS V14.01,2013-02-28 07:28:00,
2013-02-28 00:29:00,10.1,-2.5,30.65,SW,227,7.0,12.0,56,0.00,,---,0.00,VWS V14.01,2013-02-28 07:29:00,
2013-02-28 00:30:00,10.1,-2.5,30.65,SW,227,8.0,10.0,56,0.00,,---,0.00,VWS V14.01,2013-02-28 07:30:00,
2013-02-28 00:31:00,10.2,-2.4,30.65,West,270,6.0,11.0,56,0.00,,---,0.00,VWS V14.01,2013-02-28 07:31:00,
2013-02-28 00:32:00,10.2,-2.4,30.65,West,270,6.0,11.0,56,0.00,,---,0.00,VWS V14.01,2013-02-28 07:32:00,
2013-02-28 00:33:00,10.2,-2.4,30.65,SW,236,7.0,10.0,56,0.00,,---,0.00,VWS V14.01,2013-02-28 07:33:00,
2013-02-28 00:34:00,10.2,-2.4,30.65,NW,309,2.0,11.0,56,0.00,,---,0.00,VWS V14.01,2013-02-28 07:34:00,
2013-02-28 00:35:00,10.3,-2.3,30.65,WNW,284,7.0,7.0,56,0.00,,---,0.00,VWS V14.01,2013-02-28 07:35:00,
2013-02-28 00:36:00,10.3,-2.3,30.65,WSW,246,2.0,11.0,56,0.00,,---,0.00,VWS V14.01,2013-02-28 07:36:00,
2013-02-28 00:37:00,10.3,-2.3,30.65,WSW,246,2.0,11.0,56,0.00,,---,0.00,VWS V14.01,2013-02-28 07:37:00,
2013-02-28 00:38:00,10.3,-2.3,30.65,WSW,242,6.0,8.0,56,0.00,,---,0.00,VWS V14.01,2013-02-28 07:38:00,
2013-02-28 00:39:00,10.3,-2.3,30.65,WSW,257,4.0,8.0,56,0.00,,---,0.00,VWS V14.01,2013-02-28 07:39:00,
2013-02-28 00:40:00,10.3,-2.3,30.65,West,269,4.0,9.0,56,0.00,,---,0.00,VWS V14.01,2013-02-28 07:40:00,
2013-02-28 00:41:00,10.3,-2.3,30.65,SW,222,0.0,5.0,56,0.00,,---,0.00,VWS V14.01,2013-02-28 07:41:00,
2013-02-28 00:42:00,10.3,-2.3,30.65,SW,222,0.0,5.0,56,0.00,,---,0.00,VWS V14.01,2013-02-28 07:42:00,
2013-02-28 00:43:00,10.3,-2.3,30.66,West,278,2.0,14.0,56,0.00,,---,0.00,VWS V14.01,2013-02-28 07:43:00,
2013-02-28 00:44:00,10.3,-1.9,30.66,SW,235,7.0,12.0,57,0.00,,---,0.00,VWS V14.01,2013-02-28 07:44:00,
2013-02-28 00:45:00,10.4,-1.8,30.66,SW,217,2.0,9.0,57,0.00,,---,0.00,VWS V14.01,2013-02-28 07:45:00,
2013-02-28 00:46:00,10.4,-1.8,30.66,WSW,242,10.0,10.0,57,0.00,,---,0.00,VWS V14.01,2013-02-28 07:46:00,
2013-02-28 00:47:00,10.4,-1.8,30.66,WSW,242,10.0,10.0,57,0.00,,---,0.00,VWS V14.01,2013-02-28 07:47:00,
2013-02-28 00:48:00,10.4,-1.8,30.66,SSW,200,15.0,22.0,57,0.00,,---,0.00,VWS V14.01,2013-02-28 07:48:00,
2013-02-28 00:49:00,10.4,-1.8,30.66,WSW,242,6.0,15.0,57,0.00,,---,0.00,VWS V14.01,2013-02-28 07:49:00,
2013-02-28 00:50:00,10.4,-1.8,30.66,West,266,4.0,10.0,57,0.00,,---,0.00,VWS V14.01,2013-02-28 07:50:00,
2013-02-28 00:51:00,10.4,-1.4,30.66,West,280,7.0,18.0,58,0.00,,---,0.00,VWS V14.01,2013-02-28 07:51:00,
2013-02-28 00:52:00,10.4,-1.4,30.66,West,280,7.0,18.0,58,0.00,,---,0.00,VWS V14.01,2013-02-28 07:52:00,
2013-02-28 00:53:00,10.5,-1.3,30.66,SW,230,5.0,18.0,58,0.00,,---,0.00,VWS V14.01,2013-02-28 07:53:00,
2013-02-28 00:54:00,10.5,-1.3,30.66,West,263,3.0,8.0,58,0.00,,---,0.00,VWS V14.01,2013-02-28 07:54:00,
2013-02-28 00:55:00,10.5,-1.3,30.66,West,275,8.0,10.0,58,0.00,,---,0.00,VWS V14.01,2013-02-28 07:55:00,
2013-02-28 00:56:00,10.5,-1.3,30.66,WNW,298,11.0,14.0,58,0.00,,---,0.00,VWS V14.01,2013-02-28 07:56:00,
2013-02-28 00:57:00,10.5,-1.3,30.66,WNW,298,11.0,14.0,58,0.00,,---,0.00,VWS V14.01,2013-02-28 07:57:00,
2013-02-28 00:58:00,10.5,-1.3,30.66,SW,219,9.0,11.0,58,0.00,,---,0.00,VWS V14.01,2013-02-28 07:58:00,
2013-02-28 00:59:00,10.5,-1.3,30.66,WNW,299,8.0,9.0,58,0.00,,---,0.00,VWS V14.01,2013-02-28 07:59:00,
2013-02-28 01:00:00,10.5,-1.3,30.66,SSW,209,5.0,8.0,58,0.00,,---,0.00,VWS V14.01,2013-02-28 08:00:00,
2013-02-28 01:01:00,10.5,-1.3,30.66,WSW,242,6.0,18.0,58,0.00,,---,0.00,VWS V14.01,2013-02-28 08:01:00,
2013-02-28 01:02:00,10.5,-1.3,30.66,WSW,242,6.0,18.0,58,0.00,,---,0.00,VWS V14.01,2013-02-28 08:02:00,
2013-02-28 01:03:00,10.5,-1.3,30.66,SW,220,9.0,10.0,58,0.00,,---,0.00,VWS V14.01,2013-02-28 08:03:00,
2013-02-28 01:04:00,10.5,-1.3,30.66,SSW,212,5.0,13.0,58,0.00,,---,0.00,VWS V14.01,2013-02-28 08:04:00,
2013-02-28 01:05:00,10.5,-1.0,30.66,WSW,240,0.0,6.0,59,0.00,,---,0.00,VWS V14.01,2013-02-28 08:05:00,
2013-02-28 01:06:00,10.5,-1.0,30.66,West,279,5.0,8.0,59,0.00,,---,0.00,VWS V14.01,2013-02-28 08:06:00,
2013-02-28 01:07:00,10.5,-1.0,30.66,West,279,5.0,8.0,59,0.00,,---,0.00,VWS V14.01,2013-02-28 08:07:00,
2013-02-28 01:08:00,10.5,-1.3,30.66,West,262,7.0,9.0,58,0.00,,---,0.00,VWS V14.01,2013-02-28 08:08:00,
2013-02-28 01:09:00,10.6,-1.2,30.66,SW,227,5.0,11.0,58,0.00,,---,0.00,VWS V14.01,2013-02-28 08:09:00,
2013-02-28 01:10:00,10.6,-1.2,30.66,WNW,293,12.0,12.0,58,0.00,,---,0.00,VWS V14.01,2013-02-28 08:10:00,
2013-02-28 01:11:00,10.6,-1.2,30.67,WSW,258,8.0,14.0,58,0.00,,---,0.00,VWS V14.01,2013-02-28 08:11:00,
2013-02-28 01:12:00,10.6,-1.2,30.67,WSW,258,8.0,14.0,58,0.00,,---,0.00,VWS V14.01,2013-02-28 08:12:00,
2013-02-28 01:13:00,10.7,-1.1,30.66,SSW,210,4.0,18.0,58,0.00,,---,0.00,VWS V14.01,2013-02-28 08:13:00,
2013-02-28 01:14:00,10.7,-1.1,30.66,WSW,250,6.0,8.0,58,0.00,,---,0.00,VWS V14.01,2013-02-28 08:14:00,
2013-02-28 01:15:00,10.8,-1.1,30.67,West,279,9.0,15.0,58,0.00,,---,0.00,VWS V14.01,2013-02-28 08:15:00,
2013-02-28 01:16:00,10.8,-1.1,30.67,West,275,9.0,14.0,58,0.00,,---,0.00,VWS V14.01,2013-02-28 08:16:00,
2013-02-28 01:17:00,10.8,-1.1,30.67,West,275,9.0,14.0,58,0.00,,---,0.00,VWS V14.01,2013-02-28 08:17:00,
2013-02-28 01:18:00,10.8,-1.1,30.67,WSW,242,0.0,1.0,58,0.00,,---,0.00,VWS V14.01,2013-02-28 08:18:00,
2013-02-28 01:19:00,10.8,-1.1,30.67,South,188,0.0,4.0,58,0.00,,---,0.00,VWS V14.01,2013-02-28 08:19:00,
2013-02-28 01:20:00,10.8,-1.1,30.67,SSW,213,4.0,6.0,58,0.00,,---,0.00,VWS V14.01,2013-02-28 08:20:00,
2013-02-28 01:21:00,10.8,-1.1,30.67,WSW,250,2.0,10.0,58,0.00,,---,0.00,VWS V14.01,2013-02-28 08:21:00,
2013-02-28 01:22:00,10.8,-1.1,30.67,WSW,258,5.0,6.0,58,0.00,,---,0.00,VWS V14.01,2013-02-28 08:22:00,
2013-02-28 01:23:00,10.8,-1.1,30.67,WSW,250,2.0,10.0,58,0.00,,---,0.00,VWS V14.01,2013-02-28 08:23:00,
2013-02-28 01:24:00,10.7,-1.1,30.67,WSW,242,13.0,13.0,58,0.00,,---,0.00,VWS V14.01,2013-02-28 08:24:00,
2013-02-28 01:25:00,10.8,-1.1,30.67,West,260,8.0,16.0,58,0.00,,---,0.00,VWS V14.01,2013-02-28 08:25:00,
2013-02-28 01:26:00,10.8,-1.1,30.67,SSW,203,14.0,14.0,58,0.00,,---,0.00,VWS V14.01,2013-02-28 08:26:00,
2013-02-28 01:27:00,10.8,-1.1,30.67,WNW,288,9.0,16.0,58,0.00,,---,0.00,VWS V14.01,2013-02-28 08:27:00,
2013-02-28 01:28:00,10.8,-1.1,30.67,NW,307,10.0,14.0,58,0.00,,---,0.00,VWS V14.01,2013-02-28 08:28:00,
2013-02-28 01:29:00,11.0,-0.9,30.68,NNW,341,6.0,15.0,58,0.00,,---,0.00,VWS V14.01,2013-02-28 08:29:00,
2013-02-28 01:30:00,11.1,-0.8,30.67,West,266,12.0,20.0,58,0.00,,---,0.00,VWS V14.01,2013-02-28 08:30:00,
2013-02-28 01:31:00,11.1,-0.8,30.67,WNW,287,6.0,12.0,58,0.00,,---,0.00,VWS V14.01,2013-02-28 08:31:00,
2013-02-28 01:32:00,11.2,-0.7,30.68,West,259,5.0,18.0,58,0.00,,---,0.00,VWS V14.01,2013-02-28 08:32:00,
2013-02-28 01:33:00,11.2,-0.7,30.68,West,260,18.0,18.0,58,0.00,,---,0.00,VWS V14.01,2013-02-28 08:33:00,
2013-02-28 01:34:00,11.2,-0.7,30.67,WNW,300,12.0,15.0,58,0.00,,---,0.00,VWS V14.01,2013-02-28 08:34:00,
2013-02-28 01:35:00,11.2,-0.7,30.68,WNW,292,14.0,20.0,58,0.00,,---,0.00,VWS V14.01,2013-02-28 08:35:00,
2013-02-28 01:36:00,11.2,-0.7,30.67,WSW,253,10.0,15.0,58,0.00,,---,0.00,VWS V14.01,2013-02-28 08:36:00,
2013-02-28 01:37:00,11.3,-0.6,30.67,West,281,11.0,15.0,58,0.00,,---,0.00,VWS V14.01,2013-02-28 08:37:00,
2013-02-28 01:38:00,11.3,-0.6,30.67,WSW,243,10.0,15.0,58,0.00,,---,0.00,VWS V14.01,2013-02-28 08:38:00,
2013-02-28 01:39:00,11.3,-0.6,30.67,West,279,3.0,16.0,58,0.00,,---,0.00,VWS V14.01,2013-02-28 08:39:00,
2013-02-28 01:40:00,11.2,-0.7,30.67,WNW,290,8.0,9.0,58,0.00,,---,0.00,VWS V14.01,2013-02-28 08:40:00,
2013-02-28 01:41:00,11.2,-0.7,30.67,West,269,9.0,13.0,58,0.00,,---,0.00,VWS V14.01,2013-02-28 08:41:00,
2013-02-28 01:42:00,11.2,-0.7,30.67,WNW,287,9.0,9.0,58,0.00,,---,0.00,VWS V14.01,2013-02-28 08:42:00,
2013-02-28 01:43:00,11.2,-0.7,30.67,West,276,2.0,9.0,58,0.00,,---,0.00,VWS V14.01,2013-02-28 08:43:00,
2013-02-28 01:44:00,11.2,-0.7,30.67,NNW,331,5.0,20.0,58,0.00,,---,0.00,VWS V14.01,2013-02-28 08:44:00,
2013-02-28 01:45:00,11.2,-0.7,30.67,West,275,7.0,12.0,58,0.00,,---,0.00,VWS V14.01,2013-02-28 08:45:00,
2013-02-28 01:46:00,11.2,-0.7,30.67,SW,227,15.0,29.0,58,0.00,,---,0.00,VWS V14.01,2013-02-28 08:46:00,
2013-02-28 01:47:00,11.2,-0.7,30.67,SW,225,6.0,29.0,58,0.00,,---,0.00,VWS V14.01,2013-02-28 08:47:00,
2013-02-28 01:48:00,11.2,-0.7,30.67,WNW,290,11.0,29.0,58,0.00,,---,0.00,VWS V14.01,2013-02-28 08:48:00,
2013-02-28 01:49:00,11.2,-0.7,30.67,SW,228,4.0,11.0,58,0.00,,---,0.00,VWS V14.01,2013-02-28 08:49:00,
2013-02-28 01:50:00,11.2,-0.7,30.67,West,277,7.0,7.0,58,0.00,,---,0.00,VWS V14.01,2013-02-28 08:50:00,
2013-02-28 01:51:00,11.2,-0.7,30.67,South,187,5.0,9.0,58,0.00,,---,0.00,VWS V14.01,2013-02-28 08:51:00,
2013-02-28 01:52:00,11.2,-0.7,30.67,WSW,247,15.0,15.0,58,0.00,,---,0.00,VWS V14.01,2013-02-28 08:52:00,
2013-02-28 01:53:00,11.2,-0.7,30.67,SW,231,1.0,6.0,58,0.00,,---,0.00,VWS V14.01,2013-02-28 08:53:00,
2013-02-28 01:54:00,11.1,-0.8,30.68,NW,323,0.0,10.0,58,0.00,,---,0.00,VWS V14.01,2013-02-28 08:54:00,
2013-02-28 01:55:00,11.1,-0.8,30.67,SW,217,6.0,12.0,58,0.00,,---,0.00,VWS V14.01,2013-02-28 08:55:00,
2013-02-28 01:56:00,11.1,-0.8,30.67,SSW,213,9.0,9.0,58,0.00,,---,0.00,VWS V14.01,2013-02-28 08:56:00,
2013-02-28 01:57:00,11.1,-0.8,30.67,SSW,196,5.0,9.0,58,0.00,,---,0.00,VWS V14.01,2013-02-28 08:57:00,
2013-02-28 01:58:00,11.0,-0.9,30.67,SSW,194,2.0,9.0,58,0.00,,---,0.00,VWS V14.01,2013-02-28 08:58:00,
2013-02-28 01:59:00,11.1,-0.8,30.67,WSW,238,4.0,10.0,58,0.00,,---,0.00,VWS V14.01,2013-02-28 08:59:00,
2013-02-28 02:00:00,11.1,-0.8,30.67,West,273,2.0,12.0,58,0.00,,---,0.00,VWS V14.01,2013-02-28 09:00:00,
2013-02-28 02:01:00,11.0,-0.9,30.67,South,184,5.0,8.0,58,0.00,,---,0.00,VWS V14.01,2013-02-28 09:01:00,
2013-02-28 02:02:00,11.0,-0.9,30.67,South,177,16.0,19.0,58,0.00,,---,0.00,VWS V14.01,2013-02-28 09:02:00,
2013-02-28 02:03:00,11.0,-0.9,30.67,West,259,19.0,19.0,58,0.00,,---,0.00,VWS V14.01,2013-02-28 09:03:00,
2013-02-28 02:05:00,11.1,-0.8,30.67,SW,215,7.0,18.0,58,0.00,,---,0.00,VWS V14.01,2013-02-28 09:05:00,
2013-02-28 02:06:00,11.1,-0.8,30.67,WSW,256,6.0,20.0,58,0.00,,---,0.00,VWS V14.01,2013-02-28 09:06:00,
2013-02-28 02:07:00,11.1,-0.8,30.67,South,184,0.0,11.0,58,0.00,,---,0.00,VWS V14.01,2013-02-28 09:07:00,
2013-02-28 02:08:00,11.1,-0.8,30.67,South,184,0.0,11.0,58,0.00,,---,0.00,VWS V14.01,2013-02-28 09:08:00,
2013-02-28 02:09:00,11.1,-0.8,30.67,SSW,207,3.0,13.0,58,0.00,,---,0.00,VWS V14.01,2013-02-28 09:09:00,
2013-02-28 02:10:00,11.1,-0.8,30.67,NNW,333,0.0,5.0,58,0.00,,---,0.00,VWS V14.01,2013-02-28 09:10:00,
2013-02-28 02:11:00,11.1,-0.8,30.67,WSW,247,11.0,13.0,58,0.00,,---,0.00,VWS V14.01,2013-02-28 09:11:00,
2013-02-28 02:12:00,11.1,-0.8,30.67,WSW,250,9.0,14.0,58,0.00,,---,0.00,VWS V14.01,2013-02-28 09:12:00,
2013-02-28 02:13:00,11.1,-0.8,30.67,SSW,211,9.0,14.0,58,0.00,,---,0.00,VWS V14.01,2013-02-28 09:13:00,
2013-02-28 02:14:00,11.0,-0.9,30.67,West,272,1.0,8.0,58,0.00,,---,0.00,VWS V14.01,2013-02-28 09:14:00,
2013-02-28 02:15:00,11.0,-0.9,30.67,SW,236,7.0,15.0,58,0.00,,---,0.00,VWS V14.01,2013-02-28 09:15:00,
2013-02-28 02:16:00,11.0,-0.9,30.67,WSW,238,16.0,19.0,58,0.00,,---,0.00,VWS V14.01,2013-02-28 09:16:00,
2013-02-28 02:17:00,11.0,-0.9,30.67,WSW,239,7.0,16.0,58,0.00,,---,0.00,VWS V14.01,2013-02-28 09:17:00,
2013-02-28 02:18:00,11.0,-0.9,30.67,WSW,238,5.0,16.0,58,0.00,,---,0.00,VWS V14.01,2013-02-28 09:18:00,
2013-02-28 02:19:00,11.0,-0.9,30.67,WSW,246,8.0,13.0,58,0.00,,---,0.00,VWS V14.01,2013-02-28 09:19:00,
2013-02-28 02:20:00,11.0,-0.9,30.67,WSW,240,13.0,20.0,58,0.00,,---,0.00,VWS V14.01,2013-02-28 09:20:00,
2013-02-28 02:21:00,11.0,-0.9,30.67,WNW,302,11.0,15.0,58,0.00,,---,0.00,VWS V14.01,2013-02-28 09:21:00,
2013-02-28 02:22:00,11.0,-0.9,30.67,West,281,8.0,19.0,58,0.00,,---,0.00,VWS V14.01,2013-02-28 09:22:00,
2013-02-28 02:23:00,11.0,-0.9,30.67,West,281,8.0,19.0,58,0.00,,---,0.00,VWS V14.01,2013-02-28 09:23:00,
2013-02-28 02:24:00,11.1,-0.8,30.66,South,183,3.0,18.0,58,0.00,,---,0.00,VWS V14.01,2013-02-28 09:24:00,
2013-02-28 02:25:00,11.1,-0.8,30.67,West,259,4.0,8.0,58,0.00,,---,0.00,VWS V14.01,2013-02-28 09:25:00,
2013-02-28 02:26:00,11.1,-0.8,30.67,WSW,253,21.0,21.0,58,0.00,,---,0.00,VWS V14.01,2013-02-28 09:26:00,
2013-02-28 02:27:00,11.1,-0.8,30.67,WSW,249,13.0,21.0,58,0.00,,---,0.00,VWS V14.01,2013-02-28 09:27:00,
2013-02-28 02:28:00,11.1,-0.8,30.67,WSW,249,13.0,21.0,58,0.00,,---,0.00,VWS V14.01,2013-02-28 09:28:00,
2013-02-28 02:29:00,11.0,-0.9,30.67,WSW,248,5.0,7.0,58,0.00,,---,0.00,VWS V14.01,2013-02-28 09:29:00,
2013-02-28 02:30:00,11.0,-0.9,30.67,SW,234,2.0,8.0,58,0.00,,---,0.00,VWS V14.01,2013-02-28 09:30:00,
2013-02-28 02:31:00,11.0,-0.9,30.67,SW,225,1.0,2.0,58,0.00,,---,0.00,VWS V14.01,2013-02-28 09:31:00,
2013-02-28 02:32:00,10.9,-1.0,30.67,West,269,11.0,12.0,58,0.00,,---,0.00,VWS V14.01,2013-02-28 09:32:00,
2013-02-28 02:33:00,10.9,-1.0,30.67,West,269,11.0,12.0,58,0.00,,---,0.00,VWS V14.01,2013-02-28 09:33:00,
2013-02-28 02:34:00,10.8,-1.1,30.67,WSW,240,5.0,8.0,58,0.00,,---,0.00,VWS V14.01,2013-02-28 09:34:00,
2013-02-28 02:35:00,10.8,-1.1,30.66,WSW,244,16.0,16.0,58,0.00,,---,0.00,VWS V14.01,2013-02-28 09:35:00,
2013-02-28 02:36:00,10.8,-0.7,30.66,SSW,204,6.0,19.0,59,0.00,,---,0.00,VWS V14.01,2013-02-28 09:36:00,
2013-02-28 02:37:00,10.8,-0.7,30.66,West,259,3.0,18.0,59,0.00,,---,0.00,VWS V14.01,2013-02-28 09:37:00,
2013-02-28 02:38:00,10.8,-0.7,30.66,SSW,212,16.0,16.0,59,0.00,,---,0.00,VWS V14.01,2013-02-28 09:38:00,
2013-02-28 02:39:00,10.8,-0.7,30.66,West,259,3.0,18.0,59,0.00,,---,0.00,VWS V14.01,2013-02-28 09:39:00,
2013-02-28 02:40:00,10.8,-0.7,30.67,SSW,194,4.0,12.0,59,0.00,,---,0.00,VWS V14.01,2013-02-28 09:40:00,
2013-02-28 02:41:00,10.8,-0.7,30.66,South,191,6.0,10.0,59,0.00,,---,0.00,VWS V14.01,2013-02-28 09:41:00,
2013-02-28 02:42:00,10.8,-0.7,30.66,West,272,7.0,15.0,59,0.00,,---,0.00,VWS V14.01,2013-02-28 09:42:00,
2013-02-28 02:43:00,10.8,-0.7,30.66,West,270,5.0,11.0,59,0.00,,---,0.00,VWS V14.01,2013-02-28 09:43:00,
2013-02-28 02:44:00,10.8,-0.7,30.66,SSW,200,7.0,7.0,59,0.00,,---,0.00,VWS V14.01,2013-02-28 09:44:00,
2013-02-28 02:45:00,10.8,-0.7,30.66,SW,217,10.0,12.0,59,0.00,,---,0.00,VWS V14.01,2013-02-28 09:45:00,
2013-02-28 02:46:00,10.8,-0.7,30.66,WSW,250,4.0,14.0,59,0.00,,---,0.00,VWS V14.01,2013-02-28 09:46:00,
2013-02-28 02:47:00,10.8,-0.7,30.66,WSW,251,14.0,20.0,59,0.00,,---,0.00,VWS V14.01,2013-02-28 09:47:00,
2013-02-28 02:48:00,10.8,-0.7,30.66,SW,221,8.0,18.0,59,0.00,,---,0.00,VWS V14.01,2013-02-28 09:48:00,
2013-02-28 02:49:00,10.8,-0.7,30.66,WSW,250,8.0,15.0,59,0.00,,---,0.00,VWS V14.01,2013-02-28 09:49:00,
2013-02-28 02:50:00,10.9,-0.6,30.66,West,272,5.0,14.0,59,0.00,,---,0.00,VWS V14.01,2013-02-28 09:50:00,
2013-02-28 02:51:00,10.9,-0.6,30.66,WSW,242,9.0,12.0,59,0.00,,---,0.00,VWS V14.01,2013-02-28 09:51:00,
2013-02-28 02:52:00,10.9,-0.6,30.66,WSW,243,10.0,19.0,59,0.00,,---,0.00,VWS V14.01,2013-02-28 09:52:00,
2013-02-28 02:53:00,11.0,-0.9,30.65,West,261,8.0,15.0,58,0.00,,---,0.00,VWS V14.01,2013-02-28 09:53:00,
2013-02-28 02:54:00,10.9,-1.0,30.65,South,191,13.0,15.0,58,0.00,,---,0.00,VWS V14.01,2013-02-28 09:54:00,
2013-02-28 02:55:00,11.0,-0.5,30.66,West,273,11.0,20.0,59,0.00,,---,0.00,VWS V14.01,2013-02-28 09:55:00,
2013-02-28 02:56:00,11.1,-0.8,30.66,SSW,194,5.0,18.0,58,0.00,,---,0.00,VWS V14.01,2013-02-28 09:56:00,
2013-02-28 02:57:00,11.1,-0.8,30.66,SW,214,6.0,11.0,58,0.00,,---,0.00,VWS V14.01,2013-02-28 09:57:00,
2013-02-28 02:58:00,11.2,-0.7,30.66,SSW,207,9.0,19.0,58,0.00,,---,0.00,VWS V14.01,2013-02-28 09:58:00,
2013-02-28 02:59:00,11.1,-0.8,30.66,NNE,18,4.0,6.0,58,0.00,,---,0.00,VWS V14.01,2013-02-28 09:59:00,
2013-02-28 03:00:00,11.3,-0.6,30.65,SW,227,12.0,13.0,58,0.00,,---,0.00,VWS V14.01,2013-02-28 10:00:00,
2013-02-28 03:01:00,11.3,-0.6,30.65,WSW,245,7.0,19.0,58,0.00,,---,0.00,VWS V14.01,2013-02-28 10:01:00,
2013-02-28 03:02:00,11.3,-0.6,30.65,WSW,244,6.0,12.0,58,0.00,,---,0.00,VWS V14.01,2013-02-28 10:02:00,
2013-02-28 03:03:00,11.3,-1.0,30.65,WSW,242,10.0,19.0,57,0.00,,---,0.00,VWS V14.01,2013-02-28 10:03:00,
2013-02-28 03:04:00,11.3,-0.6,30.65,WSW,242,9.0,19.0,58,0.00,,---,0.00,VWS V14.01,2013-02-28 10:04:00,
2013-02-28 03:05:00,11.4,-0.9,30.65,WSW,255,13.0,20.0,57,0.00,,---,0.00,VWS V14.01,2013-02-28 10:05:00,
2013-02-28 03:06:00,11.4,-0.9,30.65,SW,224,14.0,14.0,57,0.00,,---,0.00,VWS V14.01,2013-02-28 10:06:00,
2013-02-28 03:07:00,11.4,-0.9,30.65,SSW,203,7.0,14.0,57,0.00,,---,0.00,VWS V14.01,2013-02-28 10:07:00,
2013-02-28 03:08:00,11.4,-0.9,30.65,SW,215,5.0,18.0,57,0.00,,---,0.00,VWS V14.01,2013-02-28 10:08:00,
2013-02-28 03:09:00,11.3,-1.0,30.65,SW,221,9.0,18.0,57,0.00,,---,0.00,VWS V14.01,2013-02-28 10:09:00,
2013-02-28 03:10:00,11.4,-0.9,30.64,SW,232,2.0,11.0,57,0.00,,---,0.00,VWS V14.01,2013-02-28 10:10:00,
2013-02-28 03:11:00,11.4,-0.9,30.64,WSW,241,5.0,9.0,57,0.00,,---,0.00,VWS V14.01,2013-02-28 10:11:00,
2013-02-28 03:12:00,11.4,-1.2,30.64,WSW,237,2.0,12.0,56,0.00,,---,0.00,VWS V14.01,2013-02-28 10:12:00,
2013-02-28 03:13:00,11.4,-1.2,30.64,WSW,249,9.0,11.0,56,0.00,,---,0.00,VWS V14.01,2013-02-28 10:13:00,
2013-02-28 03:14:00,11.4,-1.2,30.64,SSW,211,8.0,8.0,56,0.00,,---,0.00,VWS V14.01,2013-02-28 10:14:00,
2013-02-28 03:15:00,11.4,-1.2,30.64,SW,219,9.0,19.0,56,0.00,,---,0.00,VWS V14.01,2013-02-28 10:15:00,
2013-02-28 03:16:00,11.4,-1.2,30.64,SSW,207,7.0,13.0,56,0.00,,---,0.00,VWS V14.01,2013-02-28 10:16:00,
2013-02-28 03:17:00,11.4,-1.2,30.64,SSW,208,6.0,9.0,56,0.00,,---,0.00,VWS V14.01,2013-02-28 10:17:00,
2013-02-28 03:18:00,11.5,-1.1,30.64,SSW,211,16.0,16.0,56,0.00,,---,0.00,VWS V14.01,2013-02-28 10:18:00,
2013-02-28 03:19:00,11.4,-1.2,30.64,SSW,205,1.0,8.0,56,0.00,,---,0.00,VWS V14.01,2013-02-28 10:19:00,
2013-02-28 03:20:00,11.6,-1.0,30.64,SW,232,7.0,12.0,56,0.00,,---,0.00,VWS V14.01,2013-02-28 10:20:00,
2013-02-28 03:21:00,11.6,-1.0,30.64,SSW,200,8.0,9.0,56,0.00,,---,0.00,VWS V14.01,2013-02-28 10:21:00,
2013-02-28 03:22:00,11.6,-1.0,30.64,WSW,238,13.0,16.0,56,0.00,,---,0.00,VWS V14.01,2013-02-28 10:22:00,
2013-02-28 03:23:00,11.7,-1.0,30.64,SW,222,4.0,13.0,56,0.00,,---,0.00,VWS V14.01,2013-02-28 10:23:00,
2013-02-28 03:24:00,11.6,-1.0,30.64,SW,222,6.0,13.0,56,0.00,,---,0.00,VWS V14.01,2013-02-28 10:24:00,
2013-02-28 03:25:00,11.7,-1.3,30.64,SSW,210,5.0,12.0,55,0.00,,---,0.00,VWS V14.01,2013-02-28 10:25:00,
2013-02-28 03:26:00,11.6,-1.4,30.64,SSW,213,2.0,13.0,55,0.00,,---,0.00,VWS V14.01,2013-02-28 10:26:00,
2013-02-28 03:27:00,11.6,-1.4,30.64,SW,217,7.0,9.0,55,0.00,,---,0.00,VWS V14.01,2013-02-28 10:27:00,
2013-02-28 03:28:00,11.6,-1.4,30.64,SSW,202,2.0,9.0,55,0.00,,---,0.00,VWS V14.01,2013-02-28 10:28:00,
2013-02-28 03:29:00,11.6,-1.4,30.64,SSW,202,8.0,9.0,55,0.00,,---,0.00,VWS V14.01,2013-02-28 10:29:00,
2013-02-28 03:30:00,11.5,-1.1,30.64,SW,217,2.0,14.0,56,0.00,,---,0.00,VWS V14.01,2013-02-28 10:30:00,
2013-02-28 03:31:00,11.4,-1.2,30.64,SW,227,2.0,7.0,56,0.00,,---,0.00,VWS V14.01,2013-02-28 10:31:00,
2013-02-28 03:32:00,11.4,-1.2,30.64,SSW,205,2.0,9.0,56,0.00,,---,0.00,VWS V14.01,2013-02-28 10:32:00,
2013-02-28 03:33:00,11.4,-1.2,30.63,South,178,0.0,7.0,56,0.00,,---,0.00,VWS V14.01,2013-02-28 10:33:00,
2013-02-28 03:34:00,11.4,-1.2,30.63,South,178,2.0,7.0,56,0.00,,---,0.00,VWS V14.01,2013-02-28 10:34:00,
2013-02-28 03:35:00,11.3,-1.3,30.64,SSW,202,2.0,8.0,56,0.00,,---,0.00,VWS V14.01,2013-02-28 10:35:00,
2013-02-28 03:36:00,11.3,-1.3,30.64,SSW,212,5.0,19.0,56,0.00,,---,0.00,VWS V14.01,2013-02-28 10:36:00,
2013-02-28 03:37:00,11.2,-1.4,30.64,SW,233,2.0,10.0,56,0.00,,---,0.00,VWS V14.01,2013-02-28 10:37:00,
2013-02-28 03:38:00,11.2,-1.4,30.64,SW,232,1.0,11.0,56,0.00,,---,0.00,VWS V14.01,2013-02-28 10:38:00,
2013-02-28 03:39:00,11.2,-1.4,30.64,SW,232,6.0,11.0,56,0.00,,---,0.00,VWS V14.01,2013-02-28 10:39:00,
2013-02-28 03:40:00,11.3,-1.3,30.63,SW,235,14.0,14.0,56,0.00,,---,0.00,VWS V14.01,2013-02-28 10:40:00,
2013-02-28 03:41:00,11.3,-1.3,30.63,SSW,199,4.0,14.0,56,0.00,,---,0.00,VWS V14.01,2013-02-28 10:41:00,
2013-02-28 03:42:00,11.4,-1.2,30.63,SW,232,7.0,13.0,56,0.00,,---,0.00,VWS V14.01,2013-02-28 10:42:00,
2013-02-28 03:43:00,11.5,-1.1,30.63,West,259,6.0,11.0,56,0.00,,---,0.00,VWS V14.01,2013-02-28 10:43:00,
2013-02-28 03:44:00,11.4,-1.2,30.63,SW,231,5.0,11.0,56,0.00,,---,0.00,VWS V14.01,2013-02-28 10:44:00,
2013-02-28 03:45:00,11.5,-1.1,30.63,SW,230,2.0,5.0,56,0.00,,---,0.00,VWS V14.01,2013-02-28 10:45:00,
2013-02-28 03:46:00,11.4,-1.2,30.63,WSW,244,8.0,8.0,56,0.00,,---,0.00,VWS V14.01,2013-02-28 10:46:00,
2013-02-28 03:47:00,11.4,-1.2,30.63,WSW,241,9.0,13.0,56,0.00,,---,0.00,VWS V14.01,2013-02-28 10:47:00,
2013-02-28 03:48:00,11.4,-1.2,30.63,SSW,205,3.0,15.0,56,0.00,,---,0.00,VWS V14.01,2013-02-28 10:48:00,
2013-02-28 03:49:00,11.4,-1.2,30.63,SSW,205,3.0,15.0,56,0.00,,---,0.00,VWS V14.01,2013-02-28 10:49:00,
2013-02-28 03:50:00,11.4,-1.2,30.63,SSW,204,8.0,11.0,56,0.00,,---,0.00,VWS V14.01,2013-02-28 10:50:00,
2013-02-28 03:51:00,11.4,-1.2,30.63,South,187,4.0,9.0,56,0.00,,---,0.00,VWS V14.01,2013-02-28 10:51:00,
2013-02-28 03:52:00,11.3,-1.3,30.63,SSW,194,6.0,6.0,56,0.00,,---,0.00,VWS V14.01,2013-02-28 10:52:00,
2013-02-28 03:53:00,11.3,-1.3,30.63,SSW,213,2.0,8.0,56,0.00,,---,0.00,VWS V14.01,2013-02-28 10:53:00,
2013-02-28 03:54:00,11.3,-1.3,30.63,SSW,213,2.0,8.0,56,0.00,,---,0.00,VWS V14.01,2013-02-28 10:54:00,
2013-02-28 03:55:00,11.2,-1.4,30.63,SSW,194,3.0,8.0,56,0.00,,---,0.00,VWS V14.01,2013-02-28 10:55:00,
2013-02-28 03:56:00,11.2,-1.4,30.63,WSW,239,5.0,10.0,56,0.00,,---,0.00,VWS V14.01,2013-02-28 10:56:00,
2013-02-28 03:57:00,11.1,-1.5,30.63,SSW,213,9.0,10.0,56,0.00,,---,0.00,VWS V14.01,2013-02-28 10:57:00,
2013-02-28 03:58:00,11.0,-1.6,30.63,SW,232,6.0,9.0,56,0.00,,---,0.00,VWS V14.01,2013-02-28 10:58:00,
2013-02-28 03:59:00,11.0,-1.6,30.63,SW,227,7.0,9.0,56,0.00,,---,0.00,VWS V14.01,2013-02-28 10:59:00,
2013-02-28 04:00:00,10.9,-1.7,30.63,SW,232,6.0,6.0,56,0.00,,---,0.00,VWS V14.01,2013-02-28 11:00:00,
2013-02-28 04:01:00,10.8,-1.8,30.63,SW,214,7.0,8.0,56,0.00,,---,0.00,VWS V14.01,2013-02-28 11:01:00,
2013-02-28 04:02:00,10.8,-1.8,30.63,SW,215,1.0,7.0,56,0.00,,---,0.00,VWS V14.01,2013-02-28 11:02:00,
2013-02-28 04:03:00,10.8,-1.8,30.63,South,173,11.0,11.0,56,0.00,,---,0.00,VWS V14.01,2013-02-28 11:03:00,
2013-02-28 04:04:00,10.7,-1.9,30.63,WSW,240,1.0,11.0,56,0.00,,---,0.00,VWS V14.01,2013-02-28 11:04:00,
2013-02-28 04:05:00,10.8,-1.8,30.63,South,173,11.0,11.0,56,0.00,,---,0.00,VWS V14.01,2013-02-28 11:05:00,
2013-02-28 04:06:00,10.6,-2.0,30.63,SW,225,10.0,12.0,56,0.00,,---,0.00,VWS V14.01,2013-02-28 11:06:00,
2013-02-28 04:07:00,10.6,-1.6,30.63,SSW,192,7.0,11.0,57,0.00,,---,0.00,VWS V14.01,2013-02-28 11:07:00,
2013-02-28 04:08:00,10.6,-1.6,30.63,SSW,200,6.0,11.0,57,0.00,,---,0.00,VWS V14.01,2013-02-28 11:08:00,
2013-02-28 04:09:00,10.5,-1.7,30.63,SSW,198,6.0,12.0,57,0.00,,---,0.00,VWS V14.01,2013-02-28 11:09:00,
2013-02-28 04:10:00,10.6,-1.6,30.63,South,190,6.0,6.0,57,0.00,,---,0.00,VWS V14.01,2013-02-28 11:10:00,
2013-02-28 04:11:00,10.6,-1.6,30.63,SSW,198,0.0,7.0,57,0.00,,---,0.00,VWS V14.01,2013-02-28 11:11:00,
2013-02-28 04:12:00,10.5,-1.7,30.63,SSW,198,4.0,4.0,57,0.00,,---,0.00,VWS V14.01,2013-02-28 11:12:00,
2013-02-28 04:13:00,10.5,-1.7,30.63,SSW,196,3.0,5.0,57,0.00,,---,0.00,VWS V14.01,2013-02-28 11:13:00,
2013-02-28 04:14:00,10.5,-1.7,30.63,SSW,197,5.0,7.0,57,0.00,,---,0.00,VWS V14.01,2013-02-28 11:14:00,
2013-02-28 04:15:00,10.5,-1.7,30.63,SSW,196,1.0,3.0,57,0.00,,---,0.00,VWS V14.01,2013-02-28 11:15:00,
2013-02-28 04:16:00,10.6,-1.6,30.63,SW,227,9.0,20.0,57,0.00,,---,0.00,VWS V14.01,2013-02-28 11:16:00,
2013-02-28 04:17:00,10.6,-1.6,30.63,SW,233,5.0,9.0,57,0.00,,---,0.00,VWS V14.01,2013-02-28 11:17:00,
2013-02-28 04:18:00,10.7,-1.5,30.63,SW,233,4.0,5.0,57,0.00,,---,0.00,VWS V14.01,2013-02-28 11:18:00,
2013-02-28 04:19:00,10.7,-1.9,30.63,SSE,164,9.0,16.0,56,0.00,,---,0.00,VWS V14.01,2013-02-28 11:19:00,
2013-02-28 04:20:00,10.7,-1.5,30.63,SW,234,2.0,4.0,57,0.00,,---,0.00,VWS V14.01,2013-02-28 11:20:00,
2013-02-28 04:21:00,10.9,-1.7,30.63,SSW,194,7.0,12.0,56,0.00,,---,0.00,VWS V14.01,2013-02-28 11:21:00,
2013-02-28 04:22:00,11.0,-1.6,30.62,SSE,157,1.0,8.0,56,0.00,,---,0.00,VWS V14.01,2013-02-28 11:22:00,
2013-02-28 04:23:00,11.0,-1.6,30.62,South,182,2.0,6.0,56,0.00,,---,0.00,VWS V14.01,2013-02-28 11:23:00,
2013-02-28 04:24:00,11.0,-1.6,30.63,South,182,0.0,5.0,56,0.00,,---,0.00,VWS V14.01,2013-02-28 11:24:00,
2013-02-28 04:25:00,11.0,-1.6,30.63,South,182,2.0,5.0,56,0.00,,---,0.00,VWS V14.01,2013-02-28 11:25:00,
2013-02-28 04:26:00,11.1,-1.9,30.63,South,184,1.0,4.0,55,0.00,,---,0.00,VWS V14.01,2013-02-28 11:26:00,
2013-02-28 04:27:00,11.1,-1.9,30.63,South,184,0.0,2.0,55,0.00,,---,0.00,VWS V14.01,2013-02-28 11:27:00,
2013-02-28 04:28:00,11.0,-1.6,30.62,South,184,0.0,2.0,56,0.00,,---,0.00,VWS V14.01,2013-02-28 11:28:00,
2013-02-28 04:29:00,11.0,-1.6,30.62,South,184,0.0,0.0,56,0.00,,---,0.00,VWS V14.01,2013-02-28 11:29:00,
2013-02-28 04:30:00,11.1,-1.5,30.62,South,184,0.0,0.0,56,0.00,,---,0.00,VWS V14.01,2013-02-28 11:30:00,
2013-02-28 04:31:00,10.9,-1.7,30.63,South,184,0.0,1.0,56,0.00,,---,0.00,VWS V14.01,2013-02-28 11:31:00,
2013-02-28 04:32:00,10.9,-1.7,30.62,South,184,1.0,1.0,56,0.00,,---,0.00,VWS V14.01,2013-02-28 11:32:00,
2013-02-28 04:33:00,10.9,-1.7,30.62,South,184,0.0,3.0,56,0.00,,---,0.00,VWS V14.01,2013-02-28 11:33:00,
2013-02-28 04:34:00,10.8,-1.8,30.62,South,184,1.0,1.0,56,0.00,,---,0.00,VWS V14.01,2013-02-28 11:34:00,
2013-02-28 04:35:00,10.9,-1.7,30.62,South,184,0.0,0.0,56,0.00,,---,0.00,VWS V14.01,2013-02-28 11:35:00,
2013-02-28 04:36:00,10.8,-1.8,30.63,SSW,196,0.0,0.0,56,0.00,,---,0.00,VWS V14.01,2013-02-28 11:36:00,
2013-02-28 04:37:00,10.7,-1.9,30.62,NW,315,2.0,4.0,56,0.00,,---,0.00,VWS V14.01,2013-02-28 11:37:00,
2013-02-28 04:38:00,10.7,-1.9,30.62,SSW,211,6.0,8.0,56,0.00,,---,0.00,VWS V14.01,2013-02-28 11:38:00,
2013-02-28 04:39:00,10.7,-1.9,30.62,South,181,6.0,9.0,56,0.00,,---,0.00,VWS V14.01,2013-02-28 11:39:00,
2013-02-28 04:40:00,10.7,-1.9,30.62,West,278,1.0,9.0,56,0.00,,---,0.00,VWS V14.01,2013-02-28 11:40:00,
2013-02-28 04:41:00,10.7,-1.9,30.62,WNW,301,6.0,8.0,56,0.00,,---,0.00,VWS V14.01,2013-02-28 11:41:00,
2013-02-28 04:42:00,10.8,-1.8,30.62,WNW,302,0.0,6.0,56,0.00,,---,0.00,VWS V14.01,2013-02-28 11:42:00,
2013-02-28 04:43:00,10.8,-1.8,30.62,SW,229,8.0,8.0,56,0.00,,---,0.00,VWS V14.01,2013-02-28 11:43:00,
2013-02-28 04:44:00,10.8,-1.8,30.62,SSW,206,2.0,11.0,56,0.00,,---,0.00,VWS V14.01,2013-02-28 11:44:00,
2013-02-28 04:45:00,10.8,-1.8,30.62,SSW,205,6.0,11.0,56,0.00,,---,0.00,VWS V14.01,2013-02-28 11:45:00,
2013-02-28 04:46:00,11.0,-2.0,30.63,South,181,2.0,9.0,55,0.00,,---,0.00,VWS V14.01,2013-02-28 11:46:00,
2013-02-28 04:47:00,11.0,-2.0,30.62,WSW,250,7.0,7.0,55,0.00,,---,0.00,VWS V14.01,2013-02-28 11:47:00,
2013-02-28 04:48:00,11.2,-1.4,30.62,West,271,10.0,20.0,56,0.00,,---,0.00,VWS V14.01,2013-02-28 11:48:00,
2013-02-28 04:49:00,11.3,-1.3,30.62,South,178,0.0,14.0,56,0.00,,---,0.00,VWS V14.01,2013-02-28 11:49:00,
2013-02-28 04:50:00,11.3,-1.3,30.62,South,188,10.0,14.0,56,0.00,,---,0.00,VWS V14.01,2013-02-28 11:50:00,
2013-02-28 04:51:00,11.4,-1.6,30.62,SW,226,5.0,8.0,55,0.00,,---,0.00,VWS V14.01,2013-02-28 11:51:00,
2013-02-28 04:52:00,11.5,-1.5,30.62,SSW,213,2.0,8.0,55,0.00,,---,0.00,VWS V14.01,2013-02-28 11:52:00,
2013-02-28 04:53:00,11.5,-1.5,30.62,SSW,210,3.0,7.0,55,0.00,,---,0.00,VWS V14.01,2013-02-28 11:53:00,
2013-02-28 04:54:00,11.6,-1.4,30.62,SSE,168,4.0,5.0,55,0.00,,---,0.00,VWS V14.01,2013-02-28 11:54:00,
2013-02-28 04:55:00,11.6,-1.4,30.62,South,184,2.0,4.0,55,0.00,,---,0.00,VWS V14.01,2013-02-28 11:55:00,
2013-02-28 04:56:00,11.6,-1.4,30.62,SSE,162,0.0,5.0,55,0.00,,---,0.00,VWS V14.01,2013-02-28 11:56:00,
2013-02-28 04:57:00,11.6,-1.4,30.62,ESE,113,2.0,5.0,55,0.00,,---,0.00,VWS V14.01,2013-02-28 11:57:00,
2013-02-28 04:58:00,11.5,-1.5,30.62,ESE,113,2.0,2.0,55,0.00,,---,0.00,VWS V14.01,2013-02-28 11:58:00,
2013-02-28 04:59:00,11.5,-1.5,30.62,SW,216,5.0,11.0,55,0.00,,---,0.00,VWS V14.01,2013-02-28 11:59:00,
2013-02-28 05:00:00,11.5,-1.5,30.62,SW,216,8.0,11.0,55,0.00,,---,0.00,VWS V14.01,2013-02-28 12:00:00,
2013-02-28 05:01:00,11.5,-1.5,30.62,SW,217,0.0,2.0,55,0.00,,---,0.00,VWS V14.01,2013-02-28 12:01:00,
2013-02-28 05:02:00,11.5,-1.5,30.62,South,174,2.0,5.0,55,0.00,,---,0.00,VWS V14.01,2013-02-28 12:02:00,
2013-02-28 05:03:00,11.4,-1.6,30.62,South,174,0.0,4.0,55,0.00,,---,0.00,VWS V14.01,2013-02-28 12:03:00,
2013-02-28 05:04:00,11.4,-2.0,30.62,South,171,5.0,5.0,54,0.00,,---,0.00,VWS V14.01,2013-02-28 12:04:00,
2013-02-28 05:05:00,11.5,-1.9,30.62,South,171,2.0,2.0,54,0.00,,---,0.00,VWS V14.01,2013-02-28 12:05:00,
2013-02-28 05:06:00,11.4,-2.0,30.63,SW,215,3.0,5.0,54,0.00,,---,0.00,VWS V14.01,2013-02-28 12:06:00,
2013-02-28 05:07:00,11.4,-2.0,30.62,East,96,7.0,7.0,54,0.00,,---,0.00,VWS V14.01,2013-02-28 12:07:00,
2013-02-28 05:08:00,11.4,-2.0,30.62,SE,126,2.0,8.0,54,0.00,,---,0.00,VWS V14.01,2013-02-28 12:08:00,
2013-02-28 05:09:00,11.6,-1.8,30.62,ESE,115,2.0,4.0,54,0.00,,---,0.00,VWS V14.01,2013-02-28 12:09:00,
2013-02-28 05:10:00,11.6,-1.8,30.62,ESE,121,2.0,2.0,54,0.00,,---,0.00,VWS V14.01,2013-02-28 12:10:00,
2013-02-28 05:11:00,11.9,-1.5,30.62,East,91,6.0,6.0,54,0.00,,---,0.00,VWS V14.01,2013-02-28 12:11:00,
2013-02-28 05:12:00,11.9,-1.5,30.62,NE,55,6.0,11.0,54,0.00,,---,0.00,VWS V14.01,2013-02-28 12:12:00,
2013-02-28 05:13:00,12.0,-1.8,30.61,NNE,28,4.0,8.0,53,0.00,,---,0.00,VWS V14.01,2013-02-28 12:13:00,
2013-02-28 05:14:00,12.0,-1.8,30.61,East,80,6.0,6.0,53,0.00,,---,0.00,VWS V14.01,2013-02-28 12:14:00,
2013-02-28 05:15:00,12.0,-1.8,30.61,East,80,6.0,6.0,53,0.00,,---,0.00,VWS V14.01,2013-02-28 12:15:00,
2013-02-28 05:16:00,12.3,-1.6,30.62,ESE,105,7.0,10.0,53,0.00,,---,0.00,VWS V14.01,2013-02-28 12:16:00,
2013-02-28 05:17:00,12.4,-1.5,30.62,ESE,107,7.0,7.0,53,0.00,,---,0.00,VWS V14.01,2013-02-28 12:17:00,
2013-02-28 05:18:00,12.5,-1.8,30.62,East,92,5.0,9.0,52,0.00,,---,0.00,VWS V14.01,2013-02-28 12:18:00,
2013-02-28 05:19:00,12.6,-1.7,30.61,ENE,75,7.0,8.0,52,0.00,,---,0.00,VWS V14.01,2013-02-28 12:19:00,
2013-02-28 05:20:00,12.6,-1.7,30.61,ENE,75,7.0,8.0,52,0.00,,---,0.00,VWS V14.01,2013-02-28 12:20:00,
2013-02-28 05:21:00,12.7,-1.6,30.61,ESE,106,4.0,7.0,52,0.00,,---,0.00,VWS V14.01,2013-02-28 12:21:00,
2013-02-28 05:22:00,12.7,-1.6,30.61,ESE,106,4.0,5.0,52,0.00,,---,0.00,VWS V14.01,2013-02-28 12:22:00,
2013-02-28 05:23:00,12.7,-1.6,30.61,East,94,1.0,4.0,52,0.00,,---,0.00,VWS V14.01,2013-02-28 12:23:00,
2013-02-28 05:24:00,12.7,-1.6,30.61,East,94,0.0,3.0,52,0.00,,---,0.00,VWS V14.01,2013-02-28 12:24:00,
2013-02-28 05:25:00,12.7,-1.6,30.61,East,94,0.0,3.0,52,0.00,,---,0.00,VWS V14.01,2013-02-28 12:25:00,
2013-02-28 05:26:00,12.5,-1.8,30.62,WNW,282,8.0,10.0,52,0.00,,---,0.00,VWS V14.01,2013-02-28 12:26:00,
2013-02-28 05:27:00,12.3,-2.4,30.62,SW,236,4.0,18.0,51,0.00,,---,0.00,VWS V14.01,2013-02-28 12:27:00,
2013-02-28 05:30:00,12.4,-2.3,30.62,SW,236,2.0,4.0,51,0.00,,---,0.00,VWS V14.01,2013-02-28 12:30:00,
2013-02-28 05:31:00,12.7,-2.0,30.61,WNW,282,6.0,6.0,51,0.00,,---,0.00,VWS V14.01,2013-02-28 12:31:00,
2013-02-28 05:32:00,12.8,-2.3,30.61,West,277,8.0,8.0,50,0.00,,---,0.00,VWS V14.01,2013-02-28 12:32:00,
2013-02-28 05:33:00,12.9,-1.8,30.62,WNW,292,8.0,14.0,51,0.00,,---,0.00,VWS V14.01,2013-02-28 12:33:00,
2013-02-28 05:34:00,13.0,-1.7,30.61,West,279,0.0,9.0,51,0.00,,---,0.00,VWS V14.01,2013-02-28 12:34:00,
2013-02-28 05:35:00,13.0,-1.7,30.61,West,279,0.0,9.0,51,0.00,,---,0.00,VWS V14.01,2013-02-28 12:35:00,
2013-02-28 05:36:00,13.2,-2.0,30.61,North,11,1.0,5.0,50,0.00,,---,0.00,VWS V14.01,2013-02-28 12:36:00,
2013-02-28 05:37:00,13.2,-2.0,30.61,North,11,1.0,2.0,50,0.00,,---,0.00,VWS V14.01,2013-02-28 12:37:00,
2013-02-28 05:38:00,13.2,-2.0,30.61,North,11,0.0,1.0,50,0.00,,---,0.00,VWS V14.01,2013-02-28 12:38:00,
2013-02-28 05:39:00,13.2,-2.0,30.62,North,11,2.0,2.0,50,0.00,,---,0.00,VWS V14.01,2013-02-28 12:39:00,
2013-02-28 05:40:00,13.2,-2.0,30.62,North,11,2.0,2.0,50,0.00,,---,0.00,VWS V14.01,2013-02-28 12:40:00,
2013-02-28 05:41:00,13.1,-2.0,30.62,SW,223,2.0,6.0,50,0.00,,---,0.00,VWS V14.01,2013-02-28 12:41:00,
2013-02-28 05:42:00,13.0,-2.1,30.62,SW,219,4.0,4.0,50,0.00,,---,0.00,VWS V14.01,2013-02-28 12:42:00,
2013-02-28 05:43:00,12.9,-2.2,30.62,ESE,115,0.0,7.0,50,0.00,,---,0.00,VWS V14.01,2013-02-28 12:43:00,
2013-02-28 05:44:00,12.9,-2.2,30.62,ESE,115,0.0,2.0,50,0.00,,---,0.00,VWS V14.01,2013-02-28 12:44:00,
2013-02-28 05:45:00,12.9,-2.2,30.62,ESE,115,0.0,2.0,50,0.00,,---,0.00,VWS V14.01,2013-02-28 12:45:00,
2013-02-28 05:46:00,12.6,-2.1,30.62,ESE,113,2.0,4.0,51,0.00,,---,0.00,VWS V14.01,2013-02-28 12:46:00,
2013-02-28 05:47:00,12.5,-2.2,30.62,ESE,111,1.0,4.0,51,0.00,,---,0.00,VWS V14.01,2013-02-28 12:47:00,
2013-02-28 05:48:00,12.3,-2.4,30.62,ENE,77,3.0,4.0,51,0.00,,---,0.00,VWS V14.01,2013-02-28 12:48:00,
2013-02-28 05:49:00,12.2,-2.5,30.62,South,188,6.0,6.0,51,0.00,,---,0.00,VWS V14.01,2013-02-28 12:49:00,
2013-02-28 05:50:00,12.2,-2.5,30.62,South,188,6.0,6.0,51,0.00,,---,0.00,VWS V14.01,2013-02-28 12:50:00,
2013-02-28 05:51:00,12.0,-2.2,30.62,South,172,1.0,6.0,52,0.00,,---,0.00,VWS V14.01,2013-02-28 12:51:00,
2013-02-28 05:52:00,12.0,-2.2,30.62,South,174,1.0,1.0,52,0.00,,---,0.00,VWS V14.01,2013-02-28 12:52:00,
2013-02-28 05:53:00,12.0,-2.2,30.62,South,174,1.0,5.0,52,0.00,,---,0.00,VWS V14.01,2013-02-28 12:53:00,
2013-02-28 05:54:00,12.0,-2.2,30.62,West,268,5.0,10.0,52,0.00,,---,0.00,VWS V14.01,2013-02-28 12:54:00,
2013-02-28 05:55:00,12.0,-1.8,30.62,SSE,153,7.0,9.0,53,0.00,,---,0.00,VWS V14.01,2013-02-28 12:55:00,
2013-02-28 05:56:00,12.0,-2.2,30.62,West,268,5.0,10.0,52,0.00,,---,0.00,VWS V14.01,2013-02-28 12:56:00,
2013-02-28 05:57:00,11.9,-1.9,30.62,SSW,196,6.0,6.0,53,0.00,,---,0.00,VWS V14.01,2013-02-28 12:57:00,
2013-02-28 05:58:00,11.9,-1.9,30.63,WSW,246,7.0,14.0,53,0.00,,---,0.00,VWS V14.01,2013-02-28 12:58:00,
2013-02-28 05:59:00,11.9,-1.9,30.62,SSW,195,1.0,7.0,53,0.00,,---,0.00,VWS V14.01,2013-02-28 12:59:00,
2013-02-28 06:00:00,11.9,-1.9,30.62,South,189,0.0,5.0,53,0.00,,---,0.00,VWS V14.01,2013-02-28 13:00:00,
2013-02-28 06:01:00,11.9,-1.9,30.62,SSW,195,4.0,4.0,53,0.00,,---,0.00,VWS V14.01,2013-02-28 13:01:00,
2013-02-28 06:02:00,12.0,-1.8,30.62,South,190,0.0,4.0,53,0.00,,---,0.00,VWS V14.01,2013-02-28 13:02:00,
2013-02-28 06:03:00,12.0,-1.8,30.62,SW,219,4.0,8.0,53,0.00,,---,0.00,VWS V14.01,2013-02-28 13:03:00,
2013-02-28 06:04:00,12.0,-1.8,30.62,SSW,209,1.0,4.0,53,0.00,,---,0.00,VWS V14.01,2013-02-28 13:04:00,
2013-02-28 06:05:00,12.0,-1.8,30.62,SSW,207,0.0,4.0,53,0.00,,---,0.00,VWS V14.01,2013-02-28 13:05:00,
2013-02-28 06:06:00,12.0,-1.8,30.62,SSW,207,3.0,4.0,53,0.00,,---,0.00,VWS V14.01,2013-02-28 13:06:00,
2013-02-28 06:07:00,12.0,-1.8,30.62,SSW,207,6.0,7.0,53,0.00,,---,0.00,VWS V14.01,2013-02-28 13:07:00,
2013-02-28 06:08:00,12.0,-1.8,30.62,South,189,11.0,16.0,53,0.00,,---,0.00,VWS V14.01,2013-02-28 13:08:00,
2013-02-28 06:09:00,12.0,-1.8,30.62,SW,228,14.0,14.0,53,0.00,,---,0.00,VWS V14.01,2013-02-28 13:09:00,
2013-02-28 06:10:00,12.1,-1.7,30.62,SSW,213,15.0,24.0,53,0.00,,---,0.00,VWS V14.01,2013-02-28 13:10:00,
2013-02-28 06:11:00,12.0,-1.8,30.62,SW,223,21.0,24.0,53,0.00,,---,0.00,VWS V14.01,2013-02-28 13:11:00,
2013-02-28 06:12:00,12.3,-1.6,30.62,ESE,111,4.0,5.0,53,0.00,,---,0.00,VWS V14.01,2013-02-28 13:12:00,
2013-02-28 06:13:00,12.4,-1.5,30.62,SW,229,8.0,20.0,53,0.00,,---,0.00,VWS V14.01,2013-02-28 13:13:00,
2013-02-28 06:14:00,12.4,-1.5,30.62,NW,321,6.0,10.0,53,0.00,,---,0.00,VWS V14.01,2013-02-28 13:14:00,
2013-02-28 06:15:00,12.5,-1.4,30.62,WSW,243,6.0,20.0,53,0.00,,---,0.00,VWS V14.01,2013-02-28 13:15:00,
2013-02-28 06:16:00,12.5,-1.4,30.62,West,270,20.0,20.0,53,0.00,,---,0.00,VWS V14.01,2013-02-28 13:16:00,
2013-02-28 06:17:00,12.7,-0.8,30.62,SW,224,13.0,22.0,54,0.00,,---,0.00,VWS V14.01,2013-02-28 13:17:00,
2013-02-28 06:18:00,12.8,-1.1,30.61,SW,231,20.0,22.0,53,0.00,,---,0.00,VWS V14.01,2013-02-28 13:18:00,
2013-02-28 06:19:00,12.9,-1.0,30.62,SW,231,9.0,20.0,53,0.00,,---,0.00,VWS V14.01,2013-02-28 13:19:00,
2013-02-28 06:20:00,13.0,-0.9,30.62,SSW,196,7.0,9.0,53,0.00,,---,0.00,VWS V14.01,2013-02-28 13:20:00,
2013-02-28 06:21:00,12.9,-1.0,30.62,SW,221,4.0,9.0,53,0.00,,---,0.00,VWS V14.01,2013-02-28 13:21:00,
2013-02-28 06:22:00,13.1,-1.2,30.62,WSW,244,13.0,13.0,52,0.00,,---,0.00,VWS V14.01,2013-02-28 13:22:00,
2013-02-28 06:23:00,13.1,-1.2,30.63,NW,316,5.0,15.0,52,0.00,,---,0.00,VWS V14.01,2013-02-28 13:23:00,
2013-02-28 06:24:00,13.1,-1.2,30.62,South,183,1.0,8.0,52,0.00,,---,0.00,VWS V14.01,2013-02-28 13:24:00,
2013-02-28 06:25:00,13.1,-1.2,30.62,WSW,250,7.0,7.0,52,0.00,,---,0.00,VWS V14.01,2013-02-28 13:25:00,
2013-02-28 06:26:00,13.1,-1.2,30.62,SE,133,3.0,6.0,52,0.00,,---,0.00,VWS V14.01,2013-02-28 13:26:00,
2013-02-28 06:27:00,13.1,-0.8,30.62,SSW,202,10.0,22.0,53,0.00,,---,0.00,VWS V14.01,2013-02-28 13:27:00,
2013-02-28 06:28:00,13.2,-0.7,30.62,South,173,0.0,14.0,53,0.00,,---,0.00,VWS V14.01,2013-02-28 13:28:00,
2013-02-28 06:29:00,13.1,-0.8,30.62,WNW,287,2.0,2.0,53,0.00,,---,0.00,VWS V14.01,2013-02-28 13:29:00,
2013-02-28 06:30:00,13.1,-0.8,30.61,SW,227,19.0,19.0,53,0.00,,---,0.00,VWS V14.01,2013-02-28 13:30:00,
2013-02-28 06:31:00,13.1,-0.8,30.62,WSW,257,19.0,19.0,53,0.00,,---,0.00,VWS V14.01,2013-02-28 13:31:00,
2013-02-28 06:32:00,13.1,-0.4,30.61,SE,137,4.0,21.0,54,0.00,,---,0.00,VWS V14.01,2013-02-28 13:32:00,
2013-02-28 06:33:00,13.1,-0.4,30.61,SSW,192,1.0,15.0,54,0.00,,---,0.00,VWS V14.01,2013-02-28 13:33:00,
2013-02-28 06:34:00,13.2,-0.3,30.62,SSW,196,4.0,18.0,54,0.00,,---,0.00,VWS V14.01,2013-02-28 13:34:00,
2013-02-28 06:35:00,13.1,-0.4,30.62,SSE,158,11.0,11.0,54,0.00,,---,0.00,VWS V14.01,2013-02-28 13:35:00,
2013-02-28 06:36:00,13.1,-0.4,30.62,SSW,196,9.0,9.0,54,0.00,,---,0.00,VWS V14.01,2013-02-28 13:36:00,
2013-02-28 06:37:00,13.1,-0.4,30.61,SSE,157,5.0,23.0,54,0.00,,---,0.00,VWS V14.01,2013-02-28 13:37:00,
2013-02-28 06:38:00,13.1,-0.4,30.61,SW,219,14.0,30.0,54,0.00,,---,0.00,VWS V14.01,2013-02-28 13:38:00,
2013-02-28 06:39:00,13.1,-0.4,30.61,South,184,8.0,20.0,54,0.00,,---,0.00,VWS V14.01,2013-02-28 13:39:00,
2013-02-28 06:40:00,13.1,-0.4,30.61,SSW,210,9.0,10.0,54,0.00,,---,0.00,VWS V14.01,2013-02-28 13:40:00,
2013-02-28 06:41:00,13.1,-0.4,30.61,South,177,8.0,8.0,54,0.00,,---,0.00,VWS V14.01,2013-02-28 13:41:00,
2013-02-28 06:42:00,13.0,-0.5,30.61,SE,140,4.0,20.0,54,0.00,,---,0.00,VWS V14.01,2013-02-28 13:42:00,
2013-02-28 06:43:00,13.0,-0.1,30.62,SE,136,4.0,7.0,55,0.00,,---,0.00,VWS V14.01,2013-02-28 13:43:00,
2013-02-28 06:44:00,13.0,-0.1,30.62,South,175,6.0,15.0,55,0.00,,---,0.00,VWS V14.01,2013-02-28 13:44:00,
2013-02-28 06:45:00,13.0,-0.5,30.61,NNW,345,7.0,27.0,54,0.00,,---,0.00,VWS V14.01,2013-02-28 13:45:00,
2013-02-28 06:46:00,13.0,-0.5,30.62,WSW,246,8.0,19.0,54,0.00,,---,0.00,VWS V14.01,2013-02-28 13:46:00,
2013-02-28 06:47:00,13.0,-0.1,30.61,WNW,288,13.0,32.0,55,0.00,,---,0.00,VWS V14.01,2013-02-28 13:47:00,
2013-02-28 06:48:00,13.1,0.0,30.61,WNW,295,6.0,37.0,55,0.00,,---,0.00,VWS V14.01,2013-02-28 13:48:00,
2013-02-28 06:49:00,13.1,-0.4,30.61,West,259,11.0,37.0,54,0.00,,---,0.00,VWS V14.01,2013-02-28 13:49:00,
2013-02-28 06:50:00,13.2,0.1,30.61,SSW,200,5.0,20.0,55,0.00,,---,0.00,VWS V14.01,2013-02-28 13:50:00,
2013-02-28 06:51:00,13.2,0.1,30.61,SSW,203,8.0,20.0,55,0.00,,---,0.00,VWS V14.01,2013-02-28 13:51:00,
2013-02-28 06:52:00,13.2,-0.3,30.61,SW,223,1.0,12.0,54,0.00,,---,0.00,VWS V14.01,2013-02-28 13:52:00,
2013-02-28 06:53:00,13.2,-0.3,30.61,SW,214,9.0,22.0,54,0.00,,---,0.00,VWS V14.01,2013-02-28 13:53:00,
2013-02-28 06:54:00,13.3,-0.2,30.61,SW,225,10.0,14.0,54,0.00,,---,0.00,VWS V14.01,2013-02-28 13:54:00,
2013-02-28 06:55:00,13.3,-0.2,30.61,NW,312,12.0,21.0,54,0.00,,---,0.00,VWS V14.01,2013-02-28 13:55:00,
2013-02-28 06:56:00,13.3,-0.2,30.61,SW,234,5.0,21.0,54,0.00,,---,0.00,VWS V14.01,2013-02-28 13:56:00,
2013-02-28 06:57:00,13.4,-0.5,30.61,WNW,296,6.0,12.0,53,0.00,,---,0.00,VWS V14.01,2013-02-28 13:57:00,
2013-02-28 06:58:00,13.4,-0.5,30.60,East,99,5.0,8.0,53,0.00,,---,0.00,VWS V14.01,2013-02-28 13:58:00,
2013-02-28 06:59:00,13.5,-0.4,30.61,South,183,9.0,12.0,53,0.00,,---,0.00,VWS V14.01,2013-02-28 13:59:00,
2013-02-28 07:00:00,13.5,-0.4,30.61,SSE,154,4.0,9.0,53,0.00,,---,0.00,VWS V14.01,2013-02-28 14:00:00,
2013-02-28 07:01:00,13.5,-0.4,30.61,SSW,205,7.0,9.0,53,0.00,,---,0.00,VWS V14.01,2013-02-28 14:01:00,
2013-02-28 07:02:00,13.5,-0.4,30.61,West,271,5.0,20.0,53,0.00,,---,0.00,VWS V14.01,2013-02-28 14:02:00,
2013-02-28 07:03:00,13.6,-0.3,30.61,SSW,208,2.0,13.0,53,0.00,,---,0.00,VWS V14.01,2013-02-28 14:03:00,
2013-02-28 07:04:00,13.6,-0.3,30.61,WNW,288,7.0,10.0,53,0.00,,---,0.00,VWS V14.01,2013-02-28 14:04:00,
2013-02-28 07:05:00,13.7,-0.2,30.60,West,267,2.0,8.0,53,0.00,,---,0.00,VWS V14.01,2013-02-28 14:05:00,
2013-02-28 07:06:00,13.7,-0.2,30.60,West,267,2.0,8.0,53,0.00,,---,0.00,VWS V14.01,2013-02-28 14:06:00,
2013-02-28 07:07:00,13.7,-0.6,30.60,SSW,198,5.0,11.0,52,0.00,,---,0.00,VWS V14.01,2013-02-28 14:07:00,
2013-02-28 07:08:00,13.7,-0.6,30.61,South,185,9.0,15.0,52,0.00,,---,0.00,VWS V14.01,2013-02-28 14:08:00,
2013-02-28 07:09:00,13.8,-0.6,30.61,WNW,282,8.0,13.0,52,0.00,,---,0.00,VWS V14.01,2013-02-28 14:09:00,
2013-02-28 07:10:00,13.8,-0.6,30.60,WNW,294,4.0,16.0,52,0.00,,---,0.00,VWS V14.01,2013-02-28 14:10:00,
2013-02-28 07:11:00,13.8,-0.6,30.60,WNW,294,4.0,16.0,52,0.00,,---,0.00,VWS V14.01,2013-02-28 14:11:00,
2013-02-28 07:12:00,13.9,-0.5,30.61,West,281,5.0,13.0,52,0.00,,---,0.00,VWS V14.01,2013-02-28 14:12:00,
2013-02-28 07:13:00,13.9,-0.5,30.61,West,267,5.0,6.0,52,0.00,,---,0.00,VWS V14.01,2013-02-28 14:13:00,
2013-02-28 07:14:00,13.9,-0.5,30.60,West,281,8.0,22.0,52,0.00,,---,0.00,VWS V14.01,2013-02-28 14:14:00,
2013-02-28 07:15:00,14.0,-0.4,30.61,SSW,204,13.0,13.0,52,0.00,,---,0.00,VWS V14.01,2013-02-28 14:15:00,
2013-02-28 07:16:00,14.0,-0.8,30.61,SSW,200,8.0,25.0,51,0.00,,---,0.00,VWS V14.01,2013-02-28 14:16:00,
2013-02-28 07:17:00,14.0,-0.4,30.60,SW,221,13.0,13.0,52,0.00,,---,0.00,VWS V14.01,2013-02-28 14:17:00,
2013-02-28 07:18:00,14.1,-0.3,30.61,WSW,242,11.0,19.0,52,0.00,,---,0.00,VWS V14.01,2013-02-28 14:18:00,
2013-02-28 07:19:00,14.1,-0.7,30.61,SSW,207,8.0,25.0,51,0.00,,---,0.00,VWS V14.01,2013-02-28 14:19:00,
2013-02-28 07:20:00,14.2,-0.6,30.61,SW,221,1.0,14.0,51,0.00,,---,0.00,VWS V14.01,2013-02-28 14:20:00,
2013-02-28 07:21:00,14.2,-0.6,30.60,South,190,8.0,19.0,51,0.00,,---,0.00,VWS V14.01,2013-02-28 14:21:00,
2013-02-28 07:22:00,14.2,-0.6,30.61,SW,221,5.0,14.0,51,0.00,,---,0.00,VWS V14.01,2013-02-28 14:22:00,
2013-02-28 07:23:00,14.4,-0.4,30.60,West,259,13.0,19.0,51,0.00,,---,0.00,VWS V14.01,2013-02-28 14:23:00,
2013-02-28 07:24:00,14.4,-0.4,30.61,SSW,205,7.0,14.0,51,0.00,,---,0.00,VWS V14.01,2013-02-28 14:24:00,
2013-02-28 07:25:00,14.5,-0.7,30.60,WNW,287,4.0,11.0,50,0.00,,---,0.00,VWS V14.01,2013-02-28 14:25:00,
2013-02-28 07:26:00,14.5,-0.7,30.61,NW,323,7.0,11.0,50,0.00,,---,0.00,VWS V14.01,2013-02-28 14:26:00,
2013-02-28 07:27:00,14.6,-0.6,30.60,SSW,211,7.0,21.0,50,0.00,,---,0.00,VWS V14.01,2013-02-28 14:27:00,
2013-02-28 07:28:00,14.8,-0.5,30.60,SW,231,7.0,28.0,50,0.00,,---,0.00,VWS V14.01,2013-02-28 14:28:00,
2013-02-28 07:29:00,15.0,-0.3,30.61,WSW,252,11.0,16.0,50,0.00,,---,0.00,VWS V14.01,2013-02-28 14:29:00,
2013-02-28 07:30:00,15.1,-0.2,30.60,WSW,256,8.0,14.0,50,0.00,,---,0.00,VWS V14.01,2013-02-28 14:30:00,
2013-02-28 07:31:00,15.3,0.0,30.60,NW,306,3.0,9.0,50,0.00,,---,0.00,VWS V14.01,2013-02-28 14:31:00,
2013-02-28 07:32:00,15.1,-0.2,30.60,WSW,256,8.0,14.0,50,0.00,,---,0.00,VWS V14.01,2013-02-28 14:32:00,
2013-02-28 07:33:00,15.6,0.3,30.60,SW,224,15.0,18.0,50,0.00,,---,0.00,VWS V14.01,2013-02-28 14:33:00,
2013-02-28 07:34:00,15.7,0.4,30.60,WSW,258,11.0,22.0,50,0.00,,---,0.00,VWS V14.01,2013-02-28 14:34:00,
2013-02-28 07:35:00,15.8,0.0,30.60,SW,217,2.0,12.0,49,0.00,,---,0.00,VWS V14.01,2013-02-28 14:35:00,
2013-02-28 07:36:00,15.9,0.1,30.60,WSW,244,8.0,20.0,49,0.00,,---,0.00,VWS V14.01,2013-02-28 14:36:00,
2013-02-28 07:37:00,15.8,0.0,30.60,North,10,5.0,5.0,49,0.00,,---,0.00,VWS V14.01,2013-02-28 14:37:00,
2013-02-28 07:38:00,16.2,0.4,30.60,WNW,287,10.0,14.0,49,0.00,,---,0.00,VWS V14.01,2013-02-28 14:38:00,
2013-02-28 07:39:00,16.2,0.4,30.59,WNW,303,29.0,31.0,49,0.00,,---,0.00,VWS V14.01,2013-02-28 14:39:00,
2013-02-28 07:40:00,16.3,0.5,30.60,SW,229,12.0,29.0,49,0.00,,---,0.00,VWS V14.01,2013-02-28 14:40:00,
2013-02-28 07:41:00,16.3,0.1,30.60,SSE,151,5.0,16.0,48,0.00,,---,0.00,VWS V14.01,2013-02-28 14:41:00,
2013-02-28 07:42:00,16.3,0.1,30.60,NW,309,10.0,16.0,48,0.00,,---,0.00,VWS V14.01,2013-02-28 14:42:00,
2013-02-28 07:43:00,16.6,0.3,30.60,West,271,27.0,28.0,48,0.00,,---,0.00,VWS V14.01,2013-02-28 14:43:00,
2013-02-28 07:44:00,16.6,0.3,30.59,West,259,15.0,31.0,48,0.00,,---,0.00,VWS V14.01,2013-02-28 14:44:00,
2013-02-28 07:45:00,16.7,0.0,30.59,SSE,167,7.0,20.0,47,0.00,,---,0.00,VWS V14.01,2013-02-28 14:45:00,
2013-02-28 07:46:00,16.8,0.1,30.60,ESE,103,4.0,10.0,47,0.00,,---,0.00,VWS V14.01,2013-02-28 14:46:00,
2013-02-28 07:47:00,16.7,0.0,30.60,NNW,340,7.0,10.0,47,0.00,,---,0.00,VWS V14.01,2013-02-28 14:47:00,
2013-02-28 07:48:00,17.0,0.7,30.60,West,272,18.0,18.0,48,0.00,,---,0.00,VWS V14.01,2013-02-28 14:48:00,
2013-02-28 07:49:00,17.1,0.3,30.60,NNW,336,1.0,18.0,47,0.00,,---,0.00,VWS V14.01,2013-02-28 14:49:00,
2013-02-28 07:50:00,17.3,0.5,30.60,NNE,29,6.0,8.0,47,0.00,,---,0.00,VWS V14.01,2013-02-28 14:50:00,
2013-02-28 07:51:00,17.4,0.6,30.60,West,279,15.0,15.0,47,0.00,,---,0.00,VWS V14.01,2013-02-28 14:51:00,
2013-02-28 07:52:00,17.3,0.5,30.60,SSW,195,8.0,8.0,47,0.00,,---,0.00,VWS V14.01,2013-02-28 14:52:00,
2013-02-28 07:53:00,17.6,0.3,30.60,WSW,254,12.0,26.0,46,0.00,,---,0.00,VWS V14.01,2013-02-28 14:53:00,
2013-02-28 07:54:00,17.6,0.3,30.60,WNW,285,10.0,16.0,46,0.00,,---,0.00,VWS V14.01,2013-02-28 14:54:00,
2013-02-28 07:55:00,17.7,0.0,30.60,WNW,292,11.0,27.0,45,0.00,,---,0.00,VWS V14.01,2013-02-28 14:55:00,
2013-02-28 07:56:00,17.7,0.0,30.59,SSW,213,6.0,19.0,45,0.00,,---,0.00,VWS V14.01,2013-02-28 14:56:00,
2013-02-28 07:57:00,17.7,0.0,30.60,SW,228,12.0,19.0,45,0.00,,---,0.00,VWS V14.01,2013-02-28 14:57:00,
2013-02-28 07:59:00,17.8,0.1,30.60,West,267,6.0,13.0,45,0.00,,---,0.00,VWS V14.01,2013-02-28 14:59:00,
2013-02-28 08:00:00,17.9,0.2,30.59,NNW,346,7.0,19.0,45,0.00,,---,0.00,VWS V14.01,2013-02-28 15:00:00,
2013-02-28 08:01:00,18.0,0.2,30.59,NW,325,7.0,18.0,45,0.00,,---,0.00,VWS V14.01,2013-02-28 15:01:00,
2013-02-28 08:02:00,18.0,0.2,30.59,West,273,13.0,14.0,45,0.00,,---,0.00,VWS V14.01,2013-02-28 15:02:00,
2013-02-28 08:03:00,18.1,-0.1,30.59,SW,214,22.0,22.0,44,0.00,,---,0.00,VWS V14.01,2013-02-28 15:03:00,
2013-02-28 08:04:00,18.2,0.0,30.60,West,267,11.0,22.0,44,0.00,,---,0.00,VWS V14.01,2013-02-28 15:04:00,
2013-02-28 08:05:00,18.2,0.0,30.60,SW,215,11.0,24.0,44,0.00,,---,0.00,VWS V14.01,2013-02-28 15:05:00,
2013-02-28 08:06:00,18.3,0.1,30.60,SSW,205,10.0,26.0,44,0.00,,---,0.00,VWS V14.01,2013-02-28 15:06:00,
2013-02-28 08:07:00,18.3,0.1,30.60,WNW,292,9.0,26.0,44,0.00,,---,0.00,VWS V14.01,2013-02-28 15:07:00,
2013-02-28 08:08:00,18.4,0.1,30.60,WSW,242,9.0,27.0,44,0.00,,---,0.00,VWS V14.01,2013-02-28 15:08:00,
2013-02-28 08:09:00,18.4,0.1,30.59,NW,325,9.0,15.0,44,0.00,,---,0.00,VWS V14.01,2013-02-28 15:09:00,
2013-02-28 08:10:00,18.5,0.2,30.60,West,277,5.0,24.0,44,0.00,,---,0.00,VWS V14.01,2013-02-28 15:10:00,
2013-02-28 08:11:00,18.5,0.2,30.60,WSW,239,14.0,30.0,44,0.00,,---,0.00,VWS V14.01,2013-02-28 15:11:00,
2013-02-28 08:12:00,18.5,0.2,30.60,SW,227,14.0,30.0,44,0.00,,---,0.00,VWS V14.01,2013-02-28 15:12:00,
2013-02-28 08:13:00,18.5,0.2,30.60,WSW,243,8.0,25.0,44,0.00,,---,0.00,VWS V14.01,2013-02-28 15:13:00,
2013-02-28 08:14:00,18.5,-0.2,30.60,South,177,4.0,24.0,43,0.00,,---,0.00,VWS V14.01,2013-02-28 15:14:00,
2013-02-28 08:15:00,18.6,0.3,30.60,South,183,13.0,13.0,44,0.00,,---,0.00,VWS V14.01,2013-02-28 15:15:00,
2013-02-28 08:16:00,18.7,0.4,30.60,West,269,24.0,24.0,44,0.00,,---,0.00,VWS V14.01,2013-02-28 15:16:00,
2013-02-28 08:17:00,18.6,0.3,30.60,West,280,6.0,15.0,44,0.00,,---,0.00,VWS V14.01,2013-02-28 15:17:00,
2013-02-28 08:18:00,18.7,-0.1,30.60,West,281,11.0,22.0,43,0.00,,---,0.00,VWS V14.01,2013-02-28 15:18:00,
2013-02-28 08:19:00,18.7,-0.1,30.60,WNW,290,16.0,21.0,43,0.00,,---,0.00,VWS V14.01,2013-02-28 15:19:00,
2013-02-28 08:20:00,18.8,0.5,30.60,NNW,332,12.0,16.0,44,0.00,,---,0.00,VWS V14.01,2013-02-28 15:20:00,
2013-02-28 08:21:00,18.8,0.5,30.60,WNW,285,13.0,13.0,44,0.00,,---,0.00,VWS V14.01,2013-02-28 15:21:00,
2013-02-28 08:22:00,18.8,0.5,30.60,SSW,194,9.0,13.0,44,0.00,,---,0.00,VWS V14.01,2013-02-28 15:22:00,
2013-02-28 08:23:00,19.0,0.2,30.60,WSW,258,22.0,22.0,43,0.00,,---,0.00,VWS V14.01,2013-02-28 15:23:00,
2013-02-28 08:24:00,19.0,0.2,30.60,WNW,294,12.0,22.0,43,0.00,,---,0.00,VWS V14.01,2013-02-28 15:24:00,
2013-02-28 08:25:00,19.1,0.3,30.60,East,93,10.0,19.0,43,0.00,,---,0.00,VWS V14.01,2013-02-28 15:25:00,
2013-02-28 08:26:00,19.2,0.4,30.60,NW,323,20.0,20.0,43,0.00,,---,0.00,VWS V14.01,2013-02-28 15:26:00,
2013-02-28 08:27:00,19.2,0.4,30.60,WNW,298,16.0,20.0,43,0.00,,---,0.00,VWS V14.01,2013-02-28 15:27:00,
2013-02-28 08:28:00,19.2,0.4,30.60,SW,233,15.0,34.0,43,0.00,,---,0.00,VWS V14.01,2013-02-28 15:28:00,
2013-02-28 08:29:00,19.1,0.3,30.60,WSW,251,13.0,16.0,43,0.00,,---,0.00,VWS V14.01,2013-02-28 15:29:00,
2013-02-28 08:30:00,19.1,0.3,30.60,SW,220,12.0,19.0,43,0.00,,---,0.00,VWS V14.01,2013-02-28 15:30:00,
2013-02-28 08:31:00,19.1,-0.2,30.60,WSW,255,30.0,30.0,42,0.00,,---,0.00,VWS V14.01,2013-02-28 15:31:00,
2013-02-28 08:32:00,19.1,-0.2,30.60,WSW,255,30.0,30.0,42,0.00,,---,0.00,VWS V14.01,2013-02-28 15:32:00,
2013-02-28 08:33:00,19.2,0.4,30.60,WSW,245,12.0,23.0,43,0.00,,---,0.00,VWS V14.01,2013-02-28 15:33:00,
2013-02-28 08:34:00,19.2,0.4,30.60,West,262,11.0,16.0,43,0.00,,---,0.00,VWS V14.01,2013-02-28 15:34:00,
2013-02-28 08:35:00,19.3,0.0,30.60,WSW,247,18.0,25.0,42,0.00,,---,0.00,VWS V14.01,2013-02-28 15:35:00,
2013-02-28 08:36:00,19.4,0.1,30.60,West,264,8.0,20.0,42,0.00,,---,0.00,VWS V14.01,2013-02-28 15:36:00,
2013-02-28 08:37:00,19.4,0.1,30.59,NNW,341,11.0,19.0,42,0.00,,---,0.00,VWS V14.01,2013-02-28 15:37:00,
2013-02-28 08:38:00,19.4,0.1,30.60,West,264,8.0,20.0,42,0.00,,---,0.00,VWS V14.01,2013-02-28 15:38:00,
2013-02-28 08:39:00,19.7,0.3,30.60,West,275,18.0,19.0,42,0.00,,---,0.00,VWS V14.01,2013-02-28 15:39:00,
2013-02-28 08:40:00,19.7,0.3,30.60,WNW,284,7.0,18.0,42,0.00,,---,0.00,VWS V14.01,2013-02-28 15:40:00,
2013-02-28 08:41:00,19.8,0.9,30.60,WNW,285,12.0,27.0,43,0.00,,---,0.00,VWS V14.01,2013-02-28 15:41:00,
2013-02-28 08:42:00,19.9,0.5,30.60,NW,317,14.0,26.0,42,0.00,,---,0.00,VWS V14.01,2013-02-28 15:42:00,
2013-02-28 08:43:00,19.8,0.9,30.60,West,281,23.0,27.0,43,0.00,,---,0.00,VWS V14.01,2013-02-28 15:43:00,
2013-02-28 08:44:00,19.8,0.4,30.60,NW,309,8.0,20.0,42,0.00,,---,0.00,VWS V14.01,2013-02-28 15:44:00,
2013-02-28 08:45:00,19.8,0.4,30.60,WSW,239,18.0,28.0,42,0.00,,---,0.00,VWS V14.01,2013-02-28 15:45:00,
2013-02-28 08:46:00,19.8,0.4,30.60,NNW,327,16.0,21.0,42,0.00,,---,0.00,VWS V14.01,2013-02-28 15:46:00,
2013-02-28 08:47:00,19.8,0.4,30.61,West,268,30.0,30.0,42,0.00,,---,0.00,VWS V14.01,2013-02-28 15:47:00,
2013-02-28 08:48:00,19.8,0.4,30.60,NNW,327,16.0,21.0,42,0.00,,---,0.00,VWS V14.01,2013-02-28 15:48:00,
2013-02-28 08:49:00,19.8,0.9,30.60,NW,317,16.0,24.0,43,0.00,,---,0.00,VWS V14.01,2013-02-28 15:49:00,
2013-02-28 08:50:00,19.8,0.9,30.60,West,265,9.0,23.0,43,0.00,,---,0.00,VWS V14.01,2013-02-28 15:50:00,
2013-02-28 08:51:00,19.8,0.9,30.60,WSW,250,20.0,20.0,43,0.00,,---,0.00,VWS V14.01,2013-02-28 15:51:00,
2013-02-28 08:52:00,19.8,0.9,30.60,NNE,23,7.0,20.0,43,0.00,,---,0.00,VWS V14.01,2013-02-28 15:52:00,
2013-02-28 08:53:00,19.8,0.9,30.60,WSW,250,20.0,20.0,43,0.00,,---,0.00,VWS V14.01,2013-02-28 15:53:00,
2013-02-28 08:54:00,19.8,0.9,30.60,West,279,13.0,41.0,43,0.00,,---,0.00,VWS V14.01,2013-02-28 15:54:00,
2013-02-28 08:55:00,19.7,0.8,30.60,WSW,258,14.0,24.0,43,0.00,,---,0.00,VWS V14.01,2013-02-28 15:55:00,
2013-02-28 08:56:00,19.7,0.8,30.60,WSW,255,16.0,24.0,43,0.00,,---,0.00,VWS V14.01,2013-02-28 15:56:00,
2013-02-28 08:57:00,19.7,1.3,30.59,West,277,12.0,25.0,44,0.00,,---,0.00,VWS V14.01,2013-02-28 15:57:00,
2013-02-28 08:58:00,19.7,0.8,30.60,WSW,245,21.0,24.0,43,0.00,,---,0.00,VWS V14.01,2013-02-28 15:58:00,
2013-02-28 08:59:00,19.6,1.2,30.60,WSW,246,13.0,26.0,44,0.00,,---,0.00,VWS V14.01,2013-02-28 15:59:00,
2013-02-28 09:00:00,19.6,1.2,30.60,West,268,8.0,32.0,44,0.00,,---,0.00,VWS V14.01,2013-02-28 16:00:00,
2013-02-28 09:01:00,19.5,1.1,30.60,North,11,7.0,16.0,44,0.00,,---,0.00,VWS V14.01,2013-02-28 16:01:00,
2013-02-28 09:02:00,19.6,1.2,30.60,WSW,245,15.0,20.0,44,0.00,,---,0.00,VWS V14.01,2013-02-28 16:02:00,
2013-02-28 09:03:00,19.5,1.1,30.60,North,11,7.0,16.0,44,0.00,,---,0.00,VWS V14.01,2013-02-28 16:03:00,
2013-02-28 09:04:00,19.8,1.4,30.60,NW,322,25.0,25.0,44,0.00,,---,0.00,VWS V14.01,2013-02-28 16:04:00,
2013-02-28 09:05:00,19.8,1.4,30.60,West,271,26.0,26.0,44,0.00,,---,0.00,VWS V14.01,2013-02-28 16:05:00,
2013-02-28 09:06:00,19.7,1.3,30.60,West,272,21.0,33.0,44,0.00,,---,0.00,VWS V14.01,2013-02-28 16:06:00,
2013-02-28 09:07:00,19.7,1.3,30.61,SW,225,13.0,27.0,44,0.00,,---,0.00,VWS V14.01,2013-02-28 16:07:00,
2013-02-28 09:08:00,19.7,1.3,30.60,West,269,12.0,21.0,44,0.00,,---,0.00,VWS V14.01,2013-02-28 16:08:00,
2013-02-28 09:09:00,19.6,1.7,30.60,WNW,286,8.0,28.0,45,0.00,,---,0.00,VWS V14.01,2013-02-28 16:09:00,
2013-02-28 09:10:00,19.6,1.7,30.61,WSW,257,24.0,39.0,45,0.00,,---,0.00,VWS V14.01,2013-02-28 16:10:00,
2013-02-28 09:11:00,19.5,1.6,30.61,NNW,336,14.0,33.0,45,0.00,,---,0.00,VWS V14.01,2013-02-28 16:11:00,
2013-02-28 09:12:00,19.5,1.6,30.61,West,270,15.0,30.0,45,0.00,,---,0.00,VWS V14.01,2013-02-28 16:12:00,
2013-02-28 09:13:00,19.5,1.6,30.61,WSW,237,10.0,18.0,45,0.00,,---,0.00,VWS V14.01,2013-02-28 16:13:00,
2013-02-28 09:14:00,19.5,2.1,30.61,SSW,208,12.0,22.0,46,0.00,,---,0.00,VWS V14.01,2013-02-28 16:14:00,
2013-02-28 09:15:00,19.5,2.1,30.61,NW,309,8.0,14.0,46,0.00,,---,0.00,VWS V14.01,2013-02-28 16:15:00,
2013-02-28 09:16:00,19.7,2.3,30.60,NW,310,21.0,21.0,46,0.00,,---,0.00,VWS V14.01,2013-02-28 16:16:00,
2013-02-28 09:17:00,19.8,1.9,30.60,WNW,285,31.0,38.0,45,0.00,,---,0.00,VWS V14.01,2013-02-28 16:17:00,
2013-02-28 09:18:00,19.8,2.4,30.60,West,265,26.0,27.0,46,0.00,,---,0.00,VWS V14.01,2013-02-28 16:18:00,
2013-02-28 09:19:00,19.8,2.4,30.61,North,360,4.0,25.0,46,0.00,,---,0.00,VWS V14.01,2013-02-28 16:19:00,
2013-02-28 09:20:00,19.9,2.5,30.60,SSW,196,5.0,29.0,46,0.00,,---,0.00,VWS V14.01,2013-02-28 16:20:00,
2013-02-28 09:21:00,19.9,2.0,30.60,West,277,8.0,34.0,45,0.00,,---,0.00,VWS V14.01,2013-02-28 16:21:00,
2013-02-28 09:22:00,20.0,2.6,30.60,WNW,287,18.0,27.0,46,0.00,,---,0.00,VWS V14.01,2013-02-28 16:22:00,
2013-02-28 09:23:00,20.0,2.1,30.60,West,276,15.0,19.0,45,0.00,,---,0.00,VWS V14.01,2013-02-28 16:23:00,
2013-02-28 09:24:00,19.9,2.0,30.61,WNW,297,6.0,28.0,45,0.00,,---,0.00,VWS V14.01,2013-02-28 16:24:00,
2013-02-28 09:25:00,19.9,2.0,30.61,WNW,296,18.0,29.0,45,0.00,,---,0.00,VWS V14.01,2013-02-28 16:25:00,
2013-02-28 09:26:00,19.8,2.4,30.61,WSW,251,16.0,19.0,46,0.00,,---,0.00,VWS V14.01,2013-02-28 16:26:00,
2013-02-28 09:27:00,19.8,1.9,30.60,WNW,296,20.0,29.0,45,0.00,,---,0.00,VWS V14.01,2013-02-28 16:27:00,
2013-02-28 09:28:00,19.8,2.4,30.61,WNW,286,29.0,29.0,46,0.00,,---,0.00,VWS V14.01,2013-02-28 16:28:00,
2013-02-28 09:29:00,19.4,2.0,30.61,WNW,288,8.0,26.0,46,0.00,,---,0.00,VWS V14.01,2013-02-28 16:29:00,
2013-02-28 09:30:00,19.3,1.9,30.62,West,280,7.0,14.0,46,0.00,,---,0.00,VWS V14.01,2013-02-28 16:30:00,
2013-02-28 09:31:00,19.3,1.9,30.61,WNW,298,16.0,31.0,46,0.00,,---,0.00,VWS V14.01,2013-02-28 16:31:00,
2013-02-28 09:32:00,19.2,1.8,30.61,WNW,284,19.0,33.0,46,0.00,,---,0.00,VWS V14.01,2013-02-28 16:32:00,
2013-02-28 09:33:00,19.2,1.8,30.61,West,260,29.0,29.0,46,0.00,,---,0.00,VWS V14.01,2013-02-28 16:33:00,
2013-02-28 09:34:00,19.2,2.3,30.61,South,170,3.0,16.0,47,0.00,,---,0.00,VWS V14.01,2013-02-28 16:34:00,
2013-02-28 09:35:00,19.3,2.4,30.61,NW,318,18.0,23.0,47,0.00,,---,0.00,VWS V14.01,2013-02-28 16:35:00,
2013-02-28 09:36:00,19.3,2.4,30.60,WSW,254,21.0,31.0,47,0.00,,---,0.00,VWS V14.01,2013-02-28 16:36:00,
2013-02-28 09:37:00,19.2,2.3,30.61,NW,325,8.0,21.0,47,0.00,,---,0.00,VWS V14.01,2013-02-28 16:37:00,
2013-02-28 09:38:00,19.2,2.3,30.60,SW,236,12.0,21.0,47,0.00,,---,0.00,VWS V14.01,2013-02-28 16:38:00,
2013-02-28 09:39:00,19.0,1.6,30.61,WNW,302,9.0,22.0,46,0.00,,---,0.00,VWS V14.01,2013-02-28 16:39:00,
2013-02-28 09:40:00,18.9,1.5,30.61,West,271,16.0,16.0,46,0.00,,---,0.00,VWS V14.01,2013-02-28 16:40:00,
2013-02-28 09:41:00,18.8,1.5,30.61,West,268,13.0,30.0,46,0.00,,---,0.00,VWS V14.01,2013-02-28 16:41:00,
2013-02-28 09:42:00,18.6,1.7,30.61,WSW,238,20.0,23.0,47,0.00,,---,0.00,VWS V14.01,2013-02-28 16:42:00,
2013-02-28 09:43:00,18.7,1.8,30.62,West,267,13.0,23.0,47,0.00,,---,0.00,VWS V14.01,2013-02-28 16:43:00,
2013-02-28 09:44:00,18.3,1.5,30.61,WNW,282,5.0,15.0,47,0.00,,---,0.00,VWS V14.01,2013-02-28 16:44:00,
2013-02-28 09:45:00,18.2,1.8,30.62,South,173,6.0,19.0,48,0.00,,---,0.00,VWS V14.01,2013-02-28 16:45:00,
2013-02-28 09:46:00,18.1,1.7,30.62,West,281,20.0,30.0,48,0.00,,---,0.00,VWS V14.01,2013-02-28 16:46:00,
2013-02-28 09:47:00,18.0,1.6,30.62,WNW,288,8.0,29.0,48,0.00,,---,0.00,VWS V14.01,2013-02-28 16:47:00,
2013-02-28 09:48:00,18.0,1.6,30.62,West,275,6.0,29.0,48,0.00,,---,0.00,VWS V14.01,2013-02-28 16:48:00,
2013-02-28 09:49:00,17.8,1.9,30.62,NW,304,36.0,36.0,49,0.00,,---,0.00,VWS V14.01,2013-02-28 16:49:00,
2013-02-28 09:50:00,17.7,1.8,30.62,NNW,339,6.0,36.0,49,0.00,,---,0.00,VWS V14.01,2013-02-28 16:50:00,
2013-02-28 09:51:00,17.6,1.7,30.62,WNW,298,24.0,24.0,49,0.00,,---,0.00,VWS V14.01,2013-02-28 16:51:00,
2013-02-28 09:52:00,17.7,1.8,30.62,WNW,282,22.0,25.0,49,0.00,,---,0.00,VWS V14.01,2013-02-28 16:52:00,
2013-02-28 09:53:00,17.7,1.8,30.61,NW,305,15.0,25.0,49,0.00,,---,0.00,VWS V14.01,2013-02-28 16:53:00,
2013-02-28 09:54:00,17.7,1.8,30.62,WSW,248,12.0,45.0,49,0.00,,---,0.00,VWS V14.01,2013-02-28 16:54:00,
2013-02-28 09:55:00,17.8,1.9,30.61,SW,232,20.0,42.0,49,0.00,,---,0.00,VWS V14.01,2013-02-28 16:55:00,
2013-02-28 09:56:00,17.9,2.0,30.61,NW,325,11.0,20.0,49,0.00,,---,0.00,VWS V14.01,2013-02-28 16:56:00,
2013-02-28 09:57:00,18.0,2.1,30.61,West,277,12.0,27.0,49,0.00,,---,0.00,VWS V14.01,2013-02-28 16:57:00,
2013-02-28 09:58:00,18.2,2.3,30.61,West,263,22.0,33.0,49,0.00,,---,0.00,VWS V14.01,2013-02-28 16:58:00,
2013-02-28 09:59:00,18.0,2.1,30.61,West,277,12.0,27.0,49,0.00,,---,0.00,VWS V14.01,2013-02-28 16:59:00,
2013-02-28 10:00:00,18.4,2.4,30.62,WNW,287,11.0,18.0,49,0.00,,---,0.00,VWS V14.01,2013-02-28 17:00:00,
2013-02-28 10:01:00,18.6,2.6,30.62,WNW,298,22.0,23.0,49,0.00,,---,0.00,VWS V14.01,2013-02-28 17:01:00,
2013-02-28 10:02:00,18.8,2.4,30.62,West,277,5.0,22.0,48,0.00,,---,0.00,VWS V14.01,2013-02-28 17:02:00,
2013-02-28 10:03:00,19.0,3.0,30.61,NW,317,10.0,21.0,49,0.00,,---,0.00,VWS V14.01,2013-02-28 17:03:00,
2013-02-28 10:04:00,18.8,2.4,30.62,West,277,5.0,22.0,48,0.00,,---,0.00,VWS V14.01,2013-02-28 17:04:00,
2013-02-28 10:05:00,19.5,3.0,30.62,West,281,19.0,21.0,48,0.00,,---,0.00,VWS V14.01,2013-02-28 17:05:00,
2013-02-28 10:06:00,19.7,2.8,30.61,WSW,242,7.0,19.0,47,0.00,,---,0.00,VWS V14.01,2013-02-28 17:06:00,
2013-02-28 10:07:00,19.9,2.9,30.61,WNW,285,16.0,16.0,47,0.00,,---,0.00,VWS V14.01,2013-02-28 17:07:00,
2013-02-28 10:08:00,20.0,2.6,30.61,WSW,255,16.0,24.0,46,0.00,,---,0.00,VWS V14.01,2013-02-28 17:08:00,
2013-02-28 10:09:00,19.9,2.9,30.61,WNW,285,16.0,16.0,47,0.00,,---,0.00,VWS V14.01,2013-02-28 17:09:00,
2013-02-28 10:10:00,20.2,2.7,30.61,SW,217,6.0,24.0,46,0.00,,---,0.00,VWS V14.01,2013-02-28 17:10:00,
2013-02-28 10:11:00,20.2,3.2,30.60,WSW,254,22.0,32.0,47,0.00,,---,0.00,VWS V14.01,2013-02-28 17:11:00,
2013-02-28 10:12:00,20.2,2.7,30.61,WSW,242,12.0,34.0,46,0.00,,---,0.00,VWS V14.01,2013-02-28 17:12:00,
2013-02-28 10:13:00,20.2,2.7,30.61,South,175,9.0,28.0,46,0.00,,---,0.00,VWS V14.01,2013-02-28 17:13:00,
2013-02-28 10:14:00,20.2,2.7,30.61,WSW,242,12.0,34.0,46,0.00,,---,0.00,VWS V14.01,2013-02-28 17:14:00,
2013-02-28 10:15:00,20.3,2.8,30.61,WNW,292,8.0,34.0,46,0.00,,---,0.00,VWS V14.01,2013-02-28 17:15:00,
2013-02-28 10:16:00,20.4,2.9,30.62,SW,224,8.0,23.0,46,0.00,,---,0.00,VWS V14.01,2013-02-28 17:16:00,
2013-02-28 10:17:00,20.5,3.0,30.62,SSW,193,24.0,24.0,46,0.00,,---,0.00,VWS V14.01,2013-02-28 17:17:00,
2013-02-28 10:18:00,20.6,3.1,30.62,NW,304,9.0,24.0,46,0.00,,---,0.00,VWS V14.01,2013-02-28 17:18:00,
2013-02-28 10:19:00,20.5,3.0,30.62,SSW,193,24.0,24.0,46,0.00,,---,0.00,VWS V14.01,2013-02-28 17:19:00,
2013-02-28 10:21:00,21.1,3.6,30.61,West,271,20.0,25.0,46,0.00,,---,0.00,VWS V14.01,2013-02-28 17:21:00,
2013-02-28 10:22:00,21.2,3.2,30.61,SSW,213,13.0,25.0,45,0.00,,---,0.00,VWS V14.01,2013-02-28 17:22:00,
2013-02-28 10:23:00,21.3,3.3,30.61,NW,315,10.0,25.0,45,0.00,,---,0.00,VWS V14.01,2013-02-28 17:23:00,
2013-02-28 10:24:00,21.2,3.2,30.61,SSW,213,13.0,25.0,45,0.00,,---,0.00,VWS V14.01,2013-02-28 17:24:00,
2013-02-28 10:25:00,21.4,3.4,30.61,West,281,18.0,22.0,45,0.00,,---,0.00,VWS V14.01,2013-02-28 17:25:00,
2013-02-28 10:26:00,21.5,3.0,30.62,West,265,21.0,21.0,44,0.00,,---,0.00,VWS V14.01,2013-02-28 17:26:00,
2013-02-28 10:27:00,21.6,3.6,30.61,WSW,239,18.0,28.0,45,0.00,,---,0.00,VWS V14.01,2013-02-28 17:27:00,
2013-02-28 10:28:00,21.7,3.2,30.62,WSW,247,14.0,25.0,44,0.00,,---,0.00,VWS V14.01,2013-02-28 17:28:00,
2013-02-28 10:29:00,21.6,3.5,30.61,WSW,239,18.0,28.0,45,0.00,,---,0.00,VWS V14.01,2013-02-28 17:29:00,
2013-02-28 10:30:00,21.6,3.1,30.61,WSW,249,9.0,26.0,44,0.00,,---,0.00,VWS V14.01,2013-02-28 17:30:00,
2013-02-28 10:31:00,21.6,3.6,30.62,SW,217,14.0,21.0,45,0.00,,---,0.00,VWS V14.01,2013-02-28 17:31:00,
2013-02-28 10:32:00,21.8,3.7,30.62,West,280,27.0,27.0,45,0.00,,---,0.00,VWS V14.01,2013-02-28 17:32:00,
2013-02-28 10:33:00,21.8,3.2,30.61,NW,311,26.0,31.0,44,0.00,,---,0.00,VWS V14.01,2013-02-28 17:33:00,
2013-02-28 10:34:00,21.8,3.7,30.62,West,280,27.0,27.0,45,0.00,,---,0.00,VWS V14.01,2013-02-28 17:34:00,
2013-02-28 10:35:00,21.6,3.1,30.62,WSW,240,27.0,33.0,44,0.00,,---,0.00,VWS V14.01,2013-02-28 17:35:00,
2013-02-28 10:36:00,21.5,3.0,30.61,WSW,247,10.0,28.0,44,0.00,,---,0.00,VWS V14.01,2013-02-28 17:36:00,
2013-02-28 10:37:00,21.2,3.2,30.62,SW,221,25.0,29.0,45,0.00,,---,0.00,VWS V14.01,2013-02-28 17:37:00,
2013-02-28 10:38:00,20.9,2.4,30.62,NW,312,10.0,25.0,44,0.00,,---,0.00,VWS V14.01,2013-02-28 17:38:00,
2013-02-28 10:39:00,21.2,3.2,30.61,West,271,29.0,29.0,45,0.00,,---,0.00,VWS V14.01,2013-02-28 17:39:00,
2013-02-28 10:40:00,20.6,2.6,30.63,WNW,288,16.0,25.0,45,0.00,,---,0.00,VWS V14.01,2013-02-28 17:40:00,
2013-02-28 10:41:00,20.4,2.5,30.62,WSW,239,21.0,21.0,45,0.00,,---,0.00,VWS V14.01,2013-02-28 17:41:00,
2013-02-28 10:42:00,20.3,2.4,30.63,SW,235,9.0,21.0,45,0.00,,---,0.00,VWS V14.01,2013-02-28 17:42:00,
2013-02-28 10:43:00,20.3,2.4,30.62,West,259,15.0,27.0,45,0.00,,---,0.00,VWS V14.01,2013-02-28 17:43:00,
2013-02-28 10:44:00,20.3,2.4,30.63,SW,235,9.0,21.0,45,0.00,,---,0.00,VWS V14.01,2013-02-28 17:44:00,
2013-02-28 10:45:00,20.3,2.8,30.62,WNW,287,21.0,24.0,46,0.00,,---,0.00,VWS V14.01,2013-02-28 17:45:00,
2013-02-28 10:46:00,20.4,2.9,30.62,WNW,285,10.0,24.0,46,0.00,,---,0.00,VWS V14.01,2013-02-28 17:46:00,
2013-02-28 10:47:00,20.4,2.9,30.62,WSW,249,15.0,34.0,46,0.00,,---,0.00,VWS V14.01,2013-02-28 17:47:00,
2013-02-28 10:48:00,20.6,3.6,30.62,NW,325,26.0,32.0,47,0.00,,---,0.00,VWS V14.01,2013-02-28 17:48:00,
2013-02-28 10:49:00,20.4,2.9,30.62,WSW,249,15.0,34.0,46,0.00,,---,0.00,VWS V14.01,2013-02-28 17:49:00,
2013-02-28 10:50:00,20.7,3.2,30.62,WNW,286,7.0,32.0,46,0.00,,---,0.00,VWS V14.01,2013-02-28 17:50:00,
2013-02-28 10:51:00,20.7,3.7,30.62,West,265,11.0,22.0,47,0.00,,---,0.00,VWS V14.01,2013-02-28 17:51:00,
2013-02-28 10:52:00,20.7,3.7,30.62,West,281,9.0,23.0,47,0.00,,---,0.00,VWS V14.01,2013-02-28 17:52:00,
2013-02-28 10:53:00,20.8,3.8,30.61,South,170,8.0,24.0,47,0.00,,---,0.00,VWS V14.01,2013-02-28 17:53:00,
2013-02-28 10:54:00,20.7,3.7,30.62,West,281,9.0,23.0,47,0.00,,---,0.00,VWS V14.01,2013-02-28 17:54:00,
2013-02-28 10:55:00,20.8,3.3,30.62,West,266,11.0,29.0,46,0.00,,---,0.00,VWS V14.01,2013-02-28 17:55:00,
2013-02-28 10:56:00,20.8,3.3,30.61,West,266,8.0,28.0,46,0.00,,---,0.00,VWS V14.01,2013-02-28 17:56:00,
2013-02-28 10:57:00,20.8,3.3,30.62,WSW,240,15.0,27.0,46,0.00,,---,0.00,VWS V14.01,2013-02-28 17:57:00,
2013-02-28 10:58:00,20.7,3.7,30.61,West,274,15.0,27.0,47,0.00,,---,0.00,VWS V14.01,2013-02-28 17:58:00,
2013-02-28 10:59:00,20.8,3.3,30.62,WSW,240,15.0,27.0,46,0.00,,---,0.00,VWS V14.01,2013-02-28 17:59:00,
2013-02-28 11:00:00,20.7,3.2,30.62,West,269,20.0,24.0,46,0.00,,---,0.00,VWS V14.01,2013-02-28 18:00:00,
2013-02-28 11:01:00,20.6,3.1,30.61,SW,223,23.0,31.0,46,0.00,,---,0.00,VWS V14.01,2013-02-28 18:01:00,
2013-02-28 11:02:00,20.6,3.1,30.61,SW,235,7.0,28.0,46,0.00,,---,0.00,VWS V14.01,2013-02-28 18:02:00,
2013-02-28 11:03:00,20.6,3.6,30.61,WSW,256,22.0,27.0,47,0.00,,---,0.00,VWS V14.01,2013-02-28 18:03:00,
2013-02-28 11:04:00,20.6,3.1,30.61,SW,235,7.0,28.0,46,0.00,,---,0.00,VWS V14.01,2013-02-28 18:04:00,
2013-02-28 11:05:00,20.7,3.2,30.61,NW,304,18.0,31.0,46,0.00,,---,0.00,VWS V14.01,2013-02-28 18:05:00,
2013-02-28 11:06:00,20.6,3.1,30.61,SW,230,12.0,39.0,46,0.00,,---,0.00,VWS V14.01,2013-02-28 18:06:00,
2013-02-28 11:07:00,20.5,3.5,30.61,WSW,246,22.0,30.0,47,0.00,,---,0.00,VWS V14.01,2013-02-28 18:07:00,
2013-02-28 11:08:00,20.4,2.9,30.61,West,276,25.0,28.0,46,0.00,,---,0.00,VWS V14.01,2013-02-28 18:08:00,
2013-02-28 11:09:00,20.5,3.5,30.61,WSW,246,22.0,30.0,47,0.00,,---,0.00,VWS V14.01,2013-02-28 18:09:00,
2013-02-28 11:10:00,19.9,2.5,30.61,WNW,284,15.0,25.0,46,0.00,,---,0.00,VWS V14.01,2013-02-28 18:10:00,
2013-02-28 11:11:00,19.8,2.4,30.60,WSW,247,18.0,35.0,46,0.00,,---,0.00,VWS V14.01,2013-02-28 18:11:00,
2013-02-28 11:12:00,19.7,2.8,30.61,West,264,13.0,22.0,47,0.00,,---,0.00,VWS V14.01,2013-02-28 18:12:00,
2013-02-28 11:13:00,19.7,2.8,30.61,West,265,11.0,32.0,47,0.00,,---,0.00,VWS V14.01,2013-02-28 18:13:00,
2013-02-28 11:14:00,19.7,2.8,30.61,West,264,13.0,22.0,47,0.00,,---,0.00,VWS V14.01,2013-02-28 18:14:00,
2013-02-28 11:15:00,19.6,2.7,30.61,WNW,292,9.0,22.0,47,0.00,,---,0.00,VWS V14.01,2013-02-28 18:15:00,
2013-02-28 11:16:00,19.5,2.6,30.61,NW,311,5.0,24.0,47,0.00,,---,0.00,VWS V14.01,2013-02-28 18:16:00,
2013-02-28 11:17:00,19.4,2.5,30.61,WNW,284,22.0,26.0,47,0.00,,---,0.00,VWS V14.01,2013-02-28 18:17:00,
2013-02-28 11:18:00,19.2,2.3,30.61,West,261,21.0,28.0,47,0.00,,---,0.00,VWS V14.01,2013-02-28 18:18:00,
2013-02-28 11:19:00,19.4,2.5,30.61,WNW,284,22.0,26.0,47,0.00,,---,0.00,VWS V14.01,2013-02-28 18:19:00,
2013-02-28 11:20:00,18.9,2.5,30.61,West,269,9.0,24.0,48,0.00,,---,0.00,VWS V14.01,2013-02-28 18:20:00,
2013-02-28 11:21:00,18.8,2.4,30.61,West,275,20.0,35.0,48,0.00,,---,0.00,VWS V14.01,2013-02-28 18:21:00,
2013-02-28 11:22:00,18.7,2.3,30.60,WNW,296,31.0,41.0,48,0.00,,---,0.00,VWS V14.01,2013-02-28 18:22:00,
2013-02-28 11:23:00,18.7,2.3,30.61,WSW,248,7.0,31.0,48,0.00,,---,0.00,VWS V14.01,2013-02-28 18:23:00,
2013-02-28 11:24:00,18.7,2.3,30.60,WSW,256,15.0,31.0,48,0.00,,---,0.00,VWS V14.01,2013-02-28 18:24:00,
2013-02-28 11:25:00,18.6,2.6,30.60,WNW,288,14.0,32.0,49,0.00,,---,0.00,VWS V14.01,2013-02-28 18:25:00,
2013-02-28 11:26:00,18.6,2.2,30.61,SW,232,29.0,30.0,48,0.00,,---,0.00,VWS V14.01,2013-02-28 18:26:00,
2013-02-28 11:27:00,18.6,2.6,30.61,West,270,10.0,29.0,49,0.00,,---,0.00,VWS V14.01,2013-02-28 18:27:00,
2013-02-28 11:28:00,18.6,2.6,30.61,NNW,335,12.0,33.0,49,0.00,,---,0.00,VWS V14.01,2013-02-28 18:28:00,
2013-02-28 11:29:00,18.6,2.6,30.61,WSW,247,19.0,29.0,49,0.00,,---,0.00,VWS V14.01,2013-02-28 18:29:00,
2013-02-28 11:30:00,18.6,2.6,30.61,WSW,258,19.0,19.0,49,0.00,,---,0.00,VWS V14.01,2013-02-28 18:30:00,
2013-02-28 11:31:00,18.6,2.6,30.61,West,275,16.0,41.0,49,0.00,,---,0.00,VWS V14.01,2013-02-28 18:31:00,
2013-02-28 11:32:00,18.5,2.5,30.60,WSW,244,29.0,33.0,49,0.00,,---,0.00,VWS V14.01,2013-02-28 18:32:00,
2013-02-28 11:33:00,18.6,2.6,30.60,WSW,247,20.0,37.0,49,0.00,,---,0.00,VWS V14.01,2013-02-28 18:33:00,
2013-02-28 11:34:00,18.5,2.5,30.60,WSW,253,18.0,29.0,49,0.00,,---,0.00,VWS V14.01,2013-02-28 18:34:00,
2013-02-28 11:35:00,18.6,2.2,30.60,WSW,244,37.0,37.0,48,0.00,,---,0.00,VWS V14.01,2013-02-28 18:35:00,
2013-02-28 11:36:00,18.8,1.9,30.61,West,275,7.0,37.0,47,0.00,,---,0.00,VWS V14.01,2013-02-28 18:36:00,
2013-02-28 11:37:00,18.8,2.4,30.61,WSW,250,27.0,27.0,48,0.00,,---,0.00,VWS V14.01,2013-02-28 18:37:00,
2013-02-28 11:38:00,18.9,2.5,30.60,West,262,29.0,29.0,48,0.00,,---,0.00,VWS V14.01,2013-02-28 18:38:00,
2013-02-28 11:39:00,18.8,2.4,30.61,WSW,248,25.0,27.0,48,0.00,,---,0.00,VWS V14.01,2013-02-28 18:39:00,
2013-02-28 11:40:00,19.0,2.1,30.61,West,278,4.0,29.0,47,0.00,,---,0.00,VWS V14.01,2013-02-28 18:40:00,
2013-02-28 11:41:00,19.1,2.7,30.62,SW,217,9.0,18.0,48,0.00,,---,0.00,VWS V14.01,2013-02-28 18:41:00,
2013-02-28 11:42:00,19.2,2.3,30.61,West,268,11.0,21.0,47,0.00,,---,0.00,VWS V14.01,2013-02-28 18:42:00,
2013-02-28 11:43:00,19.2,2.3,30.61,West,279,24.0,37.0,47,0.00,,---,0.00,VWS V14.01,2013-02-28 18:43:00,
2013-02-28 11:44:00,19.2,2.3,30.61,WSW,238,23.0,23.0,47,0.00,,---,0.00,VWS V14.01,2013-02-28 18:44:00,
2013-02-28 11:45:00,19.3,2.4,30.62,WSW,243,14.0,23.0,47,0.00,,---,0.00,VWS V14.01,2013-02-28 18:45:00,
2013-02-28 11:46:00,19.3,2.4,30.61,WNW,286,15.0,23.0,47,0.00,,---,0.00,VWS V14.01,2013-02-28 18:46:00,
2013-02-28 11:47:00,19.4,2.5,30.61,NW,304,23.0,27.0,47,0.00,,---,0.00,VWS V14.01,2013-02-28 18:47:00,
2013-02-28 11:48:00,19.4,2.5,30.61,WNW,291,24.0,28.0,47,0.00,,---,0.00,VWS V14.01,2013-02-28 18:48:00,
2013-02-28 11:49:00,19.4,2.5,30.61,WSW,252,11.0,28.0,47,0.00,,---,0.00,VWS V14.01,2013-02-28 18:49:00,
2013-02-28 11:50:00,19.5,2.1,30.62,WSW,257,9.0,19.0,46,0.00,,---,0.00,VWS V14.01,2013-02-28 18:50:00,
2013-02-28 11:51:00,19.5,2.6,30.62,SW,234,24.0,28.0,47,0.00,,---,0.00,VWS V14.01,2013-02-28 18:51:00,
2013-02-28 11:52:00,19.5,2.1,30.62,West,268,9.0,24.0,46,0.00,,---,0.00,VWS V14.01,2013-02-28 18:52:00,
2013-02-28 11:53:00,19.6,2.7,30.62,West,274,4.0,10.0,47,0.00,,---,0.00,VWS V14.01,2013-02-28 18:53:00,
2013-02-28 11:54:00,19.6,2.2,30.62,WSW,255,6.0,10.0,46,0.00,,---,0.00,VWS V14.01,2013-02-28 18:54:00,
2013-02-28 11:55:00,19.8,2.8,30.62,WNW,296,20.0,25.0,47,0.00,,---,0.00,VWS V14.01,2013-02-28 18:55:00,
2013-02-28 11:56:00,19.8,2.4,30.62,WNW,298,9.0,20.0,46,0.00,,---,0.00,VWS V14.01,2013-02-28 18:56:00,
2013-02-28 11:57:00,19.9,2.5,30.62,West,271,7.0,25.0,46,0.00,,---,0.00,VWS V14.01,2013-02-28 18:57:00,
2013-02-28 11:58:00,19.9,2.5,30.62,NW,323,18.0,29.0,46,0.00,,---,0.00,VWS V14.01,2013-02-28 18:58:00,
2013-02-28 11:59:00,19.9,2.5,30.62,South,191,12.0,24.0,46,0.00,,---,0.00,VWS V14.01,2013-02-28 18:59:00,
2013-02-28 12:00:00,20.0,2.1,30.63,West,265,13.0,21.0,45,0.00,,---,0.00,VWS V14.01,2013-02-28 19:00:00,
2013-02-28 12:01:00,20.0,2.1,30.64,West,275,25.0,25.0,45,0.00,,---,0.00,VWS V14.01,2013-02-28 19:01:00,
2013-02-28 12:02:00,20.0,2.1,30.63,WSW,252,13.0,31.0,45,0.00,,---,0.00,VWS V14.01,2013-02-28 19:02:00,
2013-02-28 12:03:00,20.0,1.6,30.63,West,270,14.0,21.0,44,0.00,,---,0.00,VWS V14.01,2013-02-28 19:03:00,
2013-02-28 12:04:00,20.0,1.6,30.63,SW,236,13.0,21.0,44,0.00,,---,0.00,VWS V14.01,2013-02-28 19:04:00,
2013-02-28 12:06:00,20.1,2.2,30.64,WSW,258,13.0,29.0,45,0.00,,---,0.00,VWS V14.01,2013-02-28 19:06:00,
2013-02-28 12:07:00,20.1,2.2,30.64,WNW,286,7.0,13.0,45,0.00,,---,0.00,VWS V14.01,2013-02-28 19:07:00,
2013-02-28 12:08:00,20.2,2.3,30.64,West,273,8.0,14.0,45,0.00,,---,0.00,VWS V14.01,2013-02-28 19:08:00,
2013-02-28 12:09:00,20.1,2.2,30.64,West,267,10.0,14.0,45,0.00,,---,0.00,VWS V14.01,2013-02-28 19:09:00,
2013-02-28 12:10:00,20.2,2.3,30.64,SW,225,4.0,18.0,45,0.00,,---,0.00,VWS V14.01,2013-02-28 19:10:00,
2013-02-28 12:11:00,20.2,2.7,30.63,West,269,6.0,10.0,46,0.00,,---,0.00,VWS V14.01,2013-02-28 19:11:00,
2013-02-28 12:12:00,20.3,2.8,30.63,West,277,11.0,18.0,46,0.00,,---,0.00,VWS V14.01,2013-02-28 19:12:00,
2013-02-28 12:13:00,20.3,2.4,30.63,WSW,248,4.0,11.0,45,0.00,,---,0.00,VWS V14.01,2013-02-28 19:13:00,
2013-02-28 12:14:00,20.3,2.4,30.63,WSW,248,4.0,11.0,45,0.00,,---,0.00,VWS V14.01,2013-02-28 19:14:00,
2013-02-28 12:15:00,20.4,2.9,30.63,West,273,16.0,22.0,46,0.00,,---,0.00,VWS V14.01,2013-02-28 19:15:00,
2013-02-28 12:16:00,20.4,2.0,30.62,West,265,6.0,19.0,44,0.00,,---,0.00,VWS V14.01,2013-02-28 19:16:00,
2013-02-28 12:17:00,20.4,2.0,30.63,SW,233,12.0,24.0,44,0.00,,---,0.00,VWS V14.01,2013-02-28 19:17:00,
2013-02-28 12:18:00,20.4,2.0,30.62,WNW,288,8.0,15.0,44,0.00,,---,0.00,VWS V14.01,2013-02-28 19:18:00,
2013-02-28 12:19:00,20.5,2.1,30.63,West,261,15.0,21.0,44,0.00,,---,0.00,VWS V14.01,2013-02-28 19:19:00,
2013-02-28 12:20:00,20.4,2.0,30.63,WNW,296,8.0,15.0,44,0.00,,---,0.00,VWS V14.01,2013-02-28 19:20:00,
2013-02-28 12:21:00,20.6,2.2,30.63,West,281,4.0,19.0,44,0.00,,---,0.00,VWS V14.01,2013-02-28 19:21:00,
2013-02-28 12:22:00,20.6,2.2,30.63,SW,236,7.0,13.0,44,0.00,,---,0.00,VWS V14.01,2013-02-28 19:22:00,
2013-02-28 12:23:00,20.7,2.2,30.62,NW,317,8.0,13.0,44,0.00,,---,0.00,VWS V14.01,2013-02-28 19:23:00,
2013-02-28 12:24:00,20.7,2.2,30.63,NW,306,4.0,14.0,44,0.00,,---,0.00,VWS V14.01,2013-02-28 19:24:00,
2013-02-28 12:25:00,20.7,2.2,30.62,NW,317,8.0,13.0,44,0.00,,---,0.00,VWS V14.01,2013-02-28 19:25:00,
2013-02-28 12:26:00,20.8,2.3,30.63,WNW,286,10.0,16.0,44,0.00,,---,0.00,VWS V14.01,2013-02-28 19:26:00,
2013-02-28 12:27:00,20.8,1.8,30.62,NW,307,18.0,18.0,43,0.00,,---,0.00,VWS V14.01,2013-02-28 19:27:00,
2013-02-28 12:28:00,20.9,1.9,30.62,West,267,12.0,22.0,43,0.00,,---,0.00,VWS V14.01,2013-02-28 19:28:00,
2013-02-28 12:29:00,20.9,1.9,30.62,NW,305,11.0,23.0,43,0.00,,---,0.00,VWS V14.01,2013-02-28 19:29:00,
2013-02-28 12:30:00,20.9,1.9,30.62,West,267,12.0,22.0,43,0.00,,---,0.00,VWS V14.01,2013-02-28 19:30:00,
2013-02-28 12:31:00,20.9,1.9,30.63,WNW,285,34.0,34.0,43,0.00,,---,0.00,VWS V14.01,2013-02-28 19:31:00,
2013-02-28 12:32:00,20.9,1.9,30.62,West,263,11.0,34.0,43,0.00,,---,0.00,VWS V14.01,2013-02-28 19:32:00,
2013-02-28 12:33:00,20.9,1.9,30.62,WNW,290,10.0,20.0,43,0.00,,---,0.00,VWS V14.01,2013-02-28 19:33:00,
2013-02-28 12:34:00,21.0,2.0,30.61,West,278,9.0,19.0,43,0.00,,---,0.00,VWS V14.01,2013-02-28 19:34:00,
2013-02-28 12:35:00,20.9,1.9,30.62,WNW,290,10.0,20.0,43,0.00,,---,0.00,VWS V14.01,2013-02-28 19:35:00,
2013-02-28 12:36:00,21.1,2.1,30.62,West,263,6.0,10.0,43,0.00,,---,0.00,VWS V14.01,2013-02-28 19:36:00,
2013-02-28 12:37:00,21.2,2.2,30.62,West,261,13.0,14.0,43,0.00,,---,0.00,VWS V14.01,2013-02-28 19:37:00,
2013-02-28 12:38:00,21.2,1.7,30.62,WSW,250,10.0,32.0,42,0.00,,---,0.00,VWS V14.01,2013-02-28 19:38:00,
2013-02-28 12:39:00,21.2,2.2,30.61,West,265,31.0,31.0,43,0.00,,---,0.00,VWS V14.01,2013-02-28 19:39:00,
2013-02-28 12:40:00,21.2,1.7,30.62,WSW,250,10.0,32.0,42,0.00,,---,0.00,VWS V14.01,2013-02-28 19:40:00,
2013-02-28 12:41:00,21.3,1.8,30.62,WSW,248,13.0,24.0,42,0.00,,---,0.00,VWS V14.01,2013-02-28 19:41:00,
2013-02-28 12:42:00,21.3,2.3,30.62,NW,312,14.0,21.0,43,0.00,,---,0.00,VWS V14.01,2013-02-28 19:42:00,
2013-02-28 12:43:00,21.3,2.3,30.60,NNW,342,12.0,23.0,43,0.00,,---,0.00,VWS V14.01,2013-02-28 19:43:00,
2013-02-28 12:44:00,21.3,2.3,30.62,WSW,258,13.0,33.0,43,0.00,,---,0.00,VWS V14.01,2013-02-28 19:44:00,
2013-02-28 12:45:00,21.3,2.3,30.60,NNW,342,12.0,23.0,43,0.00,,---,0.00,VWS V14.01,2013-02-28 19:45:00,
2013-02-28 12:46:00,21.3,1.8,30.61,WNW,285,11.0,29.0,42,0.00,,---,0.00,VWS V14.01,2013-02-28 19:46:00,
2013-02-28 12:47:00,21.3,1.8,30.61,WNW,290,7.0,22.0,42,0.00,,---,0.00,VWS V14.01,2013-02-28 19:47:00,
2013-02-28 12:48:00,21.3,2.3,30.61,WSW,243,20.0,23.0,43,0.00,,---,0.00,VWS V14.01,2013-02-28 19:48:00,
2013-02-28 12:49:00,21.3,2.3,30.62,WSW,257,15.0,28.0,43,0.00,,---,0.00,VWS V14.01,2013-02-28 19:49:00,
2013-02-28 12:50:00,21.3,2.3,30.61,WSW,243,20.0,23.0,43,0.00,,---,0.00,VWS V14.01,2013-02-28 19:50:00,
2013-02-28 12:51:00,21.2,1.2,30.62,West,263,7.0,19.0,41,0.00,,---,0.00,VWS V14.01,2013-02-28 19:51:00,
2013-02-28 12:52:00,21.2,1.2,30.62,WNW,290,9.0,20.0,41,0.00,,---,0.00,VWS V14.01,2013-02-28 19:52:00,
2013-02-28 12:53:00,21.2,1.7,30.62,West,259,21.0,25.0,42,0.00,,---,0.00,VWS V14.01,2013-02-28 19:53:00,
2013-02-28 12:54:00,21.2,1.7,30.62,West,276,11.0,26.0,42,0.00,,---,0.00,VWS V14.01,2013-02-28 19:54:00,
2013-02-28 12:55:00,21.3,1.8,30.62,West,281,15.0,21.0,42,0.00,,---,0.00,VWS V14.01,2013-02-28 19:55:00,
2013-02-28 12:56:00,21.2,1.7,30.61,West,260,18.0,24.0,42,0.00,,---,0.00,VWS V14.01,2013-02-28 19:56:00,
2013-02-28 12:57:00,21.1,1.6,30.61,West,261,19.0,27.0,42,0.00,,---,0.00,VWS V14.01,2013-02-28 19:57:00,
2013-02-28 12:58:00,21.1,1.6,30.61,West,260,7.0,19.0,42,0.00,,---,0.00,VWS V14.01,2013-02-28 19:58:00,
2013-02-28 12:59:00,21.1,1.6,30.61,West,272,13.0,20.0,42,0.00,,---,0.00,VWS V14.01,2013-02-28 19:59:00,
2013-02-28 13:00:00,21.1,1.6,30.61,SW,218,6.0,8.0,42,0.00,,---,0.00,VWS V14.01,2013-02-28 20:00:00,
2013-02-28 13:01:00,21.0,1.5,30.61,West,266,12.0,24.0,42,0.00,,---,0.00,VWS V14.01,2013-02-28 20:01:00,
2013-02-28 13:02:00,21.0,2.0,30.61,WNW,290,8.0,26.0,43,0.00,,---,0.00,VWS V14.01,2013-02-28 20:02:00,
2013-02-28 13:03:00,21.1,2.1,30.61,WNW,284,14.0,19.0,43,0.00,,---,0.00,VWS V14.01,2013-02-28 20:03:00,
2013-02-28 13:04:00,21.1,2.1,30.61,WNW,289,10.0,24.0,43,0.00,,---,0.00,VWS V14.01,2013-02-28 20:04:00,
2013-02-28 13:05:00,21.1,2.1,30.61,WSW,246,24.0,24.0,43,0.00,,---,0.00,VWS V14.01,2013-02-28 20:05:00,
2013-02-28 13:06:00,21.2,2.7,30.61,SW,224,21.0,27.0,44,0.00,,---,0.00,VWS V14.01,2013-02-28 20:06:00,
2013-02-28 13:07:00,21.2,2.7,30.62,WSW,249,22.0,28.0,44,0.00,,---,0.00,VWS V14.01,2013-02-28 20:07:00,
2013-02-28 13:08:00,21.3,2.8,30.61,WSW,254,8.0,30.0,44,0.00,,---,0.00,VWS V14.01,2013-02-28 20:08:00,
2013-02-28 13:09:00,21.2,2.2,30.61,WNW,300,10.0,24.0,43,0.00,,---,0.00,VWS V14.01,2013-02-28 20:09:00,
2013-02-28 13:10:00,21.3,2.3,30.61,West,271,15.0,24.0,43,0.00,,---,0.00,VWS V14.01,2013-02-28 20:10:00,
2013-02-28 13:11:00,21.2,2.7,30.61,WSW,255,14.0,21.0,44,0.00,,---,0.00,VWS V14.01,2013-02-28 20:11:00,
2013-02-28 13:12:00,21.2,2.7,30.61,WNW,294,9.0,22.0,44,0.00,,---,0.00,VWS V14.01,2013-02-28 20:12:00,
2013-02-28 13:13:00,21.3,2.3,30.61,NW,305,15.0,23.0,43,0.00,,---,0.00,VWS V14.01,2013-02-28 20:13:00,
2013-02-28 13:14:00,21.5,3.0,30.60,WNW,284,14.0,16.0,44,0.00,,---,0.00,VWS V14.01,2013-02-28 20:14:00,
2013-02-28 13:15:00,21.3,2.8,30.61,WNW,290,16.0,16.0,44,0.00,,---,0.00,VWS V14.01,2013-02-28 20:15:00,
2013-02-28 13:16:00,22.1,3.5,30.61,West,261,12.0,27.0,44,0.00,,---,0.00,VWS V14.01,2013-02-28 20:16:00,
2013-02-28 13:17:00,22.5,4.4,30.60,SW,230,9.0,22.0,45,0.00,,---,0.00,VWS V14.01,2013-02-28 20:17:00,
2013-02-28 13:18:00,22.8,4.2,30.60,West,280,5.0,11.0,44,0.00,,---,0.00,VWS V14.01,2013-02-28 20:18:00,
2013-02-28 13:19:00,23.1,4.4,30.60,WSW,246,15.0,16.0,44,0.00,,---,0.00,VWS V14.01,2013-02-28 20:19:00,
2013-02-28 13:20:00,22.9,4.3,30.60,West,261,13.0,15.0,44,0.00,,---,0.00,VWS V14.01,2013-02-28 20:20:00,
2013-02-28 13:21:00,23.6,3.9,30.60,WSW,240,19.0,19.0,42,0.00,,---,0.00,VWS V14.01,2013-02-28 20:21:00,
2013-02-28 13:22:00,23.9,4.7,30.60,WSW,252,8.0,25.0,43,0.00,,---,0.00,VWS V14.01,2013-02-28 20:22:00,
2013-02-28 13:23:00,24.0,4.8,30.60,NNW,328,9.0,22.0,43,0.00,,---,0.00,VWS V14.01,2013-02-28 20:23:00,
2013-02-28 13:24:00,24.2,4.4,30.60,West,262,3.0,13.0,42,0.00,,---,0.00,VWS V14.01,2013-02-28 20:24:00,
2013-02-28 13:25:00,24.2,4.4,30.60,NW,324,8.0,13.0,42,0.00,,---,0.00,VWS V14.01,2013-02-28 20:25:00,
2013-02-28 13:26:00,24.6,4.8,30.61,NW,319,9.0,12.0,42,0.00,,---,0.00,VWS V14.01,2013-02-28 20:26:00,
2013-02-28 13:27:00,24.9,5.6,30.60,West,270,9.0,19.0,43,0.00,,---,0.00,VWS V14.01,2013-02-28 20:27:00,
2013-02-28 13:28:00,25.2,5.3,30.60,SW,225,8.0,20.0,42,0.00,,---,0.00,VWS V14.01,2013-02-28 20:28:00,
2013-02-28 13:29:00,25.4,5.5,30.60,West,281,6.0,30.0,42,0.00,,---,0.00,VWS V14.01,2013-02-28 20:29:00,
2013-02-28 13:30:00,25.4,5.5,30.60,West,269,14.0,30.0,42,0.00,,---,0.00,VWS V14.01,2013-02-28 20:30:00,
2013-02-28 13:31:00,25.7,5.8,30.60,West,273,8.0,12.0,42,0.00,,---,0.00,VWS V14.01,2013-02-28 20:31:00,
2013-02-28 13:32:00,25.9,5.4,30.60,WSW,254,5.0,8.0,41,0.00,,---,0.00,VWS V14.01,2013-02-28 20:32:00,
2013-02-28 13:33:00,26.1,6.7,30.59,NW,307,5.0,11.0,43,0.00,,---,0.00,VWS V14.01,2013-02-28 20:33:00,
2013-02-28 13:34:00,26.5,6.5,30.60,NW,315,12.0,14.0,42,0.00,,---,0.00,VWS V14.01,2013-02-28 20:34:00,
2013-02-28 13:35:00,26.7,6.2,30.60,NNW,347,4.0,16.0,41,0.00,,---,0.00,VWS V14.01,2013-02-28 20:35:00,
2013-02-28 13:36:00,26.5,6.5,30.60,NW,315,12.0,14.0,42,0.00,,---,0.00,VWS V14.01,2013-02-28 20:36:00,
2013-02-28 13:37:00,27.0,5.9,30.58,SW,227,6.0,18.0,40,0.00,,---,0.00,VWS V14.01,2013-02-28 20:37:00,
2013-02-28 13:38:00,27.1,5.4,30.59,West,281,20.0,24.0,39,0.00,,---,0.00,VWS V14.01,2013-02-28 20:38:00,
2013-02-28 13:39:00,27.1,5.4,30.59,West,266,10.0,21.0,39,0.00,,---,0.00,VWS V14.01,2013-02-28 20:39:00,
2013-02-28 13:40:00,27.0,4.8,30.59,NW,323,12.0,31.0,38,0.00,,---,0.00,VWS V14.01,2013-02-28 20:40:00,
2013-02-28 13:41:00,27.1,5.4,30.59,West,266,10.0,21.0,39,0.00,,---,0.00,VWS V14.01,2013-02-28 20:41:00,
2013-02-28 13:42:00,26.8,5.7,30.59,WNW,290,13.0,14.0,40,0.00,,---,0.00,VWS V14.01,2013-02-28 20:42:00,
2013-02-28 13:43:00,26.8,5.7,30.58,NW,318,8.0,21.0,40,0.00,,---,0.00,VWS V14.01,2013-02-28 20:43:00,
2013-02-28 13:44:00,26.9,6.4,30.60,WNW,286,13.0,23.0,41,0.00,,---,0.00,VWS V14.01,2013-02-28 20:44:00,
2013-02-28 13:45:00,26.9,5.8,30.60,WSW,247,13.0,24.0,40,0.00,,---,0.00,VWS V14.01,2013-02-28 20:45:00,
2013-02-28 13:46:00,26.9,6.4,30.60,WNW,286,13.0,23.0,41,0.00,,---,0.00,VWS V14.01,2013-02-28 20:46:00,
2013-02-28 13:47:00,27.0,6.4,30.58,WNW,286,12.0,20.0,41,0.00,,---,0.00,VWS V14.01,2013-02-28 20:47:00,
2013-02-28 13:48:00,27.0,7.0,30.59,South,169,5.0,18.0,42,0.00,,---,0.00,VWS V14.01,2013-02-28 20:48:00,
2013-02-28 13:49:00,27.1,7.1,30.60,West,262,18.0,27.0,42,0.00,,---,0.00,VWS V14.01,2013-02-28 20:49:00,
2013-02-28 13:50:00,27.0,6.4,30.60,WSW,241,12.0,19.0,41,0.00,,---,0.00,VWS V14.01,2013-02-28 20:50:00,
2013-02-28 13:51:00,27.1,7.1,30.60,West,262,18.0,27.0,42,0.00,,---,0.00,VWS V14.01,2013-02-28 20:51:00,
2013-02-28 13:52:00,26.9,6.4,30.60,WNW,294,12.0,21.0,41,0.00,,---,0.00,VWS V14.01,2013-02-28 20:52:00,
2013-02-28 13:53:00,26.7,6.7,30.60,WSW,245,16.0,25.0,42,0.00,,---,0.00,VWS V14.01,2013-02-28 20:53:00,
2013-02-28 13:54:00,26.5,6.5,30.61,West,264,12.0,20.0,42,0.00,,---,0.00,VWS V14.01,2013-02-28 20:54:00,
2013-02-28 13:55:00,26.3,6.3,30.60,West,267,16.0,23.0,42,0.00,,---,0.00,VWS V14.01,2013-02-28 20:55:00,
2013-02-28 13:56:00,26.5,6.5,30.61,West,264,12.0,20.0,42,0.00,,---,0.00,VWS V14.01,2013-02-28 20:56:00,
2013-02-28 13:57:00,26.1,6.7,30.61,West,276,13.0,23.0,43,0.00,,---,0.00,VWS V14.01,2013-02-28 20:57:00,
2013-02-28 13:58:00,26.0,6.6,30.61,WNW,282,18.0,18.0,43,0.00,,---,0.00,VWS V14.01,2013-02-28 20:58:00,
2013-02-28 13:59:00,25.9,6.0,30.61,West,276,10.0,18.0,42,0.00,,---,0.00,VWS V14.01,2013-02-28 20:59:00,
2013-02-28 14:00:00,25.8,5.4,30.61,WSW,250,8.0,16.0,41,0.00,,---,0.00,VWS V14.01,2013-02-28 21:00:00,
2013-02-28 14:01:00,25.9,6.0,30.61,West,276,10.0,18.0,42,0.00,,---,0.00,VWS V14.01,2013-02-28 21:01:00,
2013-02-28 14:02:00,25.7,6.8,30.61,NW,311,6.0,11.0,44,0.00,,---,0.00,VWS V14.01,2013-02-28 21:02:00,
2013-02-28 14:03:00,25.7,7.3,30.61,WSW,237,18.0,18.0,45,0.00,,---,0.00,VWS V14.01,2013-02-28 21:03:00,
2013-02-28 14:04:00,25.7,6.8,30.60,SW,230,12.0,20.0,44,0.00,,---,0.00,VWS V14.01,2013-02-28 21:04:00,
2013-02-28 14:05:00,25.6,6.2,30.61,NW,313,19.0,19.0,43,0.00,,---,0.00,VWS V14.01,2013-02-28 21:05:00,
2013-02-28 14:06:00,25.7,6.8,30.60,SW,230,12.0,20.0,44,0.00,,---,0.00,VWS V14.01,2013-02-28 21:06:00,
2013-02-28 14:07:00,25.6,6.7,30.61,West,281,12.0,12.0,44,0.00,,---,0.00,VWS V14.01,2013-02-28 21:07:00,
2013-02-28 14:08:00,25.7,6.8,30.61,West,269,15.0,23.0,44,0.00,,---,0.00,VWS V14.01,2013-02-28 21:08:00,
2013-02-28 14:09:00,25.7,6.3,30.60,WNW,297,9.0,15.0,43,0.00,,---,0.00,VWS V14.01,2013-02-28 21:09:00,
2013-02-28 14:10:00,25.6,6.2,30.60,South,185,12.0,19.0,43,0.00,,---,0.00,VWS V14.01,2013-02-28 21:10:00,
2013-02-28 14:11:00,25.7,6.3,30.60,WNW,297,9.0,15.0,43,0.00,,---,0.00,VWS V14.01,2013-02-28 21:11:00,
2013-02-28 14:12:00,25.6,6.7,30.60,West,280,3.0,10.0,44,0.00,,---,0.00,VWS V14.01,2013-02-28 21:12:00,
2013-02-28 14:13:00,25.6,6.7,30.60,WNW,302,6.0,9.0,44,0.00,,---,0.00,VWS V14.01,2013-02-28 21:13:00,
2013-02-28 14:14:00,25.6,7.2,30.60,North,350,3.0,7.0,45,0.00,,---,0.00,VWS V14.01,2013-02-28 21:14:00,
2013-02-28 14:15:00,25.8,7.4,30.60,WSW,256,6.0,13.0,45,0.00,,---,0.00,VWS V14.01,2013-02-28 21:15:00,
2013-02-28 14:16:00,25.6,7.2,30.60,North,350,3.0,7.0,45,0.00,,---,0.00,VWS V14.01,2013-02-28 21:16:00,
2013-02-28 14:17:00,25.8,6.9,30.60,West,279,9.0,11.0,44,0.00,,---,0.00,VWS V14.01,2013-02-28 21:17:00,
2013-02-28 14:18:00,25.7,7.3,30.60,West,278,16.0,16.0,45,0.00,,---,0.00,VWS V14.01,2013-02-28 21:18:00,
2013-02-28 14:19:00,25.7,6.8,30.60,West,272,8.0,16.0,44,0.00,,---,0.00,VWS V14.01,2013-02-28 21:19:00,
2013-02-28 14:20:00,25.6,7.2,30.60,WSW,256,4.0,11.0,45,0.00,,---,0.00,VWS V14.01,2013-02-28 21:20:00,
2013-02-28 14:21:00,25.7,6.8,30.60,West,272,8.0,16.0,44,0.00,,---,0.00,VWS V14.01,2013-02-28 21:21:00,
2013-02-28 14:22:00,25.5,7.6,30.59,SW,225,23.0,23.0,46,0.00,,---,0.00,VWS V14.01,2013-02-28 21:22:00,
2013-02-28 14:23:00,25.4,7.5,30.59,WNW,284,10.0,23.0,46,0.00,,---,0.00,VWS V14.01,2013-02-28 21:23:00,
2013-02-28 14:24:00,25.3,6.9,30.59,NNW,333,6.0,19.0,45,0.00,,---,0.00,VWS V14.01,2013-02-28 21:24:00,
2013-02-28 14:25:00,25.4,7.0,30.59,West,267,13.0,19.0,45,0.00,,---,0.00,VWS V14.01,2013-02-28 21:25:00,
2013-02-28 14:26:00,25.2,6.8,30.59,WNW,301,12.0,22.0,45,0.00,,---,0.00,VWS V14.01,2013-02-28 21:26:00,
2013-02-28 14:27:00,25.0,7.2,30.59,South,188,10.0,24.0,46,0.00,,---,0.00,VWS V14.01,2013-02-28 21:27:00,
2013-02-28 14:28:00,24.9,7.1,30.59,WSW,238,7.0,19.0,46,0.00,,---,0.00,VWS V14.01,2013-02-28 21:28:00,
2013-02-28 14:29:00,24.8,7.4,30.59,WSW,239,14.0,15.0,47,0.00,,---,0.00,VWS V14.01,2013-02-28 21:29:00,
2013-02-28 14:30:00,24.8,7.4,30.58,West,267,10.0,14.0,47,0.00,,---,0.00,VWS V14.01,2013-02-28 21:30:00,
2013-02-28 14:31:00,24.8,7.4,30.59,WSW,239,14.0,15.0,47,0.00,,---,0.00,VWS V14.01,2013-02-28 21:31:00,
2013-02-28 14:32:00,24.8,7.4,30.59,WNW,291,8.0,10.0,47,0.00,,---,0.00,VWS V14.01,2013-02-28 21:32:00,
2013-02-28 14:33:00,24.9,7.5,30.59,WNW,288,7.0,16.0,47,0.00,,---,0.00,VWS V14.01,2013-02-28 21:33:00,
2013-02-28 14:34:00,25.1,7.7,30.59,WSW,243,9.0,14.0,47,0.00,,---,0.00,VWS V14.01,2013-02-28 21:34:00,
2013-02-28 14:35:00,25.2,8.3,30.59,SSW,205,5.0,9.0,48,0.00,,---,0.00,VWS V14.01,2013-02-28 21:35:00,
2013-02-28 14:36:00,25.1,7.7,30.59,WSW,243,9.0,14.0,47,0.00,,---,0.00,VWS V14.01,2013-02-28 21:36:00,
2013-02-28 14:37:00,25.4,7.5,30.59,WSW,254,7.0,12.0,46,0.00,,---,0.00,VWS V14.01,2013-02-28 21:37:00,
2013-02-28 14:38:00,25.5,7.6,30.59,West,261,2.0,7.0,46,0.00,,---,0.00,VWS V14.01,2013-02-28 21:38:00,
2013-02-28 14:39:00,25.6,7.7,30.59,West,265,5.0,10.0,46,0.00,,---,0.00,VWS V14.01,2013-02-28 21:39:00,
2013-02-28 14:40:00,25.7,7.8,30.59,WNW,294,15.0,25.0,46,0.00,,---,0.00,VWS V14.01,2013-02-28 21:40:00,
2013-02-28 14:41:00,25.6,7.7,30.59,West,265,5.0,10.0,46,0.00,,---,0.00,VWS V14.01,2013-02-28 21:41:00,
2013-02-28 14:42:00,25.6,7.7,30.59,West,266,19.0,19.0,46,0.00,,---,0.00,VWS V14.01,2013-02-28 21:42:00,
2013-02-28 14:43:00,25.6,7.7,30.59,West,270,8.0,19.0,46,0.00,,---,0.00,VWS V14.01,2013-02-28 21:43:00,
2013-02-28 14:44:00,25.6,7.7,30.59,WSW,248,11.0,13.0,46,0.00,,---,0.00,VWS V14.01,2013-02-28 21:44:00,
2013-02-28 14:45:00,25.5,7.6,30.59,West,276,2.0,20.0,46,0.00,,---,0.00,VWS V14.01,2013-02-28 21:45:00,
2013-02-28 14:46:00,25.6,7.7,30.59,WSW,248,11.0,13.0,46,0.00,,---,0.00,VWS V14.01,2013-02-28 21:46:00,
2013-02-28 14:47:00,25.5,7.6,30.59,SSW,212,10.0,25.0,46,0.00,,---,0.00,VWS V14.01,2013-02-28 21:47:00,
2013-02-28 14:48:00,25.5,7.6,30.60,NW,309,5.0,10.0,46,0.00,,---,0.00,VWS V14.01,2013-02-28 21:48:00,
2013-02-28 14:49:00,25.5,8.1,30.59,NW,314,6.0,21.0,47,0.00,,---,0.00,VWS V14.01,2013-02-28 21:49:00,
2013-02-28 14:50:00,25.4,8.0,30.59,WNW,285,12.0,24.0,47,0.00,,---,0.00,VWS V14.01,2013-02-28 21:50:00,
2013-02-28 14:51:00,25.5,8.1,30.59,NW,304,4.0,6.0,47,0.00,,---,0.00,VWS V14.01,2013-02-28 21:51:00,
2013-02-28 14:52:00,25.4,8.0,30.59,West,261,18.0,24.0,47,0.00,,---,0.00,VWS V14.01,2013-02-28 21:52:00,
2013-02-28 14:53:00,25.3,7.9,30.59,West,259,11.0,19.0,47,0.00,,---,0.00,VWS V14.01,2013-02-28 21:53:00,
2013-02-28 14:54:00,25.1,7.7,30.59,WSW,250,14.0,16.0,47,0.00,,---,0.00,VWS V14.01,2013-02-28 21:54:00,
2013-02-28 14:55:00,24.9,8.0,30.59,NW,313,9.0,24.0,48,0.00,,---,0.00,VWS V14.01,2013-02-28 21:55:00,
2013-02-28 14:56:00,25.1,7.7,30.59,West,261,14.0,14.0,47,0.00,,---,0.00,VWS V14.01,2013-02-28 21:56:00,
2013-02-28 14:57:00,24.8,7.9,30.59,WSW,243,16.0,24.0,48,0.00,,---,0.00,VWS V14.01,2013-02-28 21:57:00,
2013-02-28 14:58:00,24.7,7.8,30.59,West,271,11.0,16.0,48,0.00,,---,0.00,VWS V14.01,2013-02-28 21:58:00,
2013-02-28 14:59:00,24.6,8.2,30.59,West,281,27.0,28.0,49,0.00,,---,0.00,VWS V14.01,2013-02-28 21:59:00,
2013-02-28 15:00:00,24.4,8.0,30.59,SW,229,11.0,27.0,49,0.00,,---,0.00,VWS V14.01,2013-02-28 22:00:00,
2013-02-28 15:01:00,24.6,8.2,30.59,West,273,16.0,27.0,49,0.00,,---,0.00,VWS V14.01,2013-02-28 22:01:00,
2013-02-28 15:02:00,24.3,7.9,30.59,WSW,246,11.0,18.0,49,0.00,,---,0.00,VWS V14.01,2013-02-28 22:02:00,
2013-02-28 15:03:00,24.3,7.9,30.59,NW,318,16.0,26.0,49,0.00,,---,0.00,VWS V14.01,2013-02-28 22:03:00,
2013-02-28 15:04:00,24.1,7.7,30.60,WNW,283,7.0,20.0,49,0.00,,---,0.00,VWS V14.01,2013-02-28 22:04:00,
2013-02-28 15:05:00,24.0,7.6,30.60,West,273,9.0,15.0,49,0.00,,---,0.00,VWS V14.01,2013-02-28 22:05:00,
2013-02-28 15:06:00,24.0,7.6,30.60,WSW,250,15.0,15.0,49,0.00,,---,0.00,VWS V14.01,2013-02-28 22:06:00,
2013-02-28 15:07:00,24.0,8.1,30.59,South,180,10.0,24.0,50,0.00,,---,0.00,VWS V14.01,2013-02-28 22:07:00,
2013-02-28 15:08:00,24.0,8.5,30.60,WNW,287,10.0,20.0,51,0.00,,---,0.00,VWS V14.01,2013-02-28 22:08:00,
2013-02-28 15:09:00,24.0,8.5,30.60,West,279,8.0,16.0,51,0.00,,---,0.00,VWS V14.01,2013-02-28 22:09:00,
2013-02-28 15:10:00,24.1,9.0,30.60,West,279,19.0,19.0,52,0.00,,---,0.00,VWS V14.01,2013-02-28 22:10:00,
2013-02-28 15:11:00,24.1,8.6,30.60,NW,305,7.0,8.0,51,0.00,,---,0.00,VWS V14.01,2013-02-28 22:11:00,
2013-02-28 15:12:00,24.0,8.1,30.59,West,260,15.0,27.0,50,0.00,,---,0.00,VWS V14.01,2013-02-28 22:12:00,
2013-02-28 15:13:00,23.8,7.9,30.60,WSW,248,14.0,16.0,50,0.00,,---,0.00,VWS V14.01,2013-02-28 22:13:00,
2013-02-28 15:14:00,23.7,8.2,30.60,WNW,284,2.0,20.0,51,0.00,,---,0.00,VWS V14.01,2013-02-28 22:14:00,
2013-02-28 15:15:00,23.8,8.8,30.60,WNW,286,8.0,9.0,52,0.00,,---,0.00,VWS V14.01,2013-02-28 22:15:00,
2013-02-28 15:16:00,23.7,8.2,30.60,West,279,9.0,9.0,51,0.00,,---,0.00,VWS V14.01,2013-02-28 22:16:00,
2013-02-28 15:17:00,23.8,8.3,30.60,NW,304,7.0,20.0,51,0.00,,---,0.00,VWS V14.01,2013-02-28 22:17:00,
2013-02-28 15:18:00,23.8,8.8,30.60,SW,234,7.0,16.0,52,0.00,,---,0.00,VWS V14.01,2013-02-28 22:18:00,
2013-02-28 15:19:00,23.9,8.9,30.59,WNW,290,23.0,27.0,52,0.00,,---,0.00,VWS V14.01,2013-02-28 22:19:00,
2013-02-28 15:20:00,23.8,8.3,30.59,NW,304,7.0,23.0,51,0.00,,---,0.00,VWS V14.01,2013-02-28 22:20:00,
2013-02-28 15:21:00,23.9,8.9,30.59,West,275,21.0,23.0,52,0.00,,---,0.00,VWS V14.01,2013-02-28 22:21:00,
2013-02-28 15:22:00,23.8,9.2,30.59,West,273,18.0,18.0,53,0.00,,---,0.00,VWS V14.01,2013-02-28 22:22:00,
2013-02-28 15:23:00,23.8,9.2,30.59,West,267,11.0,18.0,53,0.00,,---,0.00,VWS V14.01,2013-02-28 22:23:00,
2013-02-28 15:24:00,23.8,8.3,30.59,West,270,16.0,29.0,51,0.00,,---,0.00,VWS V14.01,2013-02-28 22:24:00,
2013-02-28 15:25:00,23.7,8.2,30.59,WNW,286,10.0,22.0,51,0.00,,---,0.00,VWS V14.01,2013-02-28 22:25:00,
2013-02-28 15:26:00,23.7,8.2,30.59,WNW,292,16.0,16.0,51,0.00,,---,0.00,VWS V14.01,2013-02-28 22:26:00,
2013-02-28 15:27:00,23.5,8.1,30.59,WNW,290,7.0,25.0,51,0.00,,---,0.00,VWS V14.01,2013-02-28 22:27:00,
2013-02-28 15:28:00,23.5,8.5,30.59,WSW,255,5.0,18.0,52,0.00,,---,0.00,VWS V14.01,2013-02-28 22:28:00,
2013-02-28 15:29:00,23.5,8.9,30.60,SW,236,8.0,14.0,53,0.00,,---,0.00,VWS V14.01,2013-02-28 22:29:00,
2013-02-28 15:30:00,23.5,8.9,30.59,WSW,246,10.0,19.0,53,0.00,,---,0.00,VWS V14.01,2013-02-28 22:30:00,
2013-02-28 15:31:00,23.5,8.9,30.60,West,274,15.0,15.0,53,0.00,,---,0.00,VWS V14.01,2013-02-28 22:31:00,
2013-02-28 15:32:00,23.4,8.8,30.59,WNW,299,11.0,20.0,53,0.00,,---,0.00,VWS V14.01,2013-02-28 22:32:00,
2013-02-28 15:33:00,23.3,9.1,30.59,WNW,286,13.0,20.0,54,0.00,,---,0.00,VWS V14.01,2013-02-28 22:33:00,
2013-02-28 15:34:00,23.3,8.7,30.59,WNW,284,14.0,14.0,53,0.00,,---,0.00,VWS V14.01,2013-02-28 22:34:00,
2013-02-28 15:35:00,23.2,9.0,30.59,West,280,13.0,24.0,54,0.00,,---,0.00,VWS V14.01,2013-02-28 22:35:00,
2013-02-28 15:36:00,23.3,9.1,30.59,WNW,288,16.0,24.0,54,0.00,,---,0.00,VWS V14.01,2013-02-28 22:36:00,
2013-02-28 15:37:00,23.2,9.0,30.60,West,277,14.0,16.0,54,0.00,,---,0.00,VWS V14.01,2013-02-28 22:37:00,
2013-02-28 15:38:00,23.3,8.7,30.60,WNW,290,9.0,14.0,53,0.00,,---,0.00,VWS V14.01,2013-02-28 22:38:00,
2013-02-28 15:39:00,23.3,8.7,30.61,WNW,282,9.0,14.0,53,0.00,,---,0.00,VWS V14.01,2013-02-28 22:39:00,
2013-02-28 15:40:00,23.4,8.8,30.60,SW,227,5.0,10.0,53,0.00,,---,0.00,VWS V14.01,2013-02-28 22:40:00,
2013-02-28 15:41:00,23.4,8.8,30.61,NNW,328,9.0,10.0,53,0.00,,---,0.00,VWS V14.01,2013-02-28 22:41:00,
2013-02-28 15:42:00,23.5,8.9,30.60,SSW,200,4.0,15.0,53,0.00,,---,0.00,VWS V14.01,2013-02-28 22:42:00,
2013-02-28 15:43:00,23.6,8.6,30.60,South,190,20.0,20.0,52,0.00,,---,0.00,VWS V14.01,2013-02-28 22:43:00,
2013-02-28 15:44:00,23.6,8.6,30.61,WNW,284,11.0,27.0,52,0.00,,---,0.00,VWS V14.01,2013-02-28 22:44:00,
2013-02-28 15:45:00,23.6,8.6,30.60,West,275,15.0,21.0,52,0.00,,---,0.00,VWS V14.01,2013-02-28 22:45:00,
2013-02-28 15:46:00,23.6,8.6,30.61,WSW,250,19.0,19.0,52,0.00,,---,0.00,VWS V14.01,2013-02-28 22:46:00,
2013-02-28 15:47:00,23.4,8.8,30.61,SW,229,9.0,24.0,53,0.00,,---,0.00,VWS V14.01,2013-02-28 22:47:00,
2013-02-28 15:48:00,23.3,8.7,30.60,NW,306,16.0,19.0,53,0.00,,---,0.00,VWS V14.01,2013-02-28 22:48:00,
2013-02-28 15:49:00,23.1,8.5,30.60,NW,313,9.0,22.0,53,0.00,,---,0.00,VWS V14.01,2013-02-28 22:49:00,
2013-02-28 15:50:00,23.0,8.9,30.60,WSW,245,27.0,29.0,54,0.00,,---,0.00,VWS V14.01,2013-02-28 22:50:00,
2013-02-28 15:51:00,23.0,8.4,30.60,NW,306,25.0,25.0,53,0.00,,---,0.00,VWS V14.01,2013-02-28 22:51:00,
2013-02-28 15:52:00,22.5,8.4,30.61,West,281,16.0,29.0,54,0.00,,---,0.00,VWS V14.01,2013-02-28 22:52:00,
2013-02-28 15:53:00,22.4,8.7,30.61,WSW,243,6.0,16.0,55,0.00,,---,0.00,VWS V14.01,2013-02-28 22:53:00,
2013-02-28 15:54:00,22.2,8.5,30.62,WSW,246,14.0,14.0,55,0.00,,---,0.00,VWS V14.01,2013-02-28 22:54:00,
2013-02-28 15:55:00,22.1,8.4,30.60,SSW,213,14.0,23.0,55,0.00,,---,0.00,VWS V14.01,2013-02-28 22:55:00,
2013-02-28 15:56:00,22.2,8.5,30.62,West,278,12.0,14.0,55,0.00,,---,0.00,VWS V14.01,2013-02-28 22:56:00,
2013-02-28 15:57:00,21.8,8.1,30.60,NW,304,10.0,24.0,55,0.00,,---,0.00,VWS V14.01,2013-02-28 22:57:00,
2013-02-28 15:58:00,21.6,7.9,30.61,WNW,294,12.0,14.0,55,0.00,,---,0.00,VWS V14.01,2013-02-28 22:58:00,
2013-02-28 15:59:00,21.5,8.6,30.61,WSW,250,14.0,27.0,57,0.00,,---,0.00,VWS V14.01,2013-02-28 22:59:00,
2013-02-28 16:00:00,21.4,8.6,30.61,SW,231,26.0,28.0,57,0.00,,---,0.00,VWS V14.01,2013-02-28 23:00:00,
2013-02-28 16:01:00,21.5,8.6,30.61,NNW,342,15.0,19.0,57,0.00,,---,0.00,VWS V14.01,2013-02-28 23:01:00,
2013-02-28 16:02:00,21.0,8.2,30.60,WNW,291,12.0,24.0,57,0.00,,---,0.00,VWS V14.01,2013-02-28 23:02:00,
2013-02-28 16:03:00,20.9,8.5,30.61,WNW,294,12.0,18.0,58,0.00,,---,0.00,VWS V14.01,2013-02-28 23:03:00,
2013-02-28 16:04:00,20.7,8.6,30.60,SSW,206,20.0,22.0,59,0.00,,---,0.00,VWS V14.01,2013-02-28 23:04:00,
2013-02-28 16:05:00,20.6,8.9,30.60,West,265,10.0,20.0,60,0.00,,---,0.00,VWS V14.01,2013-02-28 23:05:00,
2013-02-28 16:06:00,20.6,8.9,30.60,West,273,19.0,20.0,60,0.00,,---,0.00,VWS V14.01,2013-02-28 23:06:00,
2013-02-28 16:07:00,20.4,9.5,30.60,WNW,289,0.0,15.0,62,0.00,,---,0.00,VWS V14.01,2013-02-28 23:07:00,
2013-02-28 16:08:00,20.3,9.7,30.61,WNW,290,8.0,11.0,63,0.00,,---,0.00,VWS V14.01,2013-02-28 23:08:00,
2013-02-28 16:09:00,20.4,9.8,30.60,NW,317,7.0,15.0,63,0.00,,---,0.00,VWS V14.01,2013-02-28 23:09:00,
2013-02-28 16:10:00,20.4,9.8,30.60,SW,235,13.0,15.0,63,0.00,,---,0.00,VWS V14.01,2013-02-28 23:10:00,
2013-02-28 16:11:00,20.4,9.8,30.60,NNW,334,15.0,15.0,63,0.00,,---,0.00,VWS V14.01,2013-02-28 23:11:00,
2013-02-28 16:12:00,20.7,9.8,30.60,WNW,296,8.0,16.0,62,0.00,,---,0.00,VWS V14.01,2013-02-28 23:12:00,
2013-02-28 16:13:00,20.8,9.5,30.60,West,277,4.0,11.0,61,0.00,,---,0.00,VWS V14.01,2013-02-28 23:13:00,
2013-02-28 16:17:00,21.1,9.8,30.60,WNW,285,12.0,18.0,61,0.00,,---,0.00,VWS V14.01,2013-02-28 23:17:00,
2013-02-28 16:18:00,21.4,9.3,30.59,West,274,23.0,26.0,59,0.00,,---,0.00,VWS V14.01,2013-02-28 23:18:00,
2013-02-28 16:19:00,21.5,9.4,30.61,WSW,243,18.0,23.0,59,0.00,,---,0.00,VWS V14.01,2013-02-28 23:19:00,
2013-02-28 16:20:00,21.6,9.5,30.61,WNW,286,10.0,21.0,59,0.00,,---,0.00,VWS V14.01,2013-02-28 23:20:00,
2013-02-28 16:21:00,21.6,9.1,30.60,WSW,258,10.0,20.0,58,0.00,,---,0.00,VWS V14.01,2013-02-28 23:21:00,
2013-02-28 16:22:00,21.6,9.5,30.61,WNW,286,10.0,21.0,59,0.00,,---,0.00,VWS V14.01,2013-02-28 23:22:00,
2013-02-28 16:23:00,21.6,9.1,30.59,NW,306,11.0,21.0,58,0.00,,---,0.00,VWS V14.01,2013-02-28 23:23:00,
2013-02-28 16:24:00,21.6,9.1,30.59,WSW,251,13.0,19.0,58,0.00,,---,0.00,VWS V14.01,2013-02-28 23:24:00,
2013-02-28 16:25:00,21.5,9.0,30.59,NW,321,10.0,14.0,58,0.00,,---,0.00,VWS V14.01,2013-02-28 23:25:00,
2013-02-28 16:26:00,21.5,9.0,30.59,WSW,248,8.0,18.0,58,0.00,,---,0.00,VWS V14.01,2013-02-28 23:26:00,
2013-02-28 16:27:00,21.5,9.0,30.59,NW,321,10.0,14.0,58,0.00,,---,0.00,VWS V14.01,2013-02-28 23:27:00,
2013-02-28 16:28:00,21.4,8.9,30.60,WNW,285,23.0,26.0,58,0.00,,---,0.00,VWS V14.01,2013-02-28 23:28:00,
2013-02-28 16:29:00,21.3,8.8,30.60,SSW,212,11.0,24.0,58,0.00,,---,0.00,VWS V14.01,2013-02-28 23:29:00,
2013-02-28 16:30:00,21.2,8.7,30.60,WNW,300,9.0,13.0,58,0.00,,---,0.00,VWS V14.01,2013-02-28 23:30:00,
2013-02-28 16:31:00,21.1,8.3,30.59,West,275,7.0,11.0,57,0.00,,---,0.00,VWS V14.01,2013-02-28 23:31:00,
2013-02-28 16:32:00,21.2,8.7,30.60,WNW,300,9.0,13.0,58,0.00,,---,0.00,VWS V14.01,2013-02-28 23:32:00,
2013-02-28 16:33:00,21.1,8.6,30.59,WNW,299,12.0,19.0,58,0.00,,---,0.00,VWS V14.01,2013-02-28 23:33:00,
2013-02-28 16:34:00,21.0,8.6,30.58,West,279,21.0,23.0,58,0.00,,---,0.00,VWS V14.01,2013-02-28 23:34:00,
2013-02-28 16:35:00,20.9,8.5,30.59,WNW,283,18.0,25.0,58,0.00,,---,0.00,VWS V14.01,2013-02-28 23:35:00,
2013-02-28 16:36:00,20.8,8.4,30.59,WNW,285,16.0,26.0,58,0.00,,---,0.00,VWS V14.01,2013-02-28 23:36:00,
2013-02-28 16:37:00,20.9,8.5,30.59,WNW,283,18.0,25.0,58,0.00,,---,0.00,VWS V14.01,2013-02-28 23:37:00,
2013-02-28 16:38:00,20.6,8.2,30.59,WNW,300,9.0,16.0,58,0.00,,---,0.00,VWS V14.01,2013-02-28 23:38:00,
2013-02-28 16:39:00,20.5,8.1,30.59,WNW,302,6.0,16.0,58,0.00,,---,0.00,VWS V14.01,2013-02-28 23:39:00,
2013-02-28 16:40:00,20.5,8.5,30.60,WNW,302,7.0,23.0,59,0.00,,---,0.00,VWS V14.01,2013-02-28 23:40:00,
2013-02-28 16:41:00,20.4,8.4,30.59,WNW,295,21.0,21.0,59,0.00,,---,0.00,VWS V14.01,2013-02-28 23:41:00,
2013-02-28 16:42:00,20.5,8.5,30.60,WNW,302,7.0,23.0,59,0.00,,---,0.00,VWS V14.01,2013-02-28 23:42:00,
2013-02-28 16:43:00,20.3,8.3,30.59,NNW,338,6.0,15.0,59,0.00,,---,0.00,VWS V14.01,2013-02-28 23:43:00,
2013-02-28 16:44:00,20.3,8.3,30.60,WNW,295,9.0,18.0,59,0.00,,---,0.00,VWS V14.01,2013-02-28 23:44:00,
2013-02-28 16:45:00,20.3,8.3,30.59,WSW,252,12.0,31.0,59,0.00,,---,0.00,VWS V14.01,2013-02-28 23:45:00,
2013-02-28 16:46:00,20.2,8.2,30.59,WNW,282,9.0,23.0,59,0.00,,---,0.00,VWS V14.01,2013-02-28 23:46:00,
2013-02-28 16:47:00,20.3,8.3,30.59,WSW,252,12.0,31.0,59,0.00,,---,0.00,VWS V14.01,2013-02-28 23:47:00,
2013-02-28 16:48:00,20.1,8.5,30.59,NW,306,12.0,29.0,60,0.00,,---,0.00,VWS V14.01,2013-02-28 23:48:00,
2013-02-28 16:49:00,20.1,8.5,30.60,WSW,238,7.0,13.0,60,0.00,,---,0.00,VWS V14.01,2013-02-28 23:49:00,
2013-02-28 16:50:00,20.1,8.5,30.59,NNW,334,10.0,18.0,60,0.00,,---,0.00,VWS V14.01,2013-02-28 23:50:00,
2013-02-28 16:51:00,20.0,8.4,30.60,WNW,284,7.0,18.0,60,0.00,,---,0.00,VWS V14.01,2013-02-28 23:51:00,
2013-02-28 16:52:00,20.1,8.5,30.59,NNW,334,10.0,18.0,60,0.00,,---,0.00,VWS V14.01,2013-02-28 23:52:00,
2013-02-28 16:53:00,20.0,8.4,30.59,West,271,12.0,19.0,60,0.00,,---,0.00,VWS V14.01,2013-02-28 23:53:00,
2013-02-28 16:54:00,20.0,8.4,30.59,SW,230,12.0,16.0,60,0.00,,---,0.00,VWS V14.01,2013-02-28 23:54:00,
2013-02-28 16:55:00,19.9,8.3,30.59,West,281,6.0,12.0,60,0.00,,---,0.00,VWS V14.01,2013-02-28 23:55:00,
2013-02-28 16:56:00,19.9,8.3,30.60,SW,223,19.0,19.0,60,0.00,,---,0.00,VWS V14.01,2013-02-28 23:56:00,
2013-02-28 16:57:00,19.9,8.3,30.59,West,281,6.0,12.0,60,0.00,,---,0.00,VWS V14.01,2013-02-28 23:57:00,
2013-02-28 16:58:00,19.9,8.6,30.59,WNW,297,4.0,15.0,61,0.00,,---,0.00,VWS V14.01,2013-02-28 23:58:00,
2013-02-28 16:59:00,19.9,8.6,30.59,WSW,254,10.0,13.0,61,0.00,,---,0.00,VWS V14.01,2013-02-28 23:59:00,
2013-02-28 17:00:00,19.8,8.5,30.59,South,189,11.0,18.0,61,0.00,,---,0.00,VWS V14.01,2013-03-01 00:00:00,
2013-02-28 17:01:00,19.7,8.4,30.59,WSW,242,22.0,23.0,61,0.00,,---,0.00,VWS V14.01,2013-03-01 00:01:00,
2013-02-28 17:02:00,19.8,8.5,30.59,South,189,11.0,18.0,61,0.00,,---,0.00,VWS V14.01,2013-03-01 00:02:00,
2013-02-28 17:03:00,19.5,9.0,30.60,West,269,9.0,13.0,63,0.00,,---,0.00,VWS V14.01,2013-03-01 00:03:00,
2013-02-28 17:04:00,19.5,9.3,30.60,NW,320,8.0,10.0,64,0.00,,---,0.00,VWS V14.01,2013-03-01 00:04:00,
2013-02-28 17:05:00,19.4,9.2,30.60,South,176,2.0,8.0,64,0.00,,---,0.00,VWS V14.01,2013-03-01 00:05:00,
2013-02-28 17:06:00,19.4,9.6,30.60,WNW,286,8.0,11.0,65,0.00,,---,0.00,VWS V14.01,2013-03-01 00:06:00,
2013-02-28 17:07:00,19.4,9.2,30.60,South,176,2.0,8.0,64,0.00,,---,0.00,VWS V14.01,2013-03-01 00:07:00,
2013-02-28 17:08:00,19.3,9.5,30.60,WSW,255,10.0,16.0,65,0.00,,---,0.00,VWS V14.01,2013-03-01 00:08:00,
2013-02-28 17:09:00,19.3,9.8,30.60,WNW,291,9.0,16.0,66,0.00,,---,0.00,VWS V14.01,2013-03-01 00:09:00,
2013-02-28 17:10:00,19.1,9.6,30.60,WNW,285,5.0,15.0,66,0.00,,---,0.00,VWS V14.01,2013-03-01 00:10:00,
2013-02-28 17:11:00,19.1,9.6,30.60,WSW,250,8.0,10.0,66,0.00,,---,0.00,VWS V14.01,2013-03-01 00:11:00,
2013-02-28 17:12:00,19.1,9.6,30.60,WNW,285,5.0,15.0,66,0.00,,---,0.00,VWS V14.01,2013-03-01 00:12:00,
2013-02-28 17:13:00,19.0,9.9,30.60,WNW,297,12.0,12.0,67,0.00,,---,0.00,VWS V14.01,2013-03-01 00:13:00,
2013-02-28 17:14:00,18.9,9.8,30.60,West,268,8.0,13.0,67,0.00,,---,0.00,VWS V14.01,2013-03-01 00:14:00,
2013-02-28 17:15:00,18.8,10.0,30.60,West,277,16.0,22.0,68,0.00,,---,0.00,VWS V14.01,2013-03-01 00:15:00,
2013-02-28 17:16:00,18.7,9.9,30.61,West,275,7.0,16.0,68,0.00,,---,0.00,VWS V14.01,2013-03-01 00:16:00,
2013-02-28 17:17:00,18.8,10.0,30.60,West,277,16.0,22.0,68,0.00,,---,0.00,VWS V14.01,2013-03-01 00:17:00,
2013-02-28 17:18:00,18.6,10.1,30.61,NNW,340,8.0,14.0,69,0.00,,---,0.00,VWS V14.01,2013-03-01 00:18:00,
2013-02-28 17:19:00,18.5,10.0,30.61,WNW,289,5.0,12.0,69,0.00,,---,0.00,VWS V14.01,2013-03-01 00:19:00,
2013-02-28 17:20:00,18.5,10.0,30.61,NW,325,11.0,12.0,69,0.00,,---,0.00,VWS V14.01,2013-03-01 00:20:00,
2013-02-28 17:21:00,18.5,10.0,30.61,NW,308,4.0,13.0,69,0.00,,---,0.00,VWS V14.01,2013-03-01 00:21:00,
2013-02-28 17:22:00,18.5,10.0,30.61,NW,325,11.0,12.0,69,0.00,,---,0.00,VWS V14.01,2013-03-01 00:22:00,
2013-02-28 17:23:00,18.4,10.3,30.61,West,269,7.0,7.0,70,0.00,,---,0.00,VWS V14.01,2013-03-01 00:23:00,
2013-02-28 17:24:00,18.4,10.3,30.61,West,272,13.0,14.0,70,0.00,,---,0.00,VWS V14.01,2013-03-01 00:24:00,
2013-02-28 17:25:00,18.4,10.3,30.61,SSW,207,11.0,13.0,70,0.00,,---,0.00,VWS V14.01,2013-03-01 00:25:00,
2013-02-28 17:26:00,18.3,10.2,30.60,SSW,202,12.0,19.0,70,0.00,,---,0.00,VWS V14.01,2013-03-01 00:26:00,
2013-02-28 17:27:00,18.4,10.3,30.61,SSW,207,11.0,13.0,70,0.00,,---,0.00,VWS V14.01,2013-03-01 00:27:00,
2013-02-28 17:28:00,18.2,10.1,30.61,WSW,252,2.0,14.0,70,0.00,,---,0.00,VWS V14.01,2013-03-01 00:28:00,
2013-02-28 17:29:00,18.2,10.1,30.60,SW,231,29.0,29.0,70,0.00,,---,0.00,VWS V14.01,2013-03-01 00:29:00,
2013-02-28 17:30:00,18.1,10.0,30.60,SW,220,13.0,29.0,70,0.00,,---,0.00,VWS V14.01,2013-03-01 00:30:00,
2013-02-28 17:31:00,18.1,10.0,30.60,SW,220,13.0,29.0,70,0.00,,---,0.00,VWS V14.01,2013-03-01 00:31:00,
2013-02-28 17:32:00,18.0,9.6,30.60,WNW,297,14.0,18.0,69,0.00,,---,0.00,VWS V14.01,2013-03-01 00:32:00,
2013-02-28 17:33:00,18.0,9.6,30.61,WSW,240,18.0,18.0,69,0.00,,---,0.00,VWS V14.01,2013-03-01 00:33:00,
2013-02-28 17:34:00,18.0,9.6,30.60,WNW,283,25.0,27.0,69,0.00,,---,0.00,VWS V14.01,2013-03-01 00:34:00,
2013-02-28 17:35:00,18.0,8.9,30.61,West,271,12.0,25.0,67,0.00,,---,0.00,VWS V14.01,2013-03-01 00:35:00,
2013-02-28 17:36:00,18.0,8.9,30.60,West,276,10.0,25.0,67,0.00,,---,0.00,VWS V14.01,2013-03-01 00:36:00,
2013-02-28 17:37:00,18.0,8.9,30.61,WSW,258,12.0,14.0,67,0.00,,---,0.00,VWS V14.01,2013-03-01 00:37:00,
2013-02-28 17:38:00,18.0,8.9,30.60,WSW,254,12.0,14.0,67,0.00,,---,0.00,VWS V14.01,2013-03-01 00:38:00,
2013-02-28 17:39:00,18.0,8.9,30.61,WSW,240,23.0,24.0,67,0.00,,---,0.00,VWS V14.01,2013-03-01 00:39:00,
2013-02-28 17:40:00,18.0,8.9,30.60,WNW,291,9.0,24.0,67,0.00,,---,0.00,VWS V14.01,2013-03-01 00:40:00,
2013-02-28 17:41:00,18.0,8.9,30.60,WNW,291,9.0,24.0,67,0.00,,---,0.00,VWS V14.01,2013-03-01 00:41:00,
2013-02-28 17:42:00,18.0,9.2,30.61,WNW,298,27.0,27.0,68,0.00,,---,0.00,VWS V14.01,2013-03-01 00:42:00,
2013-02-28 17:43:00,18.0,9.2,30.60,West,265,15.0,28.0,68,0.00,,---,0.00,VWS V14.01,2013-03-01 00:43:00,
2013-02-28 17:44:00,18.0,8.9,30.60,WSW,249,11.0,28.0,67,0.00,,---,0.00,VWS V14.01,2013-03-01 00:44:00,
2013-02-28 17:45:00,18.0,8.9,30.60,WSW,241,13.0,24.0,67,0.00,,---,0.00,VWS V14.01,2013-03-01 00:45:00,
2013-02-28 17:46:00,18.0,8.9,30.61,NNW,346,12.0,24.0,67,0.00,,---,0.00,VWS V14.01,2013-03-01 00:46:00,
2013-02-28 17:47:00,18.0,8.9,30.60,WSW,241,13.0,24.0,67,0.00,,---,0.00,VWS V14.01,2013-03-01 00:47:00,
2013-02-28 17:48:00,18.0,8.9,30.60,SSE,156,7.0,18.0,67,0.00,,---,0.00,VWS V14.01,2013-03-01 00:48:00,
2013-02-28 17:49:00,18.0,8.9,30.60,West,263,16.0,22.0,67,0.00,,---,0.00,VWS V14.01,2013-03-01 00:49:00,
2013-02-28 17:50:00,18.0,8.9,30.59,NW,308,14.0,18.0,67,0.00,,---,0.00,VWS V14.01,2013-03-01 00:50:00,
2013-02-28 17:51:00,18.0,8.6,30.60,WNW,297,22.0,26.0,66,0.00,,---,0.00,VWS V14.01,2013-03-01 00:51:00,
2013-02-28 17:52:00,18.0,8.9,30.59,NW,308,14.0,18.0,67,0.00,,---,0.00,VWS V14.01,2013-03-01 00:52:00,
2013-02-28 17:53:00,18.0,8.2,30.61,West,261,22.0,23.0,65,0.00,,---,0.00,VWS V14.01,2013-03-01 00:53:00,
2013-02-28 17:54:00,18.0,8.2,30.61,NW,322,10.0,22.0,65,0.00,,---,0.00,VWS V14.01,2013-03-01 00:54:00,
2013-02-28 17:55:00,18.0,8.2,30.61,West,274,10.0,13.0,65,0.00,,---,0.00,VWS V14.01,2013-03-01 00:55:00,
2013-02-28 17:56:00,18.0,8.6,30.60,NW,306,27.0,27.0,66,0.00,,---,0.00,VWS V14.01,2013-03-01 00:56:00,
2013-02-28 17:57:00,18.0,8.2,30.61,West,274,10.0,13.0,65,0.00,,---,0.00,VWS V14.01,2013-03-01 00:57:00,
2013-02-28 17:58:00,18.0,8.2,30.60,WSW,238,19.0,31.0,65,0.00,,---,0.00,VWS V14.01,2013-03-01 00:58:00,
2013-02-28 17:59:00,18.1,8.0,30.60,West,279,9.0,30.0,64,0.00,,---,0.00,VWS V14.01,2013-03-01 00:59:00,
2013-02-28 18:00:00,18.1,8.0,30.60,WNW,302,12.0,26.0,64,0.00,,---,0.00,VWS V14.01,2013-03-01 01:00:00,
2013-02-28 18:01:00,18.1,8.0,30.61,SW,214,11.0,16.0,64,0.00,,---,0.00,VWS V14.01,2013-03-01 01:01:00,
2013-02-28 18:02:00,18.1,8.0,30.60,WNW,302,12.0,26.0,64,0.00,,---,0.00,VWS V14.01,2013-03-01 01:02:00,
2013-02-28 18:03:00,18.1,8.3,30.61,NW,306,7.0,23.0,65,0.00,,---,0.00,VWS V14.01,2013-03-01 01:03:00,
2013-02-28 18:04:00,18.0,8.2,30.61,West,259,16.0,20.0,65,0.00,,---,0.00,VWS V14.01,2013-03-01 01:04:00,
2013-02-28 18:05:00,18.0,8.2,30.61,SSW,197,3.0,12.0,65,0.00,,---,0.00,VWS V14.01,2013-03-01 01:05:00,
2013-02-28 18:06:00,18.1,8.3,30.61,SSW,197,2.0,12.0,65,0.00,,---,0.00,VWS V14.01,2013-03-01 01:06:00,
2013-02-28 18:07:00,18.0,8.2,30.61,West,281,9.0,12.0,65,0.00,,---,0.00,VWS V14.01,2013-03-01 01:07:00,
2013-02-28 18:08:00,18.0,8.2,30.61,SW,228,6.0,16.0,65,0.00,,---,0.00,VWS V14.01,2013-03-01 01:08:00,
2013-02-28 18:09:00,18.0,8.2,30.61,West,269,7.0,14.0,65,0.00,,---,0.00,VWS V14.01,2013-03-01 01:09:00,
2013-02-28 18:10:00,18.0,8.2,30.61,West,279,8.0,20.0,65,0.00,,---,0.00,VWS V14.01,2013-03-01 01:10:00,
2013-02-28 18:11:00,18.0,8.2,30.61,West,279,10.0,20.0,65,0.00,,---,0.00,VWS V14.01,2013-03-01 01:11:00,
2013-02-28 18:12:00,17.9,8.1,30.61,SW,234,11.0,20.0,65,0.00,,---,0.00,VWS V14.01,2013-03-01 01:12:00,
2013-02-28 18:13:00,17.9,8.5,30.61,WNW,296,12.0,20.0,66,0.00,,---,0.00,VWS V14.01,2013-03-01 01:13:00,
2013-02-28 18:14:00,17.9,8.5,30.61,West,279,7.0,27.0,66,0.00,,---,0.00,VWS V14.01,2013-03-01 01:14:00,
2013-02-28 18:15:00,17.9,8.5,30.61,WSW,256,26.0,26.0,66,0.00,,---,0.00,VWS V14.01,2013-03-01 01:15:00,
2013-02-28 18:16:00,17.9,8.5,30.61,WSW,257,16.0,26.0,66,0.00,,---,0.00,VWS V14.01,2013-03-01 01:16:00,
2013-02-28 18:17:00,17.9,8.5,30.61,WSW,256,26.0,26.0,66,0.00,,---,0.00,VWS V14.01,2013-03-01 01:17:00,
2013-02-28 18:18:00,17.9,8.5,30.60,WSW,243,12.0,27.0,66,0.00,,---,0.00,VWS V14.01,2013-03-01 01:18:00,
2013-02-28 18:19:00,17.9,8.8,30.61,West,259,8.0,20.0,67,0.00,,---,0.00,VWS V14.01,2013-03-01 01:19:00,
2013-02-28 18:20:00,17.9,8.8,30.61,WSW,241,14.0,43.0,67,0.00,,---,0.00,VWS V14.01,2013-03-01 01:20:00,
2013-02-28 18:21:00,17.9,8.8,30.61,WSW,240,6.0,22.0,67,0.00,,---,0.00,VWS V14.01,2013-03-01 01:21:00,
2013-02-28 18:22:00,17.9,8.8,30.61,WSW,241,14.0,43.0,67,0.00,,---,0.00,VWS V14.01,2013-03-01 01:22:00,
2013-02-28 18:23:00,17.9,8.8,30.60,SW,226,12.0,34.0,67,0.00,,---,0.00,VWS V14.01,2013-03-01 01:23:00,
2013-02-28 18:24:00,18.0,8.9,30.60,West,279,21.0,30.0,67,0.00,,---,0.00,VWS V14.01,2013-03-01 01:24:00,
2013-02-28 18:25:00,18.0,8.9,30.60,SW,236,18.0,33.0,67,0.00,,---,0.00,VWS V14.01,2013-03-01 01:25:00,
2013-02-28 18:26:00,18.0,8.9,30.61,West,264,12.0,25.0,67,0.00,,---,0.00,VWS V14.01,2013-03-01 01:26:00,
2013-02-28 18:27:00,18.0,8.9,30.60,SW,236,18.0,33.0,67,0.00,,---,0.00,VWS V14.01,2013-03-01 01:27:00,
2013-02-28 18:28:00,17.9,9.1,30.60,WSW,246,23.0,33.0,68,0.00,,---,0.00,VWS V14.01,2013-03-01 01:28:00,
2013-02-28 18:29:00,17.9,9.1,30.60,SW,224,18.0,30.0,68,0.00,,---,0.00,VWS V14.01,2013-03-01 01:29:00,
2013-02-28 18:30:00,17.9,9.1,30.60,SW,227,25.0,25.0,68,0.00,,---,0.00,VWS V14.01,2013-03-01 01:30:00,
2013-02-28 18:31:00,17.9,9.5,30.60,WSW,256,7.0,28.0,69,0.00,,---,0.00,VWS V14.01,2013-03-01 01:31:00,
2013-02-28 18:32:00,17.9,9.1,30.60,SW,227,25.0,25.0,68,0.00,,---,0.00,VWS V14.01,2013-03-01 01:32:00,
2013-02-28 18:33:00,17.8,9.4,30.60,SSW,196,10.0,18.0,69,0.00,,---,0.00,VWS V14.01,2013-03-01 01:33:00,
2013-02-28 18:34:00,17.8,9.7,30.60,WSW,250,10.0,11.0,70,0.00,,---,0.00,VWS V14.01,2013-03-01 01:34:00,
2013-02-28 18:35:00,17.7,9.6,30.60,West,262,18.0,31.0,70,0.00,,---,0.00,VWS V14.01,2013-03-01 01:35:00,
2013-02-28 18:36:00,17.7,9.3,30.59,SW,227,25.0,28.0,69,0.00,,---,0.00,VWS V14.01,2013-03-01 01:36:00,
2013-02-28 18:37:00,17.7,9.6,30.60,West,262,18.0,31.0,70,0.00,,---,0.00,VWS V14.01,2013-03-01 01:37:00,
2013-02-28 18:38:00,17.7,9.3,30.60,WSW,241,12.0,28.0,69,0.00,,---,0.00,VWS V14.01,2013-03-01 01:38:00,
2013-02-28 18:39:00,17.7,9.3,30.60,WSW,256,13.0,33.0,69,0.00,,---,0.00,VWS V14.01,2013-03-01 01:39:00,
2013-02-28 18:40:00,17.7,8.9,30.59,WSW,245,27.0,31.0,68,0.00,,---,0.00,VWS V14.01,2013-03-01 01:40:00,
2013-02-28 18:41:00,17.7,8.9,30.59,WSW,245,27.0,31.0,68,0.00,,---,0.00,VWS V14.01,2013-03-01 01:41:00,
2013-02-28 18:42:00,17.8,8.7,30.60,SW,223,23.0,23.0,67,0.00,,---,0.00,VWS V14.01,2013-03-01 01:42:00,
2013-02-28 18:43:00,17.9,8.5,30.60,SW,217,12.0,30.0,66,0.00,,---,0.00,VWS V14.01,2013-03-01 01:43:00,
2013-02-28 18:44:00,17.9,8.8,30.59,West,259,23.0,39.0,67,0.00,,---,0.00,VWS V14.01,2013-03-01 01:44:00,
2013-02-28 18:45:00,18.0,8.6,30.60,SW,229,13.0,33.0,66,0.00,,---,0.00,VWS V14.01,2013-03-01 01:45:00,
2013-02-28 18:46:00,18.0,8.9,30.60,SW,218,24.0,37.0,67,0.00,,---,0.00,VWS V14.01,2013-03-01 01:46:00,
2013-02-28 18:47:00,18.0,8.6,30.60,SW,229,13.0,33.0,66,0.00,,---,0.00,VWS V14.01,2013-03-01 01:47:00,
2013-02-28 18:48:00,18.1,8.7,30.60,WSW,242,20.0,25.0,66,0.00,,---,0.00,VWS V14.01,2013-03-01 01:48:00,
2013-02-28 18:49:00,18.1,9.0,30.60,WSW,248,35.0,35.0,67,0.00,,---,0.00,VWS V14.01,2013-03-01 01:49:00,
2013-02-28 18:50:00,18.1,9.0,30.60,WSW,250,13.0,35.0,67,0.00,,---,0.00,VWS V14.01,2013-03-01 01:50:00,
2013-02-28 18:51:00,18.1,9.0,30.60,WSW,256,24.0,26.0,67,0.00,,---,0.00,VWS V14.01,2013-03-01 01:51:00,
2013-02-28 18:52:00,18.1,9.0,30.60,WSW,251,13.0,13.0,67,0.00,,---,0.00,VWS V14.01,2013-03-01 01:52:00,
2013-02-28 18:53:00,18.1,9.3,30.59,South,191,30.0,30.0,68,0.00,,---,0.00,VWS V14.01,2013-03-01 01:53:00,
2013-02-28 18:54:00,18.1,9.3,30.60,WSW,241,28.0,43.0,68,0.00,,---,0.00,VWS V14.01,2013-03-01 01:54:00,
2013-02-28 18:55:00,18.1,9.3,30.60,WSW,242,13.0,28.0,68,0.00,,---,0.00,VWS V14.01,2013-03-01 01:55:00,
2013-02-28 18:56:00,18.1,9.3,30.60,WSW,238,21.0,26.0,68,0.00,,---,0.00,VWS V14.01,2013-03-01 01:56:00,
2013-02-28 18:57:00,18.1,9.3,30.60,SSW,207,11.0,13.0,68,0.00,,---,0.00,VWS V14.01,2013-03-01 01:57:00,
2013-02-28 18:58:00,18.0,9.6,30.59,WNW,299,11.0,28.0,69,0.00,,---,0.00,VWS V14.01,2013-03-01 01:58:00,
2013-02-28 18:59:00,17.9,9.5,30.59,SSW,202,7.0,21.0,69,0.00,,---,0.00,VWS V14.01,2013-03-01 01:59:00,
2013-02-28 19:00:00,17.9,9.8,30.61,SW,227,24.0,33.0,70,0.00,,---,0.00,VWS V14.01,2013-03-01 02:00:00,
2013-02-28 19:01:00,17.8,10.0,30.60,WSW,239,39.0,39.0,71,0.00,,---,0.00,VWS V14.01,2013-03-01 02:01:00,
2013-02-28 19:02:00,17.9,9.8,30.60,West,273,36.0,36.0,70,0.00,,---,0.00,VWS V14.01,2013-03-01 02:02:00,
2013-02-28 19:03:00,17.7,9.9,30.60,SE,143,22.0,28.0,71,0.00,,---,0.00,VWS V14.01,2013-03-01 02:03:00,
2013-02-28 19:04:00,17.7,9.9,30.60,SSW,213,13.0,27.0,71,0.00,,---,0.00,VWS V14.01,2013-03-01 02:04:00,
2013-02-28 19:05:00,17.6,9.8,30.60,WNW,302,8.0,28.0,71,0.00,,---,0.00,VWS V14.01,2013-03-01 02:05:00,
2013-02-28 19:06:00,17.6,9.8,30.60,SSW,193,19.0,30.0,71,0.00,,---,0.00,VWS V14.01,2013-03-01 02:06:00,
2013-02-28 19:07:00,17.6,10.1,30.60,WSW,248,15.0,15.0,72,0.00,,---,0.00,VWS V14.01,2013-03-01 02:07:00,
2013-02-28 19:08:00,17.6,9.8,30.60,WSW,237,24.0,31.0,71,0.00,,---,0.00,VWS V14.01,2013-03-01 02:08:00,
2013-02-28 19:09:00,17.6,9.8,30.60,NW,309,15.0,25.0,71,0.00,,---,0.00,VWS V14.01,2013-03-01 02:09:00,
2013-02-28 19:10:00,17.5,9.7,30.60,WSW,246,12.0,27.0,71,0.00,,---,0.00,VWS V14.01,2013-03-01 02:10:00,
2013-02-28 19:11:00,17.5,9.7,30.61,West,263,8.0,31.0,71,0.00,,---,0.00,VWS V14.01,2013-03-01 02:11:00,
2013-02-28 19:12:00,17.6,9.8,30.61,WSW,257,10.0,14.0,71,0.00,,---,0.00,VWS V14.01,2013-03-01 02:12:00,
2013-02-28 19:13:00,17.5,10.0,30.61,WNW,292,13.0,22.0,72,0.00,,---,0.00,VWS V14.01,2013-03-01 02:13:00,
2013-02-28 19:14:00,17.5,10.0,30.60,West,260,15.0,28.0,72,0.00,,---,0.00,VWS V14.01,2013-03-01 02:14:00,
2013-02-28 19:15:00,17.5,10.0,30.61,West,278,19.0,23.0,72,0.00,,---,0.00,VWS V14.01,2013-03-01 02:15:00,
2013-02-28 19:16:00,17.5,10.0,30.61,SW,225,8.0,30.0,72,0.00,,---,0.00,VWS V14.01,2013-03-01 02:16:00,
2013-02-28 19:17:00,17.5,10.0,30.61,West,265,18.0,30.0,72,0.00,,---,0.00,VWS V14.01,2013-03-01 02:17:00,
2013-02-28 19:18:00,17.5,10.3,30.62,WSW,246,10.0,24.0,73,0.00,,---,0.00,VWS V14.01,2013-03-01 02:18:00,
2013-02-28 19:19:00,17.4,10.2,30.61,South,191,16.0,29.0,73,0.00,,---,0.00,VWS V14.01,2013-03-01 02:19:00,
2013-02-28 19:20:00,17.4,10.2,30.61,SW,236,23.0,23.0,73,0.00,,---,0.00,VWS V14.01,2013-03-01 02:20:00,
2013-02-28 19:21:00,17.4,10.2,30.60,WSW,251,10.0,23.0,73,0.00,,---,0.00,VWS V14.01,2013-03-01 02:21:00,
2013-02-28 19:22:00,17.4,10.2,30.60,WNW,294,6.0,23.0,73,0.00,,---,0.00,VWS V14.01,2013-03-01 02:22:00,
2013-02-28 19:23:00,17.3,10.4,30.61,West,259,20.0,21.0,74,0.00,,---,0.00,VWS V14.01,2013-03-01 02:23:00,
2013-02-28 19:24:00,17.3,10.4,30.61,West,263,8.0,20.0,74,0.00,,---,0.00,VWS V14.01,2013-03-01 02:24:00,
2013-02-28 19:25:00,17.3,10.8,30.61,WNW,286,10.0,25.0,75,0.00,,---,0.00,VWS V14.01,2013-03-01 02:25:00,
2013-02-28 19:26:00,17.2,10.6,30.61,SW,221,23.0,24.0,75,0.00,,---,0.00,VWS V14.01,2013-03-01 02:26:00,
2013-02-28 19:27:00,17.3,10.8,30.61,WSW,255,15.0,21.0,75,0.00,,---,0.00,VWS V14.01,2013-03-01 02:27:00,
2013-02-28 19:28:00,17.1,10.6,30.61,West,273,12.0,22.0,75,0.00,,---,0.00,VWS V14.01,2013-03-01 02:28:00,
2013-02-28 19:29:00,17.1,10.6,30.61,SW,220,24.0,24.0,75,0.00,,---,0.00,VWS V14.01,2013-03-01 02:29:00,
2013-02-28 19:30:00,17.1,10.6,30.60,SW,236,31.0,31.0,75,0.00,,---,0.00,VWS V14.01,2013-03-01 02:30:00,
2013-02-28 19:31:00,17.1,10.9,30.60,SW,236,18.0,31.0,76,0.00,,---,0.00,VWS V14.01,2013-03-01 02:31:00,
2013-02-28 19:32:00,17.1,10.6,30.60,SW,224,11.0,31.0,75,0.00,,---,0.00,VWS V14.01,2013-03-01 02:32:00,
2013-02-28 19:33:00,17.0,10.8,30.61,WNW,300,13.0,24.0,76,0.00,,---,0.00,VWS V14.01,2013-03-01 02:33:00,
2013-02-28 19:34:00,17.0,10.8,30.61,West,281,21.0,22.0,76,0.00,,---,0.00,VWS V14.01,2013-03-01 02:34:00,
2013-02-28 19:35:00,17.0,10.8,30.61,WSW,248,12.0,27.0,76,0.00,,---,0.00,VWS V14.01,2013-03-01 02:35:00,
2013-02-28 19:36:00,17.0,10.8,30.62,WSW,240,15.0,16.0,76,0.00,,---,0.00,VWS V14.01,2013-03-01 02:36:00,
2013-02-28 19:37:00,17.0,10.8,30.61,WSW,240,15.0,16.0,76,0.00,,---,0.00,VWS V14.01,2013-03-01 02:37:00,
2013-02-28 19:38:00,16.9,10.7,30.61,WSW,239,11.0,29.0,76,0.00,,---,0.00,VWS V14.01,2013-03-01 02:38:00,
2013-02-28 19:39:00,16.8,10.9,30.61,SSW,195,13.0,14.0,77,0.00,,---,0.00,VWS V14.01,2013-03-01 02:39:00,
2013-02-28 19:40:00,16.8,10.9,30.61,NW,304,5.0,25.0,77,0.00,,---,0.00,VWS V14.01,2013-03-01 02:40:00,
2013-02-28 19:41:00,16.8,10.9,30.61,SW,229,7.0,27.0,77,0.00,,---,0.00,VWS V14.01,2013-03-01 02:41:00,
2013-02-28 19:42:00,16.8,10.9,30.61,West,273,12.0,27.0,77,0.00,,---,0.00,VWS V14.01,2013-03-01 02:42:00,
2013-02-28 19:43:00,16.8,10.6,30.61,West,260,14.0,30.0,76,0.00,,---,0.00,VWS V14.01,2013-03-01 02:43:00,
2013-02-28 19:44:00,16.8,10.6,30.61,SW,223,13.0,25.0,76,0.00,,---,0.00,VWS V14.01,2013-03-01 02:44:00,
2013-02-28 19:45:00,16.7,10.5,30.60,West,261,16.0,26.0,76,0.00,,---,0.00,VWS V14.01,2013-03-01 02:45:00,
2013-02-28 19:46:00,16.8,10.3,30.60,WSW,253,11.0,31.0,75,0.00,,---,0.00,VWS V14.01,2013-03-01 02:46:00,
2013-02-28 19:47:00,16.8,10.3,30.60,West,267,15.0,20.0,75,0.00,,---,0.00,VWS V14.01,2013-03-01 02:47:00,
2013-02-28 19:48:00,16.9,10.4,30.61,SW,234,18.0,27.0,75,0.00,,---,0.00,VWS V14.01,2013-03-01 02:48:00,
2013-02-28 19:49:00,16.9,10.4,30.60,WSW,257,13.0,35.0,75,0.00,,---,0.00,VWS V14.01,2013-03-01 02:49:00,
2013-02-28 19:50:00,16.9,10.4,30.61,West,267,19.0,26.0,75,0.00,,---,0.00,VWS V14.01,2013-03-01 02:50:00,
2013-02-28 19:51:00,16.9,10.4,30.61,WNW,288,11.0,37.0,75,0.00,,---,0.00,VWS V14.01,2013-03-01 02:51:00,
2013-02-28 19:52:00,16.9,10.4,30.61,SW,233,31.0,37.0,75,0.00,,---,0.00,VWS V14.01,2013-03-01 02:52:00,
2013-02-28 19:53:00,17.1,10.3,30.61,SW,234,12.0,28.0,74,0.00,,---,0.00,VWS V14.01,2013-03-01 02:53:00,
2013-02-28 19:54:00,17.1,10.3,30.61,SW,223,22.0,26.0,74,0.00,,---,0.00,VWS V14.01,2013-03-01 02:54:00,
2013-02-28 19:55:00,17.1,10.3,30.61,West,274,18.0,22.0,74,0.00,,---,0.00,VWS V14.01,2013-03-01 02:55:00,
2013-02-28 19:56:00,17.1,10.3,30.61,West,279,5.0,30.0,74,0.00,,---,0.00,VWS V14.01,2013-03-01 02:56:00,
2013-02-28 19:57:00,17.1,10.3,30.61,SW,234,13.0,30.0,74,0.00,,---,0.00,VWS V14.01,2013-03-01 02:57:00,
2013-02-28 19:58:00,17.1,10.3,30.61,WSW,237,14.0,25.0,74,0.00,,---,0.00,VWS V14.01,2013-03-01 02:58:00,
2013-02-28 20:06:00,17.1,9.9,30.60,SW,232,24.0,24.0,73,0.00,,---,0.00,VWS V14.01,2013-03-01 03:06:00,
2013-02-28 20:07:00,17.1,9.9,30.60,SSW,206,16.0,29.0,73,0.00,,---,0.00,VWS V14.01,2013-03-01 03:07:00,
2013-02-28 20:08:00,17.1,9.9,30.61,WSW,248,13.0,36.0,73,0.00,,---,0.00,VWS V14.01,2013-03-01 03:08:00,
2013-02-28 20:13:00,17.3,9.8,30.61,West,268,22.0,26.0,72,0.00,,---,0.00,VWS V14.01,2013-03-01 03:13:00,
2013-02-28 20:18:00,17.4,9.9,30.61,SW,226,9.0,11.0,72,0.00,,---,0.00,VWS V14.01,2013-03-01 03:18:00,
2013-02-28 20:23:00,17.6,9.5,30.61,WSW,253,7.0,26.0,70,0.00,,---,0.00,VWS V14.01,2013-03-01 03:23:00,
2013-02-28 20:28:00,17.6,9.8,30.62,SSW,196,19.0,23.0,71,0.00,,---,0.00,VWS V14.01,2013-03-01 03:28:00,
2013-02-28 20:33:00,17.9,9.5,30.62,West,277,5.0,18.0,69,0.00,,---,0.00,VWS V14.01,2013-03-01 03:33:00,
2013-02-28 20:38:00,18.1,9.7,30.63,SSW,196,11.0,20.0,69,0.00,,---,0.00,VWS V14.01,2013-03-01 03:38:00,
2013-02-28 20:43:00,18.3,9.5,30.63,WSW,240,10.0,21.0,68,0.00,,---,0.00,VWS V14.01,2013-03-01 03:43:00,
2013-02-28 20:48:00,18.4,9.3,30.62,WSW,248,16.0,22.0,67,0.00,,---,0.00,VWS V14.01,2013-03-01 03:48:00,
2013-02-28 20:53:00,18.4,9.6,30.62,SW,216,12.0,23.0,68,0.00,,---,0.00,VWS V14.01,2013-03-01 03:53:00,
2013-02-28 20:58:00,18.4,9.3,30.62,SSW,212,16.0,37.0,67,0.00,,---,0.00,VWS V14.01,2013-03-01 03:58:00,
2013-02-28 21:03:00,18.4,9.9,30.62,South,180,3.0,30.0,69,0.00,,---,0.00,VWS V14.01,2013-03-01 04:03:00,
2013-02-28 21:08:00,18.1,10.3,30.62,WSW,247,16.0,21.0,71,0.00,,---,0.00,VWS V14.01,2013-03-01 04:08:00,
2013-02-28 21:13:00,17.9,10.1,30.62,West,279,14.0,21.0,71,0.00,,---,0.00,VWS V14.01,2013-03-01 04:13:00,
2013-02-28 21:18:00,18.0,9.6,30.62,WSW,257,16.0,28.0,69,0.00,,---,0.00,VWS V14.01,2013-03-01 04:18:00,
2013-02-28 21:23:00,18.3,9.5,30.62,SSW,210,23.0,44.0,68,0.00,,---,0.00,VWS V14.01,2013-03-01 04:23:00,
2013-02-28 21:28:00,18.4,9.6,30.62,WSW,242,8.0,21.0,68,0.00,,---,0.00,VWS V14.01,2013-03-01 04:28:00,
2013-02-28 21:33:00,18.5,9.7,30.63,SW,220,20.0,23.0,68,0.00,,---,0.00,VWS V14.01,2013-03-01 04:33:00,
2013-02-28 21:39:00,18.7,9.6,30.63,SW,227,19.0,29.0,67,0.00,,---,0.00,VWS V14.01,2013-03-01 04:39:00,
2013-02-28 21:44:00,18.7,9.6,30.63,SW,218,16.0,18.0,67,0.00,,---,0.00,VWS V14.01,2013-03-01 04:44:00,
2013-02-28 21:49:00,18.8,9.3,30.62,WSW,258,11.0,35.0,66,0.00,,---,0.00,VWS V14.01,2013-03-01 04:49:00,
2013-02-28 21:54:00,18.8,9.7,30.63,West,261,7.0,24.0,67,0.00,,---,0.00,VWS V14.01,2013-03-01 04:54:00,
2013-02-28 21:58:00,18.8,9.7,30.63,WSW,246,18.0,20.0,67,0.00,,---,0.00,VWS V14.01,2013-03-01 04:58:00,
2013-02-28 22:00:00,18.8,9.7,30.63,WNW,284,10.0,10.0,67,0.00,,---,0.00,VWS V14.01,2013-03-01 05:00:00,
2013-02-28 22:01:00,18.8,9.7,30.63,SW,226,12.0,25.0,67,0.00,,---,0.00,VWS V14.01,2013-03-01 05:01:00,
2013-02-28 22:06:00,18.9,9.8,30.63,SW,224,12.0,21.0,67,0.00,,---,0.00,VWS V14.01,2013-03-01 05:06:00,
2013-02-28 22:11:00,18.9,9.8,30.62,SW,215,15.0,22.0,67,0.00,,---,0.00,VWS V14.01,2013-03-01 05:11:00,
2013-02-28 22:16:00,18.9,9.8,30.63,West,279,8.0,16.0,67,0.00,,---,0.00,VWS V14.01,2013-03-01 05:16:00,
2013-02-28 22:21:00,18.8,10.0,30.63,SSW,196,12.0,14.0,68,0.00,,---,0.00,VWS V14.01,2013-03-01 05:21:00,
2013-02-28 22:26:00,18.8,9.7,30.63,SSW,205,8.0,15.0,67,0.00,,---,0.00,VWS V14.01,2013-03-01 05:26:00,
2013-02-28 22:31:00,18.8,10.0,30.64,NW,319,4.0,13.0,68,0.00,,---,0.00,VWS V14.01,2013-03-01 05:31:00,
2013-02-28 22:36:00,18.9,9.8,30.64,WNW,298,9.0,11.0,67,0.00,,---,0.00,VWS V14.01,2013-03-01 05:36:00,
2013-02-28 22:41:00,18.9,10.1,30.64,West,269,3.0,6.0,68,0.00,,---,0.00,VWS V14.01,2013-03-01 05:41:00,
2013-02-28 22:46:00,18.9,10.1,30.65,WNW,292,0.0,2.0,68,0.00,,---,0.00,VWS V14.01,2013-03-01 05:46:00,
2013-02-28 22:51:00,18.9,10.1,30.65,West,261,10.0,10.0,68,0.00,,---,0.00,VWS V14.01,2013-03-01 05:51:00,
2013-02-28 22:57:00,18.9,10.1,30.66,WNW,283,8.0,8.0,68,0.00,,---,0.00,VWS V14.01,2013-03-01 05:57:00,
2013-02-28 23:02:00,18.9,10.1,30.66,NNW,346,9.0,21.0,68,0.00,,---,0.00,VWS V14.01,2013-03-01 06:02:00,
2013-02-28 23:07:00,18.9,10.4,30.66,WSW,243,19.0,19.0,69,0.00,,---,0.00,VWS V14.01,2013-03-01 06:07:00,
2013-02-28 23:12:00,18.9,10.4,30.65,NW,307,12.0,15.0,69,0.00,,---,0.00,VWS V14.01,2013-03-01 06:12:00,
2013-02-28 23:17:00,19.0,10.5,30.65,West,265,0.0,0.0,69,0.00,,---,0.00,VWS V14.01,2013-03-01 06:17:00,
2013-02-28 23:22:00,18.9,10.8,30.65,WNW,296,6.0,6.0,70,0.00,,---,0.00,VWS V14.01,2013-03-01 06:22:00,
2013-02-28 23:27:00,19.0,10.8,30.65,WNW,296,2.0,3.0,70,0.00,,---,0.00,VWS V14.01,2013-03-01 06:27:00,
2013-02-28 23:32:00,18.9,11.1,30.66,SW,236,3.0,7.0,71,0.00,,---,0.00,VWS V14.01,2013-03-01 06:32:00,
2013-02-28 23:37:00,18.9,11.1,30.66,West,261,0.0,0.0,71,0.00,,---,0.00,VWS V14.01,2013-03-01 06:37:00,
2013-02-28 23:42:00,18.9,11.1,30.65,WNW,300,7.0,16.0,71,0.00,,---,0.00,VWS V14.01,2013-03-01 06:42:00,
2013-02-28 23:47:00,18.9,10.8,30.66,WSW,249,7.0,8.0,70,0.00,,---,0.00,VWS V14.01,2013-03-01 06:47:00,
2013-02-28 23:52:00,19.0,10.8,30.66,WSW,254,7.0,8.0,70,0.00,,---,0.00,VWS V14.01,2013-03-01 06:52:00,
2013-02-28 23:57:00,19.0,11.2,30.66,WNW,292,6.0,10.0,71,0.00,,---,0.00,VWS V14.01,2013-03-01 06:57:00,